<?xml version="1.0" encoding="utf-8"?>
<gpx xmlns:xsi="http://www.w3.org/2001/XMLSchema-instance" xmlns:xsd="http://www.w3.org/2001/XMLSchema" version="1.1" creator="Shapelink.com" xmlns="http://www.topografix.com/GPX/1/1" xmlns:gpxtpx="http://www.garmin.com/xmlschemas/TrackPointExtension/v1">
  <metadata>
    <name>Cycling 105.70 km, 2020-08-16</name>
    <desc></desc>
    <author><name>Marian Moron</name></author> 
    <time>2020-08-16T10:00:40Z</time>
  </metadata>
  <trk>
    <name>Cycling 105.70 km, 2020-08-16</name>
    <trkseg>
      <trkpt lat="51.229557484721" lon="4.461353111484">
        <ele>46</ele>
        <time>2020-08-16T10:00:40Z</time>
      </trkpt>
      <trkpt lat="51.229925869226" lon="4.462106057561">
        <ele>23</ele>
        <time>2020-08-16T10:00:50Z</time>
      </trkpt>
      <trkpt lat="51.230162825539" lon="4.462955395488">
        <ele>17</ele>
        <time>2020-08-16T10:01:01Z</time>
      </trkpt>
      <trkpt lat="51.230373211229" lon="4.463710353221">
        <ele>12.8</ele>
        <time>2020-08-16T10:01:10Z</time>
      </trkpt>
      <trkpt lat="51.230603881117" lon="4.464583076649">
        <ele>10.2</ele>
        <time>2020-08-16T10:01:21Z</time>
      </trkpt>
      <trkpt lat="51.230735057852" lon="4.465429061816">
        <ele>6.2</ele>
        <time>2020-08-16T10:01:31Z</time>
      </trkpt>
      <trkpt lat="51.230724915753" lon="4.466308574583">
        <ele>4.2</ele>
        <time>2020-08-16T10:01:41Z</time>
      </trkpt>
      <trkpt lat="51.23070421246" lon="4.467221028217">
        <ele>2.6</ele>
        <time>2020-08-16T10:01:52Z</time>
      </trkpt>
      <trkpt lat="51.230719970432" lon="4.467367795286">
        <ele>2.8</ele>
        <time>2020-08-16T10:01:55Z</time>
      </trkpt>
      <trkpt lat="51.231297399523" lon="4.467251957428">
        <ele>3</ele>
        <time>2020-08-16T10:02:10Z</time>
      </trkpt>
      <trkpt lat="51.231762343516" lon="4.467290597987">
        <ele>2.8</ele>
        <time>2020-08-16T10:02:20Z</time>
      </trkpt>
      <trkpt lat="51.231849934371" lon="4.467216837267">
        <ele>2.8</ele>
        <time>2020-08-16T10:02:22Z</time>
      </trkpt>
      <trkpt lat="51.231932915181" lon="4.467139891425">
        <ele>2.8</ele>
        <time>2020-08-16T10:02:24Z</time>
      </trkpt>
      <trkpt lat="51.232038108026" lon="4.467123798177">
        <ele>3.4</ele>
        <time>2020-08-16T10:02:27Z</time>
      </trkpt>
      <trkpt lat="51.232105917597" lon="4.467386989837">
        <ele>4</ele>
        <time>2020-08-16T10:02:32Z</time>
      </trkpt>
      <trkpt lat="51.232461813071" lon="4.468117891517">
        <ele>5.8</ele>
        <time>2020-08-16T10:02:44Z</time>
      </trkpt>
      <trkpt lat="51.232785857325" lon="4.468813170122">
        <ele>8.2</ele>
        <time>2020-08-16T10:02:54Z</time>
      </trkpt>
      <trkpt lat="51.233116607099" lon="4.46958363437">
        <ele>14.4</ele>
        <time>2020-08-16T10:03:04Z</time>
      </trkpt>
      <trkpt lat="51.233454481488" lon="4.470345968175">
        <ele>14.4</ele>
        <time>2020-08-16T10:03:14Z</time>
      </trkpt>
      <trkpt lat="51.233795792456" lon="4.471087598687">
        <ele>11.6</ele>
        <time>2020-08-16T10:03:24Z</time>
      </trkpt>
      <trkpt lat="51.234149257179" lon="4.471817494539">
        <ele>9.6</ele>
        <time>2020-08-16T10:03:34Z</time>
      </trkpt>
      <trkpt lat="51.234485958102" lon="4.472558286861">
        <ele>9</ele>
        <time>2020-08-16T10:03:43Z</time>
      </trkpt>
      <trkpt lat="51.234614704086" lon="4.47287017736">
        <ele>9.4</ele>
        <time>2020-08-16T10:03:48Z</time>
      </trkpt>
      <trkpt lat="51.234924918205" lon="4.47364382673">
        <ele>10.2</ele>
        <time>2020-08-16T10:03:59Z</time>
      </trkpt>
      <trkpt lat="51.235000858219" lon="4.473698057623">
        <ele>9.8</ele>
        <time>2020-08-16T10:04:01Z</time>
      </trkpt>
      <trkpt lat="51.235070260351" lon="4.473773327085">
        <ele>9.4</ele>
        <time>2020-08-16T10:04:03Z</time>
      </trkpt>
      <trkpt lat="51.235109655281" lon="4.473893774988">
        <ele>9.2</ele>
        <time>2020-08-16T10:04:05Z</time>
      </trkpt>
      <trkpt lat="51.235254410694" lon="4.474739760155">
        <ele>10.6</ele>
        <time>2020-08-16T10:04:16Z</time>
      </trkpt>
      <trkpt lat="51.235452642629" lon="4.475614579058">
        <ele>11.4</ele>
        <time>2020-08-16T10:04:26Z</time>
      </trkpt>
      <trkpt lat="51.235630171271" lon="4.47644338133">
        <ele>10.6</ele>
        <time>2020-08-16T10:04:35Z</time>
      </trkpt>
      <trkpt lat="51.235774004675" lon="4.477285343185">
        <ele>9.8</ele>
        <time>2020-08-16T10:04:44Z</time>
      </trkpt>
      <trkpt lat="51.235946336539" lon="4.478107523756">
        <ele>8.8</ele>
        <time>2020-08-16T10:04:53Z</time>
      </trkpt>
      <trkpt lat="51.236073238505" lon="4.479027437281">
        <ele>7</ele>
        <time>2020-08-16T10:05:03Z</time>
      </trkpt>
      <trkpt lat="51.236092684513" lon="4.479938717449">
        <ele>6.4</ele>
        <time>2020-08-16T10:05:13Z</time>
      </trkpt>
      <trkpt lat="51.236062677311" lon="4.480814625999">
        <ele>6.4</ele>
        <time>2020-08-16T10:05:23Z</time>
      </trkpt>
      <trkpt lat="51.236034346489" lon="4.481683158477">
        <ele>7.8</ele>
        <time>2020-08-16T10:05:33Z</time>
      </trkpt>
      <trkpt lat="51.236007356771" lon="4.482563257977">
        <ele>6.8</ele>
        <time>2020-08-16T10:05:44Z</time>
      </trkpt>
      <trkpt lat="51.236000567432" lon="4.483435813767">
        <ele>2</ele>
        <time>2020-08-16T10:05:54Z</time>
      </trkpt>
      <trkpt lat="51.236006518581" lon="4.484295629069">
        <ele>0</ele>
        <time>2020-08-16T10:06:03Z</time>
      </trkpt>
      <trkpt lat="51.236024958761" lon="4.485332553918">
        <ele>0</ele>
        <time>2020-08-16T10:06:13Z</time>
      </trkpt>
      <trkpt lat="51.236038788896" lon="4.486257412764">
        <ele>0.8</ele>
        <time>2020-08-16T10:06:24Z</time>
      </trkpt>
      <trkpt lat="51.236052870488" lon="4.48719316808">
        <ele>1.2</ele>
        <time>2020-08-16T10:06:34Z</time>
      </trkpt>
      <trkpt lat="51.23607784855" lon="4.488061449101">
        <ele>1</ele>
        <time>2020-08-16T10:06:43Z</time>
      </trkpt>
      <trkpt lat="51.236106011734" lon="4.488992845829">
        <ele>1</ele>
        <time>2020-08-16T10:06:53Z</time>
      </trkpt>
      <trkpt lat="51.236096204911" lon="4.489608664022">
        <ele>1.2</ele>
        <time>2020-08-16T10:07:02Z</time>
      </trkpt>
      <trkpt lat="51.236075166342" lon="4.490004373521">
        <ele>1</ele>
        <time>2020-08-16T10:07:10Z</time>
      </trkpt>
      <trkpt lat="51.236375825095" lon="4.490638045161">
        <ele>3.2</ele>
        <time>2020-08-16T10:08:49Z</time>
      </trkpt>
      <trkpt lat="51.236532818082" lon="4.490702585791">
        <ele>2.8</ele>
        <time>2020-08-16T10:08:53Z</time>
      </trkpt>
      <trkpt lat="51.236895419076" lon="4.490833930164">
        <ele>0</ele>
        <time>2020-08-16T10:09:01Z</time>
      </trkpt>
      <trkpt lat="51.237202364254" lon="4.490739298513">
        <ele>0</ele>
        <time>2020-08-16T10:09:07Z</time>
      </trkpt>
      <trkpt lat="51.237684742599" lon="4.490533522868">
        <ele>0</ele>
        <time>2020-08-16T10:09:16Z</time>
      </trkpt>
      <trkpt lat="51.237840729758" lon="4.490358760253">
        <ele>0</ele>
        <time>2020-08-16T10:09:20Z</time>
      </trkpt>
      <trkpt lat="51.238374740607" lon="4.490252896856">
        <ele>2.6</ele>
        <time>2020-08-16T10:09:31Z</time>
      </trkpt>
      <trkpt lat="51.23892853274" lon="4.490372255112">
        <ele>8.4</ele>
        <time>2020-08-16T10:09:41Z</time>
      </trkpt>
      <trkpt lat="51.239464806702" lon="4.490599739878">
        <ele>13</ele>
        <time>2020-08-16T10:09:51Z</time>
      </trkpt>
      <trkpt lat="51.239835705777" lon="4.490769138077">
        <ele>14</ele>
        <time>2020-08-16T10:09:59Z</time>
      </trkpt>
      <trkpt lat="51.240390587557" lon="4.491031994461">
        <ele>12.2</ele>
        <time>2020-08-16T10:10:10Z</time>
      </trkpt>
      <trkpt lat="51.24097539272" lon="4.491326953522">
        <ele>11</ele>
        <time>2020-08-16T10:10:19Z</time>
      </trkpt>
      <trkpt lat="51.241481743299" lon="4.491617386357">
        <ele>7.4</ele>
        <time>2020-08-16T10:10:26Z</time>
      </trkpt>
      <trkpt lat="51.241545278101" lon="4.491687375222">
        <ele>6.8</ele>
        <time>2020-08-16T10:10:27Z</time>
      </trkpt>
      <trkpt lat="51.241662540882" lon="4.491858114525">
        <ele>5.8</ele>
        <time>2020-08-16T10:10:29Z</time>
      </trkpt>
      <trkpt lat="51.241873597124" lon="4.492408972993">
        <ele>2.6</ele>
        <time>2020-08-16T10:10:34Z</time>
      </trkpt>
      <trkpt lat="51.241964373101" lon="4.493274990901">
        <ele>1.8</ele>
        <time>2020-08-16T10:10:41Z</time>
      </trkpt>
      <trkpt lat="51.242055316716" lon="4.494152156736">
        <ele>2.4</ele>
        <time>2020-08-16T10:10:49Z</time>
      </trkpt>
      <trkpt lat="51.242192109324" lon="4.495022784689">
        <ele>4.4</ele>
        <time>2020-08-16T10:10:59Z</time>
      </trkpt>
      <trkpt lat="51.242343821714" lon="4.495865165639">
        <ele>5.6</ele>
        <time>2020-08-16T10:11:09Z</time>
      </trkpt>
      <trkpt lat="51.242591003945" lon="4.496667816383">
        <ele>6.4</ele>
        <time>2020-08-16T10:11:19Z</time>
      </trkpt>
      <trkpt lat="51.242909599964" lon="4.497448255092">
        <ele>5</ele>
        <time>2020-08-16T10:11:29Z</time>
      </trkpt>
      <trkpt lat="51.243198021143" lon="4.498182006618">
        <ele>5</ele>
        <time>2020-08-16T10:11:39Z</time>
      </trkpt>
      <trkpt lat="51.243275553718" lon="4.498364648219">
        <ele>5.8</ele>
        <time>2020-08-16T10:11:42Z</time>
      </trkpt>
      <trkpt lat="51.243644524956" lon="4.499042827748">
        <ele>6</ele>
        <time>2020-08-16T10:11:52Z</time>
      </trkpt>
      <trkpt lat="51.24388475021" lon="4.49981547129">
        <ele>8.6</ele>
        <time>2020-08-16T10:12:02Z</time>
      </trkpt>
      <trkpt lat="51.244132351536" lon="4.500660953543">
        <ele>12.4</ele>
        <time>2020-08-16T10:12:12Z</time>
      </trkpt>
      <trkpt lat="51.24416805843" lon="4.500918696968">
        <ele>13.4</ele>
        <time>2020-08-16T10:12:15Z</time>
      </trkpt>
      <trkpt lat="51.243697330926" lon="4.501324464747">
        <ele>7</ele>
        <time>2020-08-16T10:12:29Z</time>
      </trkpt>
      <trkpt lat="51.243582750353" lon="4.501458575147">
        <ele>5.8</ele>
        <time>2020-08-16T10:12:32Z</time>
      </trkpt>
      <trkpt lat="51.243049242418" lon="4.501770800922">
        <ele>9</ele>
        <time>2020-08-16T10:12:42Z</time>
      </trkpt>
      <trkpt lat="51.242744727991" lon="4.501916394525">
        <ele>12.2</ele>
        <time>2020-08-16T10:12:47Z</time>
      </trkpt>
      <trkpt lat="51.242517746139" lon="4.501934667067">
        <ele>10.6</ele>
        <time>2020-08-16T10:12:51Z</time>
      </trkpt>
      <trkpt lat="51.241975437209" lon="4.501610790451">
        <ele>6.8</ele>
        <time>2020-08-16T10:13:01Z</time>
      </trkpt>
      <trkpt lat="51.241447126052" lon="4.501274340985">
        <ele>8.6</ele>
        <time>2020-08-16T10:13:13Z</time>
      </trkpt>
      <trkpt lat="51.241250654316" lon="4.501160682421">
        <ele>9</ele>
        <time>2020-08-16T10:13:17Z</time>
      </trkpt>
      <trkpt lat="51.241115621907" lon="4.501089100995">
        <ele>8.8</ele>
        <time>2020-08-16T10:13:20Z</time>
      </trkpt>
      <trkpt lat="51.241026438491" lon="4.501160514783">
        <ele>7.4</ele>
        <time>2020-08-16T10:13:23Z</time>
      </trkpt>
      <trkpt lat="51.241020738799" lon="4.501344413669">
        <ele>5.2</ele>
        <time>2020-08-16T10:13:25Z</time>
      </trkpt>
      <trkpt lat="51.241078406271" lon="4.50144407446">
        <ele>4.2</ele>
        <time>2020-08-16T10:13:28Z</time>
      </trkpt>
      <trkpt lat="51.241632617499" lon="4.501730651621">
        <ele>2.6</ele>
        <time>2020-08-16T10:13:38Z</time>
      </trkpt>
      <trkpt lat="51.242196467912" lon="4.501972888531">
        <ele>4.2</ele>
        <time>2020-08-16T10:13:47Z</time>
      </trkpt>
      <trkpt lat="51.242707512355" lon="4.502250497059">
        <ele>8.4</ele>
        <time>2020-08-16T10:13:55Z</time>
      </trkpt>
      <trkpt lat="51.24327203332" lon="4.502564566852">
        <ele>10</ele>
        <time>2020-08-16T10:14:04Z</time>
      </trkpt>
      <trkpt lat="51.243787687808" lon="4.502899759033">
        <ele>11.4</ele>
        <time>2020-08-16T10:14:13Z</time>
      </trkpt>
      <trkpt lat="51.244356818818" lon="4.503156831906">
        <ele>8.4</ele>
        <time>2020-08-16T10:14:22Z</time>
      </trkpt>
      <trkpt lat="51.244903570155" lon="4.503441397411">
        <ele>10.2</ele>
        <time>2020-08-16T10:14:31Z</time>
      </trkpt>
      <trkpt lat="51.245421487756" lon="4.503703667062">
        <ele>13.4</ele>
        <time>2020-08-16T10:14:40Z</time>
      </trkpt>
      <trkpt lat="51.245983745608" lon="4.50396032084">
        <ele>14.4</ele>
        <time>2020-08-16T10:14:50Z</time>
      </trkpt>
      <trkpt lat="51.246528736746" lon="4.504218064265">
        <ele>15</ele>
        <time>2020-08-16T10:14:59Z</time>
      </trkpt>
      <trkpt lat="51.247067609097" lon="4.504480166278">
        <ele>12.2</ele>
        <time>2020-08-16T10:15:08Z</time>
      </trkpt>
      <trkpt lat="51.247591896942" lon="4.504751404562">
        <ele>12.6</ele>
        <time>2020-08-16T10:15:17Z</time>
      </trkpt>
      <trkpt lat="51.248101265005" lon="4.505036221524">
        <ele>13.8</ele>
        <time>2020-08-16T10:15:26Z</time>
      </trkpt>
      <trkpt lat="51.248624798479" lon="4.505301760116">
        <ele>16.4</ele>
        <time>2020-08-16T10:15:35Z</time>
      </trkpt>
      <trkpt lat="51.249632973411" lon="4.505817414604">
        <ele>14.6</ele>
        <time>2020-08-16T10:15:52Z</time>
      </trkpt>
      <trkpt lat="51.250062294329" lon="4.506006426449">
        <ele>13.6</ele>
        <time>2020-08-16T10:16:01Z</time>
      </trkpt>
      <trkpt lat="51.250177377816" lon="4.506092508562">
        <ele>13</ele>
        <time>2020-08-16T10:16:04Z</time>
      </trkpt>
      <trkpt lat="51.250696217426" lon="4.506350168168">
        <ele>12.2</ele>
        <time>2020-08-16T10:16:15Z</time>
      </trkpt>
      <trkpt lat="51.251225115316" lon="4.506595925476">
        <ele>14.2</ele>
        <time>2020-08-16T10:16:25Z</time>
      </trkpt>
      <trkpt lat="51.251760131993" lon="4.50687638385">
        <ele>11</ele>
        <time>2020-08-16T10:16:34Z</time>
      </trkpt>
      <trkpt lat="51.252274948291" lon="4.507134881646">
        <ele>8</ele>
        <time>2020-08-16T10:16:43Z</time>
      </trkpt>
      <trkpt lat="51.252517771934" lon="4.507200931018">
        <ele>6.8</ele>
        <time>2020-08-16T10:16:50Z</time>
      </trkpt>
      <trkpt lat="51.252550545163" lon="4.507248456391">
        <ele>8.2</ele>
        <time>2020-08-16T10:16:56Z</time>
      </trkpt>
      <trkpt lat="51.252718183163" lon="4.507352811046">
        <ele>8</ele>
        <time>2020-08-16T10:17:44Z</time>
      </trkpt>
      <trkpt lat="51.2532481707" lon="4.507632347411">
        <ele>8.8</ele>
        <time>2020-08-16T10:17:54Z</time>
      </trkpt>
      <trkpt lat="51.25378377411" lon="4.507904256247">
        <ele>10.6</ele>
        <time>2020-08-16T10:18:02Z</time>
      </trkpt>
      <trkpt lat="51.254328849067" lon="4.508166861174">
        <ele>11.4</ele>
        <time>2020-08-16T10:18:10Z</time>
      </trkpt>
      <trkpt lat="51.254891526014" lon="4.508436423078">
        <ele>12.4</ele>
        <time>2020-08-16T10:18:18Z</time>
      </trkpt>
      <trkpt lat="51.255414472755" lon="4.508703721869">
        <ele>13</ele>
        <time>2020-08-16T10:18:26Z</time>
      </trkpt>
      <trkpt lat="51.255983017032" lon="4.508979234922">
        <ele>11.6</ele>
        <time>2020-08-16T10:18:35Z</time>
      </trkpt>
      <trkpt lat="51.256513339845" lon="4.509231781569">
        <ele>11</ele>
        <time>2020-08-16T10:18:43Z</time>
      </trkpt>
      <trkpt lat="51.257084147235" lon="4.509518694006">
        <ele>11.4</ele>
        <time>2020-08-16T10:18:52Z</time>
      </trkpt>
      <trkpt lat="51.257637436454" lon="4.509812228144">
        <ele>11.6</ele>
        <time>2020-08-16T10:19:01Z</time>
      </trkpt>
      <trkpt lat="51.258183014325" lon="4.510075252166">
        <ele>11.4</ele>
        <time>2020-08-16T10:19:10Z</time>
      </trkpt>
      <trkpt lat="51.258696908614" lon="4.510337773274">
        <ele>11</ele>
        <time>2020-08-16T10:19:19Z</time>
      </trkpt>
      <trkpt lat="51.259252377127" lon="4.510622506417">
        <ele>13.2</ele>
        <time>2020-08-16T10:19:28Z</time>
      </trkpt>
      <trkpt lat="51.259810779305" lon="4.510906820465">
        <ele>14.2</ele>
        <time>2020-08-16T10:19:37Z</time>
      </trkpt>
      <trkpt lat="51.260363314153" lon="4.511188703762">
        <ele>13.8</ele>
        <time>2020-08-16T10:19:46Z</time>
      </trkpt>
      <trkpt lat="51.260908053834" lon="4.511472095801">
        <ele>14.6</ele>
        <time>2020-08-16T10:19:55Z</time>
      </trkpt>
      <trkpt lat="51.261440136846" lon="4.51174878232">
        <ele>14.4</ele>
        <time>2020-08-16T10:20:04Z</time>
      </trkpt>
      <trkpt lat="51.261661419006" lon="4.511844755075">
        <ele>14.6</ele>
        <time>2020-08-16T10:20:08Z</time>
      </trkpt>
      <trkpt lat="51.261731575509" lon="4.511819693194">
        <ele>16</ele>
        <time>2020-08-16T10:20:10Z</time>
      </trkpt>
      <trkpt lat="51.261999544852" lon="4.511165066804">
        <ele>16.2</ele>
        <time>2020-08-16T10:20:21Z</time>
      </trkpt>
      <trkpt lat="51.262335156128" lon="4.510427040509">
        <ele>13.4</ele>
        <time>2020-08-16T10:20:31Z</time>
      </trkpt>
      <trkpt lat="51.262649812654" lon="4.509677028097">
        <ele>11.4</ele>
        <time>2020-08-16T10:20:41Z</time>
      </trkpt>
      <trkpt lat="51.262944520258" lon="4.508938415069">
        <ele>12</ele>
        <time>2020-08-16T10:20:52Z</time>
      </trkpt>
      <trkpt lat="51.262932869417" lon="4.508907653496">
        <ele>11.6</ele>
        <time>2020-08-16T10:20:53Z</time>
      </trkpt>
      <trkpt lat="51.262596168494" lon="4.50851169254">
        <ele>9.4</ele>
        <time>2020-08-16T10:21:08Z</time>
      </trkpt>
      <trkpt lat="51.262621733289" lon="4.508462658425">
        <ele>10.8</ele>
        <time>2020-08-16T10:21:10Z</time>
      </trkpt>
      <trkpt lat="51.263082570151" lon="4.508509680884">
        <ele>13.6</ele>
        <time>2020-08-16T10:21:23Z</time>
      </trkpt>
      <trkpt lat="51.263406530586" lon="4.50774977783">
        <ele>12.6</ele>
        <time>2020-08-16T10:21:34Z</time>
      </trkpt>
      <trkpt lat="51.263467466999" lon="4.507554647198">
        <ele>11</ele>
        <time>2020-08-16T10:21:40Z</time>
      </trkpt>
      <trkpt lat="51.263589256006" lon="4.507231860229">
        <ele>11.8</ele>
        <time>2020-08-16T10:21:59Z</time>
      </trkpt>
      <trkpt lat="51.26387893447" lon="4.506486960776">
        <ele>15.8</ele>
        <time>2020-08-16T10:22:13Z</time>
      </trkpt>
      <trkpt lat="51.264206163846" lon="4.505724040238">
        <ele>16</ele>
        <time>2020-08-16T10:22:24Z</time>
      </trkpt>
      <trkpt lat="51.264542361855" lon="4.504954581818">
        <ele>18.8</ele>
        <time>2020-08-16T10:22:34Z</time>
      </trkpt>
      <trkpt lat="51.264806056429" lon="4.504141034604">
        <ele>20.8</ele>
        <time>2020-08-16T10:22:43Z</time>
      </trkpt>
      <trkpt lat="51.265118282204" lon="4.503350789072">
        <ele>21.4</ele>
        <time>2020-08-16T10:22:52Z</time>
      </trkpt>
      <trkpt lat="51.265399494949" lon="4.502628353111">
        <ele>21.4</ele>
        <time>2020-08-16T10:22:59Z</time>
      </trkpt>
      <trkpt lat="51.265696046571" lon="4.501829055127">
        <ele>21.2</ele>
        <time>2020-08-16T10:23:09Z</time>
      </trkpt>
      <trkpt lat="51.26599284965" lon="4.501026572021">
        <ele>24</ele>
        <time>2020-08-16T10:23:18Z</time>
      </trkpt>
      <trkpt lat="51.266227039936" lon="4.500240601258">
        <ele>24.8</ele>
        <time>2020-08-16T10:23:26Z</time>
      </trkpt>
      <trkpt lat="51.266575894614" lon="4.499514644899">
        <ele>25.8</ele>
        <time>2020-08-16T10:23:35Z</time>
      </trkpt>
      <trkpt lat="51.26693748978" lon="4.4988255689">
        <ele>28.6</ele>
        <time>2020-08-16T10:23:44Z</time>
      </trkpt>
      <trkpt lat="51.267326745216" lon="4.498176055469">
        <ele>19.8</ele>
        <time>2020-08-16T10:23:53Z</time>
      </trkpt>
      <trkpt lat="51.267797640358" lon="4.497700969377">
        <ele>16.2</ele>
        <time>2020-08-16T10:24:02Z</time>
      </trkpt>
      <trkpt lat="51.268323604583" lon="4.497332165777">
        <ele>16.8</ele>
        <time>2020-08-16T10:24:12Z</time>
      </trkpt>
      <trkpt lat="51.268884856607" lon="4.497092024342">
        <ele>17.4</ele>
        <time>2020-08-16T10:24:25Z</time>
      </trkpt>
      <trkpt lat="51.269425070062" lon="4.496856912047">
        <ele>18.8</ele>
        <time>2020-08-16T10:24:41Z</time>
      </trkpt>
      <trkpt lat="51.269958158902" lon="4.496656836094">
        <ele>17</ele>
        <time>2020-08-16T10:24:59Z</time>
      </trkpt>
      <trkpt lat="51.27049392995" lon="4.496488024628">
        <ele>17.6</ele>
        <time>2020-08-16T10:25:12Z</time>
      </trkpt>
      <trkpt lat="51.271046213341" lon="4.496319799895">
        <ele>16.6</ele>
        <time>2020-08-16T10:25:22Z</time>
      </trkpt>
      <trkpt lat="51.271108993772" lon="4.496291804349">
        <ele>16.6</ele>
        <time>2020-08-16T10:25:23Z</time>
      </trkpt>
      <trkpt lat="51.271710898011" lon="4.496084855238">
        <ele>14</ele>
        <time>2020-08-16T10:25:31Z</time>
      </trkpt>
      <trkpt lat="51.272254380407" lon="4.495939345454">
        <ele>12.4</ele>
        <time>2020-08-16T10:25:37Z</time>
      </trkpt>
      <trkpt lat="51.272809346006" lon="4.495772210368">
        <ele>10.2</ele>
        <time>2020-08-16T10:25:43Z</time>
      </trkpt>
      <trkpt lat="51.273352660764" lon="4.495604572368">
        <ele>7.2</ele>
        <time>2020-08-16T10:25:50Z</time>
      </trkpt>
      <trkpt lat="51.273941740696" lon="4.495437940196">
        <ele>3</ele>
        <time>2020-08-16T10:25:58Z</time>
      </trkpt>
      <trkpt lat="51.274512128991" lon="4.495287904186">
        <ele>1.2</ele>
        <time>2020-08-16T10:26:07Z</time>
      </trkpt>
      <trkpt lat="51.275090731548" lon="4.495236690777">
        <ele>0.6</ele>
        <time>2020-08-16T10:26:17Z</time>
      </trkpt>
      <trkpt lat="51.275679057109" lon="4.495157817098">
        <ele>0</ele>
        <time>2020-08-16T10:26:27Z</time>
      </trkpt>
      <trkpt lat="51.276240392952" lon="4.49503192096">
        <ele>0</ele>
        <time>2020-08-16T10:26:36Z</time>
      </trkpt>
      <trkpt lat="51.276831233083" lon="4.494938462775">
        <ele>4</ele>
        <time>2020-08-16T10:26:46Z</time>
      </trkpt>
      <trkpt lat="51.277373290556" lon="4.49485171011">
        <ele>4.6</ele>
        <time>2020-08-16T10:26:55Z</time>
      </trkpt>
      <trkpt lat="51.277969914198" lon="4.494744589428">
        <ele>4.2</ele>
        <time>2020-08-16T10:27:05Z</time>
      </trkpt>
      <trkpt lat="51.278313655917" lon="4.494664626102">
        <ele>0</ele>
        <time>2020-08-16T10:27:11Z</time>
      </trkpt>
      <trkpt lat="51.278489843455" lon="4.494629170665">
        <ele>0.2</ele>
        <time>2020-08-16T10:27:14Z</time>
      </trkpt>
      <trkpt lat="51.279069032745" lon="4.49459773854">
        <ele>3.4</ele>
        <time>2020-08-16T10:27:24Z</time>
      </trkpt>
      <trkpt lat="51.279640678325" lon="4.494546692769">
        <ele>0</ele>
        <time>2020-08-16T10:27:35Z</time>
      </trkpt>
      <trkpt lat="51.280119284815" lon="4.494222564696">
        <ele>0.4</ele>
        <time>2020-08-16T10:27:49Z</time>
      </trkpt>
      <trkpt lat="51.280562519687" lon="4.493619654629">
        <ele>3</ele>
        <time>2020-08-16T10:28:02Z</time>
      </trkpt>
      <trkpt lat="51.280873320539" lon="4.493285635914">
        <ele>3</ele>
        <time>2020-08-16T10:28:10Z</time>
      </trkpt>
      <trkpt lat="51.281322171284" lon="4.493766086422">
        <ele>2.2</ele>
        <time>2020-08-16T10:28:24Z</time>
      </trkpt>
      <trkpt lat="51.281747636528" lon="4.493741778912">
        <ele>0.6</ele>
        <time>2020-08-16T10:28:35Z</time>
      </trkpt>
      <trkpt lat="51.282292124752" lon="4.493682854155">
        <ele>0</ele>
        <time>2020-08-16T10:28:48Z</time>
      </trkpt>
      <trkpt lat="51.282742987153" lon="4.493785700068">
        <ele>0</ele>
        <time>2020-08-16T10:28:58Z</time>
      </trkpt>
      <trkpt lat="51.282855723708" lon="4.493924588151">
        <ele>0</ele>
        <time>2020-08-16T10:29:01Z</time>
      </trkpt>
      <trkpt lat="51.283320919158" lon="4.494469244013">
        <ele>0</ele>
        <time>2020-08-16T10:29:12Z</time>
      </trkpt>
      <trkpt lat="51.283711683336" lon="4.495069974786">
        <ele>0</ele>
        <time>2020-08-16T10:29:21Z</time>
      </trkpt>
      <trkpt lat="51.28412625211" lon="4.495706412453">
        <ele>0</ele>
        <time>2020-08-16T10:29:31Z</time>
      </trkpt>
      <trkpt lat="51.284543754549" lon="4.496347543984">
        <ele>0</ele>
        <time>2020-08-16T10:29:42Z</time>
      </trkpt>
      <trkpt lat="51.284825721665" lon="4.4967133301">
        <ele>0</ele>
        <time>2020-08-16T10:29:48Z</time>
      </trkpt>
      <trkpt lat="51.28491163614" lon="4.496782145499">
        <ele>0</ele>
        <time>2020-08-16T10:29:50Z</time>
      </trkpt>
      <trkpt lat="51.285468613395" lon="4.496862192644">
        <ele>1</ele>
        <time>2020-08-16T10:30:02Z</time>
      </trkpt>
      <trkpt lat="51.286036990034" lon="4.496854900391">
        <ele>0</ele>
        <time>2020-08-16T10:30:13Z</time>
      </trkpt>
      <trkpt lat="51.286608803252" lon="4.496809638131">
        <ele>0</ele>
        <time>2020-08-16T10:30:23Z</time>
      </trkpt>
      <trkpt lat="51.287404832295" lon="4.49670997734">
        <ele>0</ele>
        <time>2020-08-16T10:30:37Z</time>
      </trkpt>
      <trkpt lat="51.2879911462" lon="4.496676952654">
        <ele>0</ele>
        <time>2020-08-16T10:30:48Z</time>
      </trkpt>
      <trkpt lat="51.288050238595" lon="4.496675695369">
        <ele>0</ele>
        <time>2020-08-16T10:30:49Z</time>
      </trkpt>
      <trkpt lat="51.288603695452" lon="4.496640156113">
        <ele>0.2</ele>
        <time>2020-08-16T10:30:59Z</time>
      </trkpt>
      <trkpt lat="51.289146423477" lon="4.496571508352">
        <ele>5.2</ele>
        <time>2020-08-16T10:31:09Z</time>
      </trkpt>
      <trkpt lat="51.28972368493" lon="4.496553068172">
        <ele>7</ele>
        <time>2020-08-16T10:31:20Z</time>
      </trkpt>
      <trkpt lat="51.289802726247" lon="4.496576621311">
        <ele>7</ele>
        <time>2020-08-16T10:31:21Z</time>
      </trkpt>
      <trkpt lat="51.289826530843" lon="4.496611154739">
        <ele>6.8</ele>
        <time>2020-08-16T10:31:23Z</time>
      </trkpt>
      <trkpt lat="51.289857208597" lon="4.496769572649">
        <ele>6.4</ele>
        <time>2020-08-16T10:31:26Z</time>
      </trkpt>
      <trkpt lat="51.289842456453" lon="4.497673812021">
        <ele>4.8</ele>
        <time>2020-08-16T10:31:38Z</time>
      </trkpt>
      <trkpt lat="51.289890149464" lon="4.498606382215">
        <ele>2.4</ele>
        <time>2020-08-16T10:31:49Z</time>
      </trkpt>
      <trkpt lat="51.290053009781" lon="4.499481201118">
        <ele>2.8</ele>
        <time>2020-08-16T10:31:59Z</time>
      </trkpt>
      <trkpt lat="51.290246547852" lon="4.500339088583">
        <ele>2.8</ele>
        <time>2020-08-16T10:32:09Z</time>
      </trkpt>
      <trkpt lat="51.290517199403" lon="4.501092621393">
        <ele>2.6</ele>
        <time>2020-08-16T10:32:19Z</time>
      </trkpt>
      <trkpt lat="51.290722975048" lon="4.501714726011">
        <ele>2.8</ele>
        <time>2020-08-16T10:32:31Z</time>
      </trkpt>
      <trkpt lat="51.290749042757" lon="4.501739536435">
        <ele>4</ele>
        <time>2020-08-16T10:33:03Z</time>
      </trkpt>
      <trkpt lat="51.291081133635" lon="4.502487872467">
        <ele>5.4</ele>
        <time>2020-08-16T10:33:21Z</time>
      </trkpt>
      <trkpt lat="51.291265870711" lon="4.502951726813">
        <ele>5.6</ele>
        <time>2020-08-16T10:33:28Z</time>
      </trkpt>
      <trkpt lat="51.291588070947" lon="4.503722610156">
        <ele>5.8</ele>
        <time>2020-08-16T10:33:39Z</time>
      </trkpt>
      <trkpt lat="51.291681445313" lon="4.503935091321">
        <ele>6</ele>
        <time>2020-08-16T10:33:42Z</time>
      </trkpt>
      <trkpt lat="51.292123171443" lon="4.504058221432">
        <ele>7</ele>
        <time>2020-08-16T10:34:03Z</time>
      </trkpt>
      <trkpt lat="51.292535644742" lon="4.503490682983">
        <ele>8</ele>
        <time>2020-08-16T10:34:15Z</time>
      </trkpt>
      <trkpt lat="51.292975778311" lon="4.502949798976">
        <ele>8.6</ele>
        <time>2020-08-16T10:34:26Z</time>
      </trkpt>
      <trkpt lat="51.29343183749" lon="4.502421068724">
        <ele>9</ele>
        <time>2020-08-16T10:34:37Z</time>
      </trkpt>
      <trkpt lat="51.293552620669" lon="4.502261477348">
        <ele>9.2</ele>
        <time>2020-08-16T10:34:40Z</time>
      </trkpt>
      <trkpt lat="51.294005494726" lon="4.501681701325">
        <ele>9.8</ele>
        <time>2020-08-16T10:34:51Z</time>
      </trkpt>
      <trkpt lat="51.29446364938" lon="4.501118940559">
        <ele>10.8</ele>
        <time>2020-08-16T10:35:02Z</time>
      </trkpt>
      <trkpt lat="51.294935885626" lon="4.50055978401">
        <ele>11.8</ele>
        <time>2020-08-16T10:35:13Z</time>
      </trkpt>
      <trkpt lat="51.295400494343" lon="4.499985204765">
        <ele>12.6</ele>
        <time>2020-08-16T10:35:24Z</time>
      </trkpt>
      <trkpt lat="51.295529910879" lon="4.499834330565">
        <ele>12.8</ele>
        <time>2020-08-16T10:35:27Z</time>
      </trkpt>
      <trkpt lat="51.295660081786" lon="4.499676080293">
        <ele>13.2</ele>
        <time>2020-08-16T10:35:30Z</time>
      </trkpt>
      <trkpt lat="51.296088648333" lon="4.499119438314">
        <ele>13.8</ele>
        <time>2020-08-16T10:35:40Z</time>
      </trkpt>
      <trkpt lat="51.296525932056" lon="4.498565981457">
        <ele>13.8</ele>
        <time>2020-08-16T10:35:50Z</time>
      </trkpt>
      <trkpt lat="51.29674939351" lon="4.498299353218">
        <ele>14</ele>
        <time>2020-08-16T10:35:55Z</time>
      </trkpt>
      <trkpt lat="51.296846707369" lon="4.498225676317">
        <ele>14</ele>
        <time>2020-08-16T10:35:57Z</time>
      </trkpt>
      <trkpt lat="51.297012668989" lon="4.498276386812">
        <ele>14</ele>
        <time>2020-08-16T10:36:00Z</time>
      </trkpt>
      <trkpt lat="51.297505105614" lon="4.498710066318">
        <ele>14.2</ele>
        <time>2020-08-16T10:36:10Z</time>
      </trkpt>
      <trkpt lat="51.297742397203" lon="4.498882901096">
        <ele>14.6</ele>
        <time>2020-08-16T10:36:15Z</time>
      </trkpt>
      <trkpt lat="51.298200048943" lon="4.499359747387">
        <ele>15</ele>
        <time>2020-08-16T10:36:24Z</time>
      </trkpt>
      <trkpt lat="51.29870908173" lon="4.499732155204">
        <ele>15</ele>
        <time>2020-08-16T10:36:35Z</time>
      </trkpt>
      <trkpt lat="51.299238901629" lon="4.500169103651">
        <ele>13.8</ele>
        <time>2020-08-16T10:36:44Z</time>
      </trkpt>
      <trkpt lat="51.299749862253" lon="4.500615188369">
        <ele>13.2</ele>
        <time>2020-08-16T10:36:55Z</time>
      </trkpt>
      <trkpt lat="51.299941388668" lon="4.50079028626">
        <ele>13</ele>
        <time>2020-08-16T10:36:59Z</time>
      </trkpt>
      <trkpt lat="51.300460647373" lon="4.501249027647">
        <ele>14</ele>
        <time>2020-08-16T10:37:09Z</time>
      </trkpt>
      <trkpt lat="51.300967836142" lon="4.501659573109">
        <ele>15.6</ele>
        <time>2020-08-16T10:37:19Z</time>
      </trkpt>
      <trkpt lat="51.301469492857" lon="4.502084116344">
        <ele>16.4</ele>
        <time>2020-08-16T10:37:30Z</time>
      </trkpt>
      <trkpt lat="51.301991098494" lon="4.502503043706">
        <ele>17.2</ele>
        <time>2020-08-16T10:37:41Z</time>
      </trkpt>
      <trkpt lat="51.30248764225" lon="4.502910571684">
        <ele>17.4</ele>
        <time>2020-08-16T10:37:51Z</time>
      </trkpt>
      <trkpt lat="51.303012935923" lon="4.503348693597">
        <ele>18</ele>
        <time>2020-08-16T10:38:02Z</time>
      </trkpt>
      <trkpt lat="51.303534793017" lon="4.503784217121">
        <ele>19</ele>
        <time>2020-08-16T10:38:13Z</time>
      </trkpt>
      <trkpt lat="51.30401314805" lon="4.504197193334">
        <ele>19.6</ele>
        <time>2020-08-16T10:38:23Z</time>
      </trkpt>
      <trkpt lat="51.304513966575" lon="4.504631543392">
        <ele>19.8</ele>
        <time>2020-08-16T10:38:34Z</time>
      </trkpt>
      <trkpt lat="51.305018724593" lon="4.505073688617">
        <ele>20.6</ele>
        <time>2020-08-16T10:38:45Z</time>
      </trkpt>
      <trkpt lat="51.30553278652" lon="4.50549001759">
        <ele>21.4</ele>
        <time>2020-08-16T10:38:56Z</time>
      </trkpt>
      <trkpt lat="51.306036706348" lon="4.50590995078">
        <ele>21</ele>
        <time>2020-08-16T10:39:07Z</time>
      </trkpt>
      <trkpt lat="51.306522521272" lon="4.506299960587">
        <ele>20.6</ele>
        <time>2020-08-16T10:39:17Z</time>
      </trkpt>
      <trkpt lat="51.307014957897" lon="4.506700280131">
        <ele>19.8</ele>
        <time>2020-08-16T10:39:27Z</time>
      </trkpt>
      <trkpt lat="51.307477974053" lon="4.507148208867">
        <ele>19</ele>
        <time>2020-08-16T10:39:37Z</time>
      </trkpt>
      <trkpt lat="51.307730101605" lon="4.507451968923">
        <ele>18.6</ele>
        <time>2020-08-16T10:39:43Z</time>
      </trkpt>
      <trkpt lat="51.307800509565" lon="4.507637795646">
        <ele>18.4</ele>
        <time>2020-08-16T10:39:46Z</time>
      </trkpt>
      <trkpt lat="51.308290096344" lon="4.508102572001">
        <ele>16.8</ele>
        <time>2020-08-16T10:40:00Z</time>
      </trkpt>
      <trkpt lat="51.308705838584" lon="4.508533988394">
        <ele>16</ele>
        <time>2020-08-16T10:40:10Z</time>
      </trkpt>
      <trkpt lat="51.309180170305" lon="4.50906154518">
        <ele>16.2</ele>
        <time>2020-08-16T10:40:21Z</time>
      </trkpt>
      <trkpt lat="51.30926105564" lon="4.509148884578">
        <ele>16.4</ele>
        <time>2020-08-16T10:40:22Z</time>
      </trkpt>
      <trkpt lat="51.309676294966" lon="4.509630173276">
        <ele>16.6</ele>
        <time>2020-08-16T10:40:34Z</time>
      </trkpt>
      <trkpt lat="51.310149201764" lon="4.510158652071">
        <ele>15.6</ele>
        <time>2020-08-16T10:40:45Z</time>
      </trkpt>
      <trkpt lat="51.310628730263" lon="4.510668439229">
        <ele>13.8</ele>
        <time>2020-08-16T10:40:56Z</time>
      </trkpt>
      <trkpt lat="51.311069115289" lon="4.511167749012">
        <ele>12.8</ele>
        <time>2020-08-16T10:41:06Z</time>
      </trkpt>
      <trkpt lat="51.311522911355" lon="4.511671249745">
        <ele>11.6</ele>
        <time>2020-08-16T10:41:16Z</time>
      </trkpt>
      <trkpt lat="51.311972851747" lon="4.512151197339">
        <ele>10.6</ele>
        <time>2020-08-16T10:41:26Z</time>
      </trkpt>
      <trkpt lat="51.312450955323" lon="4.512699625056">
        <ele>10.2</ele>
        <time>2020-08-16T10:41:36Z</time>
      </trkpt>
      <trkpt lat="51.312903661742" lon="4.513231037516">
        <ele>10</ele>
        <time>2020-08-16T10:41:46Z</time>
      </trkpt>
      <trkpt lat="51.313362989862" lon="4.513728000367">
        <ele>10.2</ele>
        <time>2020-08-16T10:41:56Z</time>
      </trkpt>
      <trkpt lat="51.313449993984" lon="4.513829421357">
        <ele>10.4</ele>
        <time>2020-08-16T10:41:57Z</time>
      </trkpt>
      <trkpt lat="51.31392642118" lon="4.51433795123">
        <ele>10.4</ele>
        <time>2020-08-16T10:42:09Z</time>
      </trkpt>
      <trkpt lat="51.314125742762" lon="4.514561412684">
        <ele>10.6</ele>
        <time>2020-08-16T10:42:14Z</time>
      </trkpt>
      <trkpt lat="51.314409470077" lon="4.514389583734">
        <ele>13.8</ele>
        <time>2020-08-16T10:42:50Z</time>
      </trkpt>
      <trkpt lat="51.314478453114" lon="4.514264777243">
        <ele>15</ele>
        <time>2020-08-16T10:42:56Z</time>
      </trkpt>
      <trkpt lat="51.314564032313" lon="4.514184813917">
        <ele>16.4</ele>
        <time>2020-08-16T10:43:52Z</time>
      </trkpt>
      <trkpt lat="51.314953874482" lon="4.51355005263">
        <ele>17.8</ele>
        <time>2020-08-16T10:44:11Z</time>
      </trkpt>
      <trkpt lat="51.31538570997" lon="4.512923589424">
        <ele>18.2</ele>
        <time>2020-08-16T10:44:23Z</time>
      </trkpt>
      <trkpt lat="51.31542091395" lon="4.512874890585">
        <ele>18.4</ele>
        <time>2020-08-16T10:44:24Z</time>
      </trkpt>
      <trkpt lat="51.315496183412" lon="4.512719573978">
        <ele>18.6</ele>
        <time>2020-08-16T10:44:33Z</time>
      </trkpt>
      <trkpt lat="51.31559609566" lon="4.512604239034">
        <ele>19.2</ele>
        <time>2020-08-16T10:46:15Z</time>
      </trkpt>
      <trkpt lat="51.316024326931" lon="4.512030749436">
        <ele>19.6</ele>
        <time>2020-08-16T10:46:32Z</time>
      </trkpt>
      <trkpt lat="51.316434118022" lon="4.511441250409">
        <ele>19.6</ele>
        <time>2020-08-16T10:46:46Z</time>
      </trkpt>
      <trkpt lat="51.316836113946" lon="4.510802381991">
        <ele>19</ele>
        <time>2020-08-16T10:46:59Z</time>
      </trkpt>
      <trkpt lat="51.31723475711" lon="4.51017633788">
        <ele>18.4</ele>
        <time>2020-08-16T10:47:15Z</time>
      </trkpt>
      <trkpt lat="51.317719063292" lon="4.509700665055">
        <ele>17.6</ele>
        <time>2020-08-16T10:47:29Z</time>
      </trkpt>
      <trkpt lat="51.318025757013" lon="4.509483070931">
        <ele>17.8</ele>
        <time>2020-08-16T10:47:39Z</time>
      </trkpt>
      <trkpt lat="51.318280566773" lon="4.509203702204">
        <ele>17</ele>
        <time>2020-08-16T10:47:50Z</time>
      </trkpt>
      <trkpt lat="51.318785743886" lon="4.508835150061">
        <ele>16.6</ele>
        <time>2020-08-16T10:48:03Z</time>
      </trkpt>
      <trkpt lat="51.319241216332" lon="4.508489731962">
        <ele>16.6</ele>
        <time>2020-08-16T10:48:14Z</time>
      </trkpt>
      <trkpt lat="51.319326292617" lon="4.508421838572">
        <ele>16.4</ele>
        <time>2020-08-16T10:48:16Z</time>
      </trkpt>
      <trkpt lat="51.319822082002" lon="4.508045491262">
        <ele>16.2</ele>
        <time>2020-08-16T10:48:27Z</time>
      </trkpt>
      <trkpt lat="51.320251989653" lon="4.507714322393">
        <ele>16.4</ele>
        <time>2020-08-16T10:48:37Z</time>
      </trkpt>
      <trkpt lat="51.320502524644" lon="4.507055421234">
        <ele>16.2</ele>
        <time>2020-08-16T10:48:49Z</time>
      </trkpt>
      <trkpt lat="51.320994123079" lon="4.506785691692">
        <ele>16.4</ele>
        <time>2020-08-16T10:49:04Z</time>
      </trkpt>
      <trkpt lat="51.321128317298" lon="4.506793905954">
        <ele>16.8</ele>
        <time>2020-08-16T10:49:09Z</time>
      </trkpt>
      <trkpt lat="51.321170981169" lon="4.506787116615">
        <ele>16.8</ele>
        <time>2020-08-16T10:49:20Z</time>
      </trkpt>
      <trkpt lat="51.321204005855" lon="4.506753756653">
        <ele>16</ele>
        <time>2020-08-16T10:49:23Z</time>
      </trkpt>
      <trkpt lat="51.321746985337" lon="4.506772029195">
        <ele>9.8</ele>
        <time>2020-08-16T10:49:38Z</time>
      </trkpt>
      <trkpt lat="51.322298011443" lon="4.506749984798">
        <ele>9</ele>
        <time>2020-08-16T10:49:49Z</time>
      </trkpt>
      <trkpt lat="51.322857503268" lon="4.506721821614">
        <ele>5.8</ele>
        <time>2020-08-16T10:49:59Z</time>
      </trkpt>
      <trkpt lat="51.323448846313" lon="4.506720229053">
        <ele>5</ele>
        <time>2020-08-16T10:50:09Z</time>
      </trkpt>
      <trkpt lat="51.324020324255" lon="4.50668695291">
        <ele>5.2</ele>
        <time>2020-08-16T10:50:19Z</time>
      </trkpt>
      <trkpt lat="51.32480277462" lon="4.506714780818">
        <ele>4.4</ele>
        <time>2020-08-16T10:50:34Z</time>
      </trkpt>
      <trkpt lat="51.325366708852" lon="4.506716373379">
        <ele>4.2</ele>
        <time>2020-08-16T10:50:45Z</time>
      </trkpt>
      <trkpt lat="51.325943886486" lon="4.50670539309">
        <ele>7.8</ele>
        <time>2020-08-16T10:50:57Z</time>
      </trkpt>
      <trkpt lat="51.326525338889" lon="4.506718636492">
        <ele>12</ele>
        <time>2020-08-16T10:51:08Z</time>
      </trkpt>
      <trkpt lat="51.327106456016" lon="4.506714445542">
        <ele>9.8</ele>
        <time>2020-08-16T10:51:19Z</time>
      </trkpt>
      <trkpt lat="51.32765513519" lon="4.506726850754">
        <ele>14.2</ele>
        <time>2020-08-16T10:51:29Z</time>
      </trkpt>
      <trkpt lat="51.328214543196" lon="4.506724420003">
        <ele>11.4</ele>
        <time>2020-08-16T10:51:39Z</time>
      </trkpt>
      <trkpt lat="51.328269277003" lon="4.506716205741">
        <ele>12.2</ele>
        <time>2020-08-16T10:51:40Z</time>
      </trkpt>
      <trkpt lat="51.328378660798" lon="4.506680750304">
        <ele>13.8</ele>
        <time>2020-08-16T10:51:42Z</time>
      </trkpt>
      <trkpt lat="51.328820135471" lon="4.506411020762">
        <ele>17.6</ele>
        <time>2020-08-16T10:51:50Z</time>
      </trkpt>
      <trkpt lat="51.328916192045" lon="4.506373721307">
        <ele>17.8</ele>
        <time>2020-08-16T10:51:52Z</time>
      </trkpt>
      <trkpt lat="51.329436037483" lon="4.50608094154">
        <ele>21.4</ele>
        <time>2020-08-16T10:52:02Z</time>
      </trkpt>
      <trkpt lat="51.32997021597" lon="4.505775253647">
        <ele>23</ele>
        <time>2020-08-16T10:52:12Z</time>
      </trkpt>
      <trkpt lat="51.330503388629" lon="4.505445509701">
        <ele>24.6</ele>
        <time>2020-08-16T10:52:22Z</time>
      </trkpt>
      <trkpt lat="51.331036896564" lon="4.505159351635">
        <ele>25.6</ele>
        <time>2020-08-16T10:52:32Z</time>
      </trkpt>
      <trkpt lat="51.331579959865" lon="4.504847461136">
        <ele>27.8</ele>
        <time>2020-08-16T10:52:42Z</time>
      </trkpt>
      <trkpt lat="51.332094692344" lon="4.504573456825">
        <ele>28.4</ele>
        <time>2020-08-16T10:52:51Z</time>
      </trkpt>
      <trkpt lat="51.332663907173" lon="4.504273217167">
        <ele>29.4</ele>
        <time>2020-08-16T10:53:01Z</time>
      </trkpt>
      <trkpt lat="51.333180902765" lon="4.503982365237">
        <ele>31.2</ele>
        <time>2020-08-16T10:53:10Z</time>
      </trkpt>
      <trkpt lat="51.333724888075" lon="4.503740882698">
        <ele>33.4</ele>
        <time>2020-08-16T10:53:20Z</time>
      </trkpt>
      <trkpt lat="51.334287313565" lon="4.503451120415">
        <ele>33.4</ele>
        <time>2020-08-16T10:53:30Z</time>
      </trkpt>
      <trkpt lat="51.3348040577" lon="4.503183486348">
        <ele>32</ele>
        <time>2020-08-16T10:53:39Z</time>
      </trkpt>
      <trkpt lat="51.335358185109" lon="4.50287821755">
        <ele>30.8</ele>
        <time>2020-08-16T10:53:49Z</time>
      </trkpt>
      <trkpt lat="51.335855231779" lon="4.502497176376">
        <ele>29</ele>
        <time>2020-08-16T10:53:58Z</time>
      </trkpt>
      <trkpt lat="51.336382537108" lon="4.502153937571">
        <ele>25</ele>
        <time>2020-08-16T10:54:07Z</time>
      </trkpt>
      <trkpt lat="51.336895174112" lon="4.501848333497">
        <ele>23</ele>
        <time>2020-08-16T10:54:16Z</time>
      </trkpt>
      <trkpt lat="51.337404877451" lon="4.501516913171">
        <ele>22.2</ele>
        <time>2020-08-16T10:54:25Z</time>
      </trkpt>
      <trkpt lat="51.337918687921" lon="4.501241148661">
        <ele>22.2</ele>
        <time>2020-08-16T10:54:34Z</time>
      </trkpt>
      <trkpt lat="51.338468540561" lon="4.500934035845">
        <ele>21.6</ele>
        <time>2020-08-16T10:54:44Z</time>
      </trkpt>
      <trkpt lat="51.339015208079" lon="4.500622815898">
        <ele>20.6</ele>
        <time>2020-08-16T10:54:54Z</time>
      </trkpt>
      <trkpt lat="51.339564893081" lon="4.500311512132">
        <ele>20.2</ele>
        <time>2020-08-16T10:55:04Z</time>
      </trkpt>
      <trkpt lat="51.340068226176" lon="4.499984115118">
        <ele>20.4</ele>
        <time>2020-08-16T10:55:13Z</time>
      </trkpt>
      <trkpt lat="51.340178951075" lon="4.499902475412">
        <ele>20.2</ele>
        <time>2020-08-16T10:55:15Z</time>
      </trkpt>
      <trkpt lat="51.34050710246" lon="4.499670799696">
        <ele>19.6</ele>
        <time>2020-08-16T10:55:21Z</time>
      </trkpt>
      <trkpt lat="51.340723774575" lon="4.499578850253">
        <ele>18.8</ele>
        <time>2020-08-16T10:55:25Z</time>
      </trkpt>
      <trkpt lat="51.341245799307" lon="4.49928070607">
        <ele>17.2</ele>
        <time>2020-08-16T10:55:39Z</time>
      </trkpt>
      <trkpt lat="51.341789449341" lon="4.498952303228">
        <ele>15.8</ele>
        <time>2020-08-16T10:55:50Z</time>
      </trkpt>
      <trkpt lat="51.342388168458" lon="4.498628929526">
        <ele>15.8</ele>
        <time>2020-08-16T10:56:00Z</time>
      </trkpt>
      <trkpt lat="51.342938356374" lon="4.498317122846">
        <ele>16</ele>
        <time>2020-08-16T10:56:11Z</time>
      </trkpt>
      <trkpt lat="51.343450239007" lon="4.49804102306">
        <ele>15.6</ele>
        <time>2020-08-16T10:56:21Z</time>
      </trkpt>
      <trkpt lat="51.344002606217" lon="4.497705160327">
        <ele>15.8</ele>
        <time>2020-08-16T10:56:32Z</time>
      </trkpt>
      <trkpt lat="51.344527816071" lon="4.497376422209">
        <ele>16.8</ele>
        <time>2020-08-16T10:56:42Z</time>
      </trkpt>
      <trkpt lat="51.345080434738" lon="4.497032764309">
        <ele>18.8</ele>
        <time>2020-08-16T10:56:52Z</time>
      </trkpt>
      <trkpt lat="51.345626934618" lon="4.496747276795">
        <ele>19.2</ele>
        <time>2020-08-16T10:57:02Z</time>
      </trkpt>
      <trkpt lat="51.346172512489" lon="4.496438068504">
        <ele>19.8</ele>
        <time>2020-08-16T10:57:12Z</time>
      </trkpt>
      <trkpt lat="51.346724460604" lon="4.496121651779">
        <ele>19.6</ele>
        <time>2020-08-16T10:57:22Z</time>
      </trkpt>
      <trkpt lat="51.347283198058" lon="4.495793416575">
        <ele>20.4</ele>
        <time>2020-08-16T10:57:32Z</time>
      </trkpt>
      <trkpt lat="51.347824584979" lon="4.495495272392">
        <ele>21.4</ele>
        <time>2020-08-16T10:57:42Z</time>
      </trkpt>
      <trkpt lat="51.348361361855" lon="4.49517776602">
        <ele>22.8</ele>
        <time>2020-08-16T10:57:52Z</time>
      </trkpt>
      <trkpt lat="51.348909538115" lon="4.494877274905">
        <ele>23.2</ele>
        <time>2020-08-16T10:58:02Z</time>
      </trkpt>
      <trkpt lat="51.349456876185" lon="4.494580723283">
        <ele>23</ele>
        <time>2020-08-16T10:58:12Z</time>
      </trkpt>
      <trkpt lat="51.349985187342" lon="4.494279393978">
        <ele>23.6</ele>
        <time>2020-08-16T10:58:22Z</time>
      </trkpt>
      <trkpt lat="51.350514001413" lon="4.493964569814">
        <ele>24</ele>
        <time>2020-08-16T10:58:32Z</time>
      </trkpt>
      <trkpt lat="51.351024626761" lon="4.49365309841">
        <ele>24.4</ele>
        <time>2020-08-16T10:58:42Z</time>
      </trkpt>
      <trkpt lat="51.351504909631" lon="4.493358390806">
        <ele>25.4</ele>
        <time>2020-08-16T10:58:52Z</time>
      </trkpt>
      <trkpt lat="51.351559056705" lon="4.493250683391">
        <ele>25.4</ele>
        <time>2020-08-16T10:58:54Z</time>
      </trkpt>
      <trkpt lat="51.351564002026" lon="4.493106179435">
        <ele>25.8</ele>
        <time>2020-08-16T10:58:56Z</time>
      </trkpt>
      <trkpt lat="51.351329057369" lon="4.492253153472">
        <ele>26.4</ele>
        <time>2020-08-16T10:59:06Z</time>
      </trkpt>
      <trkpt lat="51.351087155735" lon="4.4914830245">
        <ele>26.6</ele>
        <time>2020-08-16T10:59:15Z</time>
      </trkpt>
      <trkpt lat="51.351024794399" lon="4.491293928836">
        <ele>26.4</ele>
        <time>2020-08-16T10:59:18Z</time>
      </trkpt>
      <trkpt lat="51.352054594633" lon="4.489457706003">
        <ele>28.2</ele>
        <time>2020-08-16T11:00:28Z</time>
      </trkpt>
      <trkpt lat="51.352588940758" lon="4.489107929316">
        <ele>31.2</ele>
        <time>2020-08-16T11:00:41Z</time>
      </trkpt>
      <trkpt lat="51.353127561652" lon="4.488729235074">
        <ele>33.8</ele>
        <time>2020-08-16T11:00:53Z</time>
      </trkpt>
      <trkpt lat="51.353660650492" lon="4.488394461988">
        <ele>35.6</ele>
        <time>2020-08-16T11:01:04Z</time>
      </trkpt>
      <trkpt lat="51.354196170083" lon="4.488012582624">
        <ele>37.4</ele>
        <time>2020-08-16T11:01:15Z</time>
      </trkpt>
      <trkpt lat="51.354540582354" lon="4.487685688524">
        <ele>37</ele>
        <time>2020-08-16T11:01:21Z</time>
      </trkpt>
      <trkpt lat="51.354582324216" lon="4.48752257675">
        <ele>37</ele>
        <time>2020-08-16T11:01:23Z</time>
      </trkpt>
      <trkpt lat="51.354533960653" lon="4.486878595373">
        <ele>37</ele>
        <time>2020-08-16T11:01:31Z</time>
      </trkpt>
      <trkpt lat="51.354509736962" lon="4.486715064504">
        <ele>36.6</ele>
        <time>2020-08-16T11:01:33Z</time>
      </trkpt>
      <trkpt lat="51.354533206282" lon="4.486569051806">
        <ele>36.6</ele>
        <time>2020-08-16T11:01:35Z</time>
      </trkpt>
      <trkpt lat="51.354609565391" lon="4.486450950835">
        <ele>36.6</ele>
        <time>2020-08-16T11:01:37Z</time>
      </trkpt>
      <trkpt lat="51.354707298345" lon="4.48638599111">
        <ele>36.4</ele>
        <time>2020-08-16T11:01:39Z</time>
      </trkpt>
      <trkpt lat="51.354867895549" lon="4.486334358606">
        <ele>35.8</ele>
        <time>2020-08-16T11:01:42Z</time>
      </trkpt>
      <trkpt lat="51.355417999646" lon="4.485977708761">
        <ele>34.2</ele>
        <time>2020-08-16T11:01:52Z</time>
      </trkpt>
      <trkpt lat="51.355914040488" lon="4.485623154391">
        <ele>33.6</ele>
        <time>2020-08-16T11:02:01Z</time>
      </trkpt>
      <trkpt lat="51.356401950887" lon="4.485249740746">
        <ele>32.6</ele>
        <time>2020-08-16T11:02:10Z</time>
      </trkpt>
      <trkpt lat="51.356911570407" lon="4.484855372351">
        <ele>32.4</ele>
        <time>2020-08-16T11:02:21Z</time>
      </trkpt>
      <trkpt lat="51.357410796371" lon="4.484485898199">
        <ele>32.6</ele>
        <time>2020-08-16T11:02:31Z</time>
      </trkpt>
      <trkpt lat="51.357928546334" lon="4.484101336627">
        <ele>33.6</ele>
        <time>2020-08-16T11:02:42Z</time>
      </trkpt>
      <trkpt lat="51.358155695824" lon="4.483893381688">
        <ele>34.2</ele>
        <time>2020-08-16T11:02:47Z</time>
      </trkpt>
      <trkpt lat="51.358631871563" lon="4.483561458448">
        <ele>34.8</ele>
        <time>2020-08-16T11:02:57Z</time>
      </trkpt>
      <trkpt lat="51.358723150454" lon="4.483589118718">
        <ele>34.8</ele>
        <time>2020-08-16T11:02:59Z</time>
      </trkpt>
      <trkpt lat="51.358777213709" lon="4.483702358187">
        <ele>34.4</ele>
        <time>2020-08-16T11:03:01Z</time>
      </trkpt>
      <trkpt lat="51.358868408781" lon="4.484172247501">
        <ele>33</ele>
        <time>2020-08-16T11:03:07Z</time>
      </trkpt>
      <trkpt lat="51.358922220579" lon="4.484281379839">
        <ele>32.6</ele>
        <time>2020-08-16T11:03:09Z</time>
      </trkpt>
      <trkpt lat="51.358998495869" lon="4.484320942407">
        <ele>32.6</ele>
        <time>2020-08-16T11:03:11Z</time>
      </trkpt>
      <trkpt lat="51.359136210486" lon="4.484275177233">
        <ele>32.6</ele>
        <time>2020-08-16T11:03:14Z</time>
      </trkpt>
      <trkpt lat="51.359665108376" lon="4.483876701707">
        <ele>34.6</ele>
        <time>2020-08-16T11:03:25Z</time>
      </trkpt>
      <trkpt lat="51.360160478666" lon="4.483528349943">
        <ele>36</ele>
        <time>2020-08-16T11:03:35Z</time>
      </trkpt>
      <trkpt lat="51.360301294586" lon="4.483421983632">
        <ele>36.6</ele>
        <time>2020-08-16T11:03:38Z</time>
      </trkpt>
      <trkpt lat="51.360817368169" lon="4.483061645751">
        <ele>38</ele>
        <time>2020-08-16T11:03:48Z</time>
      </trkpt>
      <trkpt lat="51.361174101833" lon="4.482777499341">
        <ele>38.6</ele>
        <time>2020-08-16T11:03:55Z</time>
      </trkpt>
      <trkpt lat="51.361685146276" lon="4.482400481479">
        <ele>39</ele>
        <time>2020-08-16T11:04:05Z</time>
      </trkpt>
      <trkpt lat="51.362202477144" lon="4.482040227417">
        <ele>40</ele>
        <time>2020-08-16T11:04:14Z</time>
      </trkpt>
      <trkpt lat="51.362707235162" lon="4.481660778804">
        <ele>40.8</ele>
        <time>2020-08-16T11:04:24Z</time>
      </trkpt>
      <trkpt lat="51.363204030375" lon="4.481305218606">
        <ele>41.8</ele>
        <time>2020-08-16T11:04:34Z</time>
      </trkpt>
      <trkpt lat="51.363703423977" lon="4.480875562412">
        <ele>41.6</ele>
        <time>2020-08-16T11:04:43Z</time>
      </trkpt>
      <trkpt lat="51.364238440654" lon="4.480494605057">
        <ele>42.2</ele>
        <time>2020-08-16T11:04:53Z</time>
      </trkpt>
      <trkpt lat="51.365049138022" lon="4.479902088546">
        <ele>41.2</ele>
        <time>2020-08-16T11:05:08Z</time>
      </trkpt>
      <trkpt lat="51.365556326791" lon="4.47948433465">
        <ele>38.2</ele>
        <time>2020-08-16T11:05:17Z</time>
      </trkpt>
      <trkpt lat="51.366055385117" lon="4.479104215485">
        <ele>37.8</ele>
        <time>2020-08-16T11:05:27Z</time>
      </trkpt>
      <trkpt lat="51.366552599425" lon="4.47873583098">
        <ele>38</ele>
        <time>2020-08-16T11:05:38Z</time>
      </trkpt>
      <trkpt lat="51.367014106839" lon="4.478410780898">
        <ele>38.6</ele>
        <time>2020-08-16T11:05:48Z</time>
      </trkpt>
      <trkpt lat="51.36751442245" lon="4.478044659506">
        <ele>39.6</ele>
        <time>2020-08-16T11:05:58Z</time>
      </trkpt>
      <trkpt lat="51.368013061681" lon="4.477643837048">
        <ele>40.6</ele>
        <time>2020-08-16T11:06:07Z</time>
      </trkpt>
      <trkpt lat="51.368480687882" lon="4.477175372657">
        <ele>38.6</ele>
        <time>2020-08-16T11:06:16Z</time>
      </trkpt>
      <trkpt lat="51.368537265707" lon="4.477074454581">
        <ele>38.6</ele>
        <time>2020-08-16T11:06:18Z</time>
      </trkpt>
      <trkpt lat="51.368839265564" lon="4.476269456905">
        <ele>34.4</ele>
        <time>2020-08-16T11:06:29Z</time>
      </trkpt>
      <trkpt lat="51.369111258219" lon="4.475511900783">
        <ele>30.8</ele>
        <time>2020-08-16T11:06:38Z</time>
      </trkpt>
      <trkpt lat="51.369370007472" lon="4.47473095916">
        <ele>28.6</ele>
        <time>2020-08-16T11:06:47Z</time>
      </trkpt>
      <trkpt lat="51.369638815005" lon="4.473901570155">
        <ele>26.6</ele>
        <time>2020-08-16T11:06:57Z</time>
      </trkpt>
      <trkpt lat="51.369915082429" lon="4.4730763721">
        <ele>25.8</ele>
        <time>2020-08-16T11:07:07Z</time>
      </trkpt>
      <trkpt lat="51.370157486977" lon="4.472216892074">
        <ele>25.4</ele>
        <time>2020-08-16T11:07:17Z</time>
      </trkpt>
      <trkpt lat="51.370426713605" lon="4.47143938703">
        <ele>24.2</ele>
        <time>2020-08-16T11:07:28Z</time>
      </trkpt>
      <trkpt lat="51.370700047364" lon="4.47062382816">
        <ele>24.2</ele>
        <time>2020-08-16T11:07:39Z</time>
      </trkpt>
      <trkpt lat="51.370848155537" lon="4.470181599116">
        <ele>23.6</ele>
        <time>2020-08-16T11:07:44Z</time>
      </trkpt>
      <trkpt lat="51.370966424146" lon="4.470159554719">
        <ele>23.2</ele>
        <time>2020-08-16T11:07:48Z</time>
      </trkpt>
      <trkpt lat="51.371488700335" lon="4.470540931169">
        <ele>21.8</ele>
        <time>2020-08-16T11:07:59Z</time>
      </trkpt>
      <trkpt lat="51.371939311279" lon="4.47080320082">
        <ele>20.6</ele>
        <time>2020-08-16T11:08:09Z</time>
      </trkpt>
      <trkpt lat="51.371926235515" lon="4.470744024606">
        <ele>20.4</ele>
        <time>2020-08-16T11:08:12Z</time>
      </trkpt>
      <trkpt lat="51.371773517297" lon="4.470560880091">
        <ele>20.8</ele>
        <time>2020-08-16T11:08:18Z</time>
      </trkpt>
      <trkpt lat="51.371798160083" lon="4.470442695301">
        <ele>20.8</ele>
        <time>2020-08-16T11:08:20Z</time>
      </trkpt>
      <trkpt lat="51.372030003437" lon="4.469632584666">
        <ele>21</ele>
        <time>2020-08-16T11:08:31Z</time>
      </trkpt>
      <trkpt lat="51.372246591733" lon="4.46883848346">
        <ele>20.8</ele>
        <time>2020-08-16T11:08:41Z</time>
      </trkpt>
      <trkpt lat="51.372299230065" lon="4.468608735581">
        <ele>20.8</ele>
        <time>2020-08-16T11:08:44Z</time>
      </trkpt>
      <trkpt lat="51.372564349562" lon="4.467831733451">
        <ele>21.6</ele>
        <time>2020-08-16T11:08:55Z</time>
      </trkpt>
      <trkpt lat="51.372832067448" lon="4.46701039107">
        <ele>22.8</ele>
        <time>2020-08-16T11:09:06Z</time>
      </trkpt>
      <trkpt lat="51.373064581354" lon="4.46617890659">
        <ele>24</ele>
        <time>2020-08-16T11:09:16Z</time>
      </trkpt>
      <trkpt lat="51.373206989835" lon="4.465627880484">
        <ele>24.4</ele>
        <time>2020-08-16T11:09:23Z</time>
      </trkpt>
      <trkpt lat="51.373271446646" lon="4.465514138101">
        <ele>24.8</ele>
        <time>2020-08-16T11:09:25Z</time>
      </trkpt>
      <trkpt lat="51.373355181827" lon="4.465481951605">
        <ele>25</ele>
        <time>2020-08-16T11:09:27Z</time>
      </trkpt>
      <trkpt lat="51.373437408266" lon="4.465502235803">
        <ele>25</ele>
        <time>2020-08-16T11:09:29Z</time>
      </trkpt>
      <trkpt lat="51.373974688056" lon="4.465769786051">
        <ele>24.2</ele>
        <time>2020-08-16T11:09:40Z</time>
      </trkpt>
      <trkpt lat="51.374504256498" lon="4.466041359611">
        <ele>21.8</ele>
        <time>2020-08-16T11:09:49Z</time>
      </trkpt>
      <trkpt lat="51.374624117668" lon="4.466096428694">
        <ele>20.2</ele>
        <time>2020-08-16T11:09:53Z</time>
      </trkpt>
      <trkpt lat="51.374640965287" lon="4.466033145349">
        <ele>20</ele>
        <time>2020-08-16T11:09:55Z</time>
      </trkpt>
      <trkpt lat="51.374691675782" lon="4.465846312798">
        <ele>20</ele>
        <time>2020-08-16T11:10:00Z</time>
      </trkpt>
      <trkpt lat="51.374753534204" lon="4.46583021955">
        <ele>20</ele>
        <time>2020-08-16T11:10:02Z</time>
      </trkpt>
      <trkpt lat="51.374905414232" lon="4.465922168993">
        <ele>19.4</ele>
        <time>2020-08-16T11:10:06Z</time>
      </trkpt>
      <trkpt lat="51.375457529985" lon="4.466267503273">
        <ele>17.4</ele>
        <time>2020-08-16T11:10:17Z</time>
      </trkpt>
      <trkpt lat="51.376018027638" lon="4.466527845087">
        <ele>16</ele>
        <time>2020-08-16T11:10:27Z</time>
      </trkpt>
      <trkpt lat="51.37658112368" lon="4.466750384532">
        <ele>14.4</ele>
        <time>2020-08-16T11:10:37Z</time>
      </trkpt>
      <trkpt lat="51.377110356846" lon="4.466922129663">
        <ele>10</ele>
        <time>2020-08-16T11:10:47Z</time>
      </trkpt>
      <trkpt lat="51.377667920834" lon="4.467066885076">
        <ele>10</ele>
        <time>2020-08-16T11:10:57Z</time>
      </trkpt>
      <trkpt lat="51.378220790958" lon="4.467174089577">
        <ele>10.4</ele>
        <time>2020-08-16T11:11:07Z</time>
      </trkpt>
      <trkpt lat="51.378336461178" lon="4.467185069866">
        <ele>10</ele>
        <time>2020-08-16T11:11:09Z</time>
      </trkpt>
      <trkpt lat="51.378576770251" lon="4.46717886726">
        <ele>12</ele>
        <time>2020-08-16T11:11:13Z</time>
      </trkpt>
      <trkpt lat="51.378940796168" lon="4.467223375149">
        <ele>13.4</ele>
        <time>2020-08-16T11:11:20Z</time>
      </trkpt>
      <trkpt lat="51.379530965747" lon="4.467244581356">
        <ele>14.6</ele>
        <time>2020-08-16T11:11:30Z</time>
      </trkpt>
      <trkpt lat="51.380128427579" lon="4.467203258589">
        <ele>14.6</ele>
        <time>2020-08-16T11:11:39Z</time>
      </trkpt>
      <trkpt lat="51.380680124237" lon="4.467165707677">
        <ele>15</ele>
        <time>2020-08-16T11:11:47Z</time>
      </trkpt>
      <trkpt lat="51.381254452025" lon="4.467119942503">
        <ele>15.2</ele>
        <time>2020-08-16T11:11:55Z</time>
      </trkpt>
      <trkpt lat="51.381816709877" lon="4.467085157618">
        <ele>15.8</ele>
        <time>2020-08-16T11:12:02Z</time>
      </trkpt>
      <trkpt lat="51.382360695187" lon="4.467061688298">
        <ele>15.4</ele>
        <time>2020-08-16T11:12:11Z</time>
      </trkpt>
      <trkpt lat="51.382902668841" lon="4.467022293368">
        <ele>14.4</ele>
        <time>2020-08-16T11:12:19Z</time>
      </trkpt>
      <trkpt lat="51.383506165641" lon="4.466983988085">
        <ele>14</ele>
        <time>2020-08-16T11:12:28Z</time>
      </trkpt>
      <trkpt lat="51.384085271112" lon="4.466944676974">
        <ele>13.2</ele>
        <time>2020-08-16T11:12:37Z</time>
      </trkpt>
      <trkpt lat="51.384657251968" lon="4.466916597609">
        <ele>12.2</ele>
        <time>2020-08-16T11:12:47Z</time>
      </trkpt>
      <trkpt lat="51.385233507593" lon="4.466897067782">
        <ele>12.6</ele>
        <time>2020-08-16T11:12:57Z</time>
      </trkpt>
      <trkpt lat="51.385833735452" lon="4.466850799694">
        <ele>13.6</ele>
        <time>2020-08-16T11:13:07Z</time>
      </trkpt>
      <trkpt lat="51.386425329954" lon="4.46683772393">
        <ele>14</ele>
        <time>2020-08-16T11:13:17Z</time>
      </trkpt>
      <trkpt lat="51.386966213961" lon="4.466798915733">
        <ele>13</ele>
        <time>2020-08-16T11:13:26Z</time>
      </trkpt>
      <trkpt lat="51.387512546203" lon="4.466755078396">
        <ele>13</ele>
        <time>2020-08-16T11:13:35Z</time>
      </trkpt>
      <trkpt lat="51.388063069395" lon="4.466724735918">
        <ele>13</ele>
        <time>2020-08-16T11:13:44Z</time>
      </trkpt>
      <trkpt lat="51.388609904551" lon="4.466687185006">
        <ele>13</ele>
        <time>2020-08-16T11:13:53Z</time>
      </trkpt>
      <trkpt lat="51.389174593154" lon="4.46666338041">
        <ele>13.6</ele>
        <time>2020-08-16T11:14:03Z</time>
      </trkpt>
      <trkpt lat="51.389724194337" lon="4.466620297444">
        <ele>14</ele>
        <time>2020-08-16T11:14:12Z</time>
      </trkpt>
      <trkpt lat="51.390313693364" lon="4.466555756814">
        <ele>16.4</ele>
        <time>2020-08-16T11:14:22Z</time>
      </trkpt>
      <trkpt lat="51.390903862943" lon="4.466545949991">
        <ele>17.2</ele>
        <time>2020-08-16T11:14:32Z</time>
      </trkpt>
      <trkpt lat="51.391240982961" lon="4.466551817321">
        <ele>18.6</ele>
        <time>2020-08-16T11:14:38Z</time>
      </trkpt>
      <trkpt lat="51.391326981255" lon="4.466519044092">
        <ele>19.2</ele>
        <time>2020-08-16T11:14:40Z</time>
      </trkpt>
      <trkpt lat="51.391457152162" lon="4.4665384901">
        <ele>18.8</ele>
        <time>2020-08-16T11:14:43Z</time>
      </trkpt>
      <trkpt lat="51.392017817453" lon="4.466503453758">
        <ele>19</ele>
        <time>2020-08-16T11:14:54Z</time>
      </trkpt>
      <trkpt lat="51.392568089188" lon="4.466454922557">
        <ele>16.2</ele>
        <time>2020-08-16T11:15:03Z</time>
      </trkpt>
      <trkpt lat="51.393154151636" lon="4.466416198179">
        <ele>13</ele>
        <time>2020-08-16T11:15:13Z</time>
      </trkpt>
      <trkpt lat="51.393703249905" lon="4.466398763827">
        <ele>13.4</ele>
        <time>2020-08-16T11:15:22Z</time>
      </trkpt>
      <trkpt lat="51.394260143341" lon="4.466354004481">
        <ele>15</ele>
        <time>2020-08-16T11:15:31Z</time>
      </trkpt>
      <trkpt lat="51.394800189158" lon="4.466322069442">
        <ele>13.8</ele>
        <time>2020-08-16T11:15:40Z</time>
      </trkpt>
      <trkpt lat="51.395378707896" lon="4.466294073896">
        <ele>14.2</ele>
        <time>2020-08-16T11:15:49Z</time>
      </trkpt>
      <trkpt lat="51.395921855016" lon="4.466255517156">
        <ele>13.6</ele>
        <time>2020-08-16T11:15:58Z</time>
      </trkpt>
      <trkpt lat="51.396508168921" lon="4.466190976526">
        <ele>16</ele>
        <time>2020-08-16T11:16:08Z</time>
      </trkpt>
      <trkpt lat="51.397056261362" lon="4.466158454754">
        <ele>16.4</ele>
        <time>2020-08-16T11:16:17Z</time>
      </trkpt>
      <trkpt lat="51.397616256101" lon="4.46614705537">
        <ele>14.8</ele>
        <time>2020-08-16T11:16:26Z</time>
      </trkpt>
      <trkpt lat="51.398163426533" lon="4.466116377616">
        <ele>15.4</ele>
        <time>2020-08-16T11:16:35Z</time>
      </trkpt>
      <trkpt lat="51.398224195308" lon="4.46610598406">
        <ele>15.6</ele>
        <time>2020-08-16T11:16:36Z</time>
      </trkpt>
      <trkpt lat="51.398403232692" lon="4.466014034617">
        <ele>17</ele>
        <time>2020-08-16T11:16:39Z</time>
      </trkpt>
      <trkpt lat="51.398886365408" lon="4.465558310714">
        <ele>16.8</ele>
        <time>2020-08-16T11:16:48Z</time>
      </trkpt>
      <trkpt lat="51.399367654106" lon="4.465094875463">
        <ele>16.4</ele>
        <time>2020-08-16T11:16:57Z</time>
      </trkpt>
      <trkpt lat="51.399865287509" lon="4.464603863761">
        <ele>17.8</ele>
        <time>2020-08-16T11:17:07Z</time>
      </trkpt>
      <trkpt lat="51.400100232166" lon="4.464406302378">
        <ele>18</ele>
        <time>2020-08-16T11:17:12Z</time>
      </trkpt>
      <trkpt lat="51.40020467064" lon="4.464522391693">
        <ele>18.2</ele>
        <time>2020-08-16T11:17:15Z</time>
      </trkpt>
      <trkpt lat="51.400186481917" lon="4.464647030546">
        <ele>18.4</ele>
        <time>2020-08-16T11:17:17Z</time>
      </trkpt>
      <trkpt lat="51.400163850787" lon="4.464954394819">
        <ele>18.2</ele>
        <time>2020-08-16T11:17:20Z</time>
      </trkpt>
      <trkpt lat="51.400106686229" lon="4.465860813485">
        <ele>17.8</ele>
        <time>2020-08-16T11:17:32Z</time>
      </trkpt>
      <trkpt lat="51.400120767821" lon="4.466280998132">
        <ele>17.4</ele>
        <time>2020-08-16T11:17:40Z</time>
      </trkpt>
      <trkpt lat="51.400147170806" lon="4.466284183254">
        <ele>17.2</ele>
        <time>2020-08-16T11:17:42Z</time>
      </trkpt>
      <trkpt lat="51.400738681489" lon="4.466235819691">
        <ele>16.4</ele>
        <time>2020-08-16T11:17:54Z</time>
      </trkpt>
      <trkpt lat="51.401286941568" lon="4.466215619312">
        <ele>14.6</ele>
        <time>2020-08-16T11:18:03Z</time>
      </trkpt>
      <trkpt lat="51.401845762841" lon="4.466178487495">
        <ele>14.2</ele>
        <time>2020-08-16T11:18:12Z</time>
      </trkpt>
      <trkpt lat="51.402628045568" lon="4.466133895787">
        <ele>13.2</ele>
        <time>2020-08-16T11:18:25Z</time>
      </trkpt>
      <trkpt lat="51.403213688921" lon="4.466092908296">
        <ele>13.2</ele>
        <time>2020-08-16T11:18:36Z</time>
      </trkpt>
      <trkpt lat="51.403754656747" lon="4.466060805619">
        <ele>12</ele>
        <time>2020-08-16T11:18:46Z</time>
      </trkpt>
      <trkpt lat="51.404301491903" lon="4.466025014906">
        <ele>10.6</ele>
        <time>2020-08-16T11:18:56Z</time>
      </trkpt>
      <trkpt lat="51.404848746154" lon="4.465988805098">
        <ele>11.4</ele>
        <time>2020-08-16T11:19:06Z</time>
      </trkpt>
      <trkpt lat="51.405060221491" lon="4.465984614148">
        <ele>11.6</ele>
        <time>2020-08-16T11:19:10Z</time>
      </trkpt>
      <trkpt lat="51.405137586428" lon="4.466182007893">
        <ele>12</ele>
        <time>2020-08-16T11:19:13Z</time>
      </trkpt>
      <trkpt lat="51.40527236738" lon="4.466849290952">
        <ele>11.8</ele>
        <time>2020-08-16T11:19:23Z</time>
      </trkpt>
      <trkpt lat="51.405785423479" lon="4.466591128432">
        <ele>13</ele>
        <time>2020-08-16T11:19:38Z</time>
      </trkpt>
      <trkpt lat="51.406313231722" lon="4.466276555725">
        <ele>13.6</ele>
        <time>2020-08-16T11:19:50Z</time>
      </trkpt>
      <trkpt lat="51.406615483036" lon="4.466088884984">
        <ele>13.4</ele>
        <time>2020-08-16T11:19:57Z</time>
      </trkpt>
      <trkpt lat="51.406731991446" lon="4.466143618791">
        <ele>13.6</ele>
        <time>2020-08-16T11:20:00Z</time>
      </trkpt>
      <trkpt lat="51.406804494881" lon="4.466241854659">
        <ele>13.6</ele>
        <time>2020-08-16T11:20:02Z</time>
      </trkpt>
      <trkpt lat="51.406952435416" lon="4.466475793488">
        <ele>13.4</ele>
        <time>2020-08-16T11:20:07Z</time>
      </trkpt>
      <trkpt lat="51.407042708479" lon="4.466443690811">
        <ele>14</ele>
        <time>2020-08-16T11:20:09Z</time>
      </trkpt>
      <trkpt lat="51.407528355765" lon="4.466143451153">
        <ele>14.8</ele>
        <time>2020-08-16T11:20:20Z</time>
      </trkpt>
      <trkpt lat="51.407599769553" lon="4.466035157005">
        <ele>14.8</ele>
        <time>2020-08-16T11:20:22Z</time>
      </trkpt>
      <trkpt lat="51.407733879953" lon="4.465930215617">
        <ele>15</ele>
        <time>2020-08-16T11:20:25Z</time>
      </trkpt>
      <trkpt lat="51.407870169647" lon="4.465806079678">
        <ele>15.2</ele>
        <time>2020-08-16T11:20:28Z</time>
      </trkpt>
      <trkpt lat="51.407983325297" lon="4.46578244272">
        <ele>15</ele>
        <time>2020-08-16T11:20:30Z</time>
      </trkpt>
      <trkpt lat="51.408251378459" lon="4.465790573163">
        <ele>13.8</ele>
        <time>2020-08-16T11:20:37Z</time>
      </trkpt>
      <trkpt lat="51.408291863036" lon="4.46578495729">
        <ele>13.8</ele>
        <time>2020-08-16T11:23:36Z</time>
      </trkpt>
      <trkpt lat="51.408877841665" lon="4.465754111898">
        <ele>12.2</ele>
        <time>2020-08-16T11:23:51Z</time>
      </trkpt>
      <trkpt lat="51.409446637399" lon="4.465717315357">
        <ele>10</ele>
        <time>2020-08-16T11:24:01Z</time>
      </trkpt>
      <trkpt lat="51.409498353722" lon="4.465730139664">
        <ele>9.8</ele>
        <time>2020-08-16T11:24:02Z</time>
      </trkpt>
      <trkpt lat="51.40964771918" lon="4.465789232059">
        <ele>8.8</ele>
        <time>2020-08-16T11:24:05Z</time>
      </trkpt>
      <trkpt lat="51.410196482173" lon="4.465758219029">
        <ele>8</ele>
        <time>2020-08-16T11:24:14Z</time>
      </trkpt>
      <trkpt lat="51.410613649336" lon="4.465742125781">
        <ele>7.6</ele>
        <time>2020-08-16T11:24:20Z</time>
      </trkpt>
      <trkpt lat="51.41118244507" lon="4.46570616743">
        <ele>8.4</ele>
        <time>2020-08-16T11:24:28Z</time>
      </trkpt>
      <trkpt lat="51.411732046253" lon="4.465655289297">
        <ele>9.4</ele>
        <time>2020-08-16T11:24:36Z</time>
      </trkpt>
      <trkpt lat="51.412308385697" lon="4.465634669823">
        <ele>9.2</ele>
        <time>2020-08-16T11:24:45Z</time>
      </trkpt>
      <trkpt lat="51.412867961341" lon="4.46559468816">
        <ele>8.6</ele>
        <time>2020-08-16T11:24:54Z</time>
      </trkpt>
      <trkpt lat="51.413431811754" lon="4.465568788089">
        <ele>10.2</ele>
        <time>2020-08-16T11:25:03Z</time>
      </trkpt>
      <trkpt lat="51.414024160627" lon="4.465539116163">
        <ele>9</ele>
        <time>2020-08-16T11:25:12Z</time>
      </trkpt>
      <trkpt lat="51.414596560578" lon="4.465505420925">
        <ele>8.4</ele>
        <time>2020-08-16T11:25:21Z</time>
      </trkpt>
      <trkpt lat="51.414937787727" lon="4.465363180082">
        <ele>7.4</ele>
        <time>2020-08-16T11:25:29Z</time>
      </trkpt>
      <trkpt lat="51.41502219346" lon="4.465354295268">
        <ele>7</ele>
        <time>2020-08-16T11:25:31Z</time>
      </trkpt>
      <trkpt lat="51.415577661973" lon="4.465351445422">
        <ele>7.4</ele>
        <time>2020-08-16T11:25:42Z</time>
      </trkpt>
      <trkpt lat="51.416121395826" lon="4.46534490754">
        <ele>7.2</ele>
        <time>2020-08-16T11:25:51Z</time>
      </trkpt>
      <trkpt lat="51.416663537118" lon="4.46531640908">
        <ele>8.6</ele>
        <time>2020-08-16T11:26:01Z</time>
      </trkpt>
      <trkpt lat="51.416824721055" lon="4.465314984157">
        <ele>8.4</ele>
        <time>2020-08-16T11:26:04Z</time>
      </trkpt>
      <trkpt lat="51.416982552232" lon="4.465338369658">
        <ele>8</ele>
        <time>2020-08-16T11:26:07Z</time>
      </trkpt>
      <trkpt lat="51.417544642446" lon="4.465333591975">
        <ele>9</ele>
        <time>2020-08-16T11:26:16Z</time>
      </trkpt>
      <trkpt lat="51.418119808424" lon="4.465286820973">
        <ele>9</ele>
        <time>2020-08-16T11:26:25Z</time>
      </trkpt>
      <trkpt lat="51.418685586674" lon="4.465242732179">
        <ele>8.6</ele>
        <time>2020-08-16T11:26:34Z</time>
      </trkpt>
      <trkpt lat="51.419245665232" lon="4.465204426896">
        <ele>8</ele>
        <time>2020-08-16T11:26:43Z</time>
      </trkpt>
      <trkpt lat="51.419594436091" lon="4.465166624527">
        <ele>8</ele>
        <time>2020-08-16T11:26:49Z</time>
      </trkpt>
      <trkpt lat="51.42013682884" lon="4.465143239026">
        <ele>9.2</ele>
        <time>2020-08-16T11:26:59Z</time>
      </trkpt>
      <trkpt lat="51.420677796666" lon="4.465098982594">
        <ele>10.4</ele>
        <time>2020-08-16T11:27:09Z</time>
      </trkpt>
      <trkpt lat="51.421226894935" lon="4.465077860206">
        <ele>10.4</ele>
        <time>2020-08-16T11:27:19Z</time>
      </trkpt>
      <trkpt lat="51.421795271574" lon="4.465040057837">
        <ele>10.8</ele>
        <time>2020-08-16T11:27:29Z</time>
      </trkpt>
      <trkpt lat="51.422023845987" lon="4.465042572407">
        <ele>10.8</ele>
        <time>2020-08-16T11:27:33Z</time>
      </trkpt>
      <trkpt lat="51.422604711657" lon="4.465080626233">
        <ele>11</ele>
        <time>2020-08-16T11:27:44Z</time>
      </trkpt>
      <trkpt lat="51.422945100616" lon="4.465803648927">
        <ele>10.4</ele>
        <time>2020-08-16T11:27:55Z</time>
      </trkpt>
      <trkpt lat="51.423070326202" lon="4.466113443951">
        <ele>10.4</ele>
        <time>2020-08-16T11:27:59Z</time>
      </trkpt>
      <trkpt lat="51.423166215138" lon="4.466320979795">
        <ele>10</ele>
        <time>2020-08-16T11:28:02Z</time>
      </trkpt>
      <trkpt lat="51.423256320563" lon="4.466353082472">
        <ele>10</ele>
        <time>2020-08-16T11:28:04Z</time>
      </trkpt>
      <trkpt lat="51.423734005044" lon="4.465889814859">
        <ele>10.2</ele>
        <time>2020-08-16T11:28:14Z</time>
      </trkpt>
      <trkpt lat="51.423872725489" lon="4.465754698631">
        <ele>11.2</ele>
        <time>2020-08-16T11:28:17Z</time>
      </trkpt>
      <trkpt lat="51.424434899522" lon="4.465619163308">
        <ele>11.8</ele>
        <time>2020-08-16T11:28:27Z</time>
      </trkpt>
      <trkpt lat="51.424852150504" lon="4.465531907729">
        <ele>12.4</ele>
        <time>2020-08-16T11:28:34Z</time>
      </trkpt>
      <trkpt lat="51.425422371161" lon="4.465413136206">
        <ele>11.4</ele>
        <time>2020-08-16T11:28:44Z</time>
      </trkpt>
      <trkpt lat="51.425955208544" lon="4.465241977808">
        <ele>11.8</ele>
        <time>2020-08-16T11:28:54Z</time>
      </trkpt>
      <trkpt lat="51.426507827211" lon="4.465098982594">
        <ele>12.4</ele>
        <time>2020-08-16T11:29:04Z</time>
      </trkpt>
      <trkpt lat="51.426836900605" lon="4.465032178851">
        <ele>11</ele>
        <time>2020-08-16T11:29:10Z</time>
      </trkpt>
      <trkpt lat="51.42692616784" lon="4.464992113369">
        <ele>11.2</ele>
        <time>2020-08-16T11:29:12Z</time>
      </trkpt>
      <trkpt lat="51.427014848342" lon="4.464877029882">
        <ele>11.4</ele>
        <time>2020-08-16T11:29:16Z</time>
      </trkpt>
      <trkpt lat="51.427076371488" lon="4.464053340569">
        <ele>11</ele>
        <time>2020-08-16T11:29:30Z</time>
      </trkpt>
      <trkpt lat="51.427164465257" lon="4.464039510434">
        <ele>11</ele>
        <time>2020-08-16T11:29:31Z</time>
      </trkpt>
      <trkpt lat="51.427381724105" lon="4.463935155779">
        <ele>11.4</ele>
        <time>2020-08-16T11:29:38Z</time>
      </trkpt>
      <trkpt lat="51.4275916907" lon="4.463753603825">
        <ele>12</ele>
        <time>2020-08-16T11:29:47Z</time>
      </trkpt>
      <trkpt lat="51.42787080797" lon="4.463706581366">
        <ele>12.4</ele>
        <time>2020-08-16T11:29:53Z</time>
      </trkpt>
      <trkpt lat="51.428058730168" lon="4.463476330573">
        <ele>13.2</ele>
        <time>2020-08-16T11:30:01Z</time>
      </trkpt>
      <trkpt lat="51.428597015786" lon="4.463240631545">
        <ele>14.4</ele>
        <time>2020-08-16T11:30:21Z</time>
      </trkpt>
      <trkpt lat="51.429182156225" lon="4.463054385727">
        <ele>15.6</ele>
        <time>2020-08-16T11:30:32Z</time>
      </trkpt>
      <trkpt lat="51.429747934475" lon="4.462872163221">
        <ele>13</ele>
        <time>2020-08-16T11:30:41Z</time>
      </trkpt>
      <trkpt lat="51.430300050228" lon="4.462689018706">
        <ele>12</ele>
        <time>2020-08-16T11:30:49Z</time>
      </trkpt>
      <trkpt lat="51.430853507085" lon="4.462487769287">
        <ele>11.8</ele>
        <time>2020-08-16T11:30:57Z</time>
      </trkpt>
      <trkpt lat="51.431418363326" lon="4.462287777153">
        <ele>12</ele>
        <time>2020-08-16T11:31:06Z</time>
      </trkpt>
      <trkpt lat="51.431951452166" lon="4.462123994827">
        <ele>12.4</ele>
        <time>2020-08-16T11:31:15Z</time>
      </trkpt>
      <trkpt lat="51.432509016154" lon="4.46193263605">
        <ele>13.2</ele>
        <time>2020-08-16T11:31:25Z</time>
      </trkpt>
      <trkpt lat="51.433069513807" lon="4.461740355264">
        <ele>17</ele>
        <time>2020-08-16T11:31:35Z</time>
      </trkpt>
      <trkpt lat="51.433632190754" lon="4.461928026005">
        <ele>17</ele>
        <time>2020-08-16T11:31:46Z</time>
      </trkpt>
      <trkpt lat="51.433855736027" lon="4.462025256045">
        <ele>14.8</ele>
        <time>2020-08-16T11:31:51Z</time>
      </trkpt>
      <trkpt lat="51.434416066042" lon="4.462228349482">
        <ele>12</ele>
        <time>2020-08-16T11:32:01Z</time>
      </trkpt>
      <trkpt lat="51.43495351347" lon="4.462350222308">
        <ele>11</ele>
        <time>2020-08-16T11:32:10Z</time>
      </trkpt>
      <trkpt lat="51.43530052413" lon="4.4624145953">
        <ele>10</ele>
        <time>2020-08-16T11:32:16Z</time>
      </trkpt>
      <trkpt lat="51.43553270276" lon="4.462334883431">
        <ele>11</ele>
        <time>2020-08-16T11:32:20Z</time>
      </trkpt>
      <trkpt lat="51.435645439315" lon="4.462337146544">
        <ele>10.6</ele>
        <time>2020-08-16T11:32:22Z</time>
      </trkpt>
      <trkpt lat="51.436170732988" lon="4.462483997432">
        <ele>9.8</ele>
        <time>2020-08-16T11:32:36Z</time>
      </trkpt>
      <trkpt lat="51.436311800365" lon="4.462370757963">
        <ele>10.6</ele>
        <time>2020-08-16T11:33:00Z</time>
      </trkpt>
      <trkpt lat="51.436851427087" lon="4.462501934698">
        <ele>11.6</ele>
        <time>2020-08-16T11:33:13Z</time>
      </trkpt>
      <trkpt lat="51.437205646181" lon="4.462610983217">
        <ele>13.4</ele>
        <time>2020-08-16T11:33:20Z</time>
      </trkpt>
      <trkpt lat="51.437702609032" lon="4.462727407808">
        <ele>14.4</ele>
        <time>2020-08-16T11:33:30Z</time>
      </trkpt>
      <trkpt lat="51.438253635138" lon="4.462852298118">
        <ele>14.2</ele>
        <time>2020-08-16T11:33:40Z</time>
      </trkpt>
      <trkpt lat="51.438846403106" lon="4.463012979141">
        <ele>12</ele>
        <time>2020-08-16T11:33:49Z</time>
      </trkpt>
      <trkpt lat="51.439415953211" lon="4.46318489191">
        <ele>13.4</ele>
        <time>2020-08-16T11:33:58Z</time>
      </trkpt>
      <trkpt lat="51.440001428926" lon="4.463365689493">
        <ele>14.6</ele>
        <time>2020-08-16T11:34:08Z</time>
      </trkpt>
      <trkpt lat="51.440579277112" lon="4.463534836235">
        <ele>12.8</ele>
        <time>2020-08-16T11:34:17Z</time>
      </trkpt>
      <trkpt lat="51.440689499097" lon="4.46358973768">
        <ele>12</ele>
        <time>2020-08-16T11:34:19Z</time>
      </trkpt>
      <trkpt lat="51.440957384621" lon="4.463827448364">
        <ele>9.8</ele>
        <time>2020-08-16T11:34:25Z</time>
      </trkpt>
      <trkpt lat="51.441103564957" lon="4.464036744407">
        <ele>9.2</ele>
        <time>2020-08-16T11:34:29Z</time>
      </trkpt>
      <trkpt lat="51.441226778887" lon="4.464174039929">
        <ele>9.2</ele>
        <time>2020-08-16T11:34:33Z</time>
      </trkpt>
      <trkpt lat="51.441351836835" lon="4.464010173784">
        <ele>9.2</ele>
        <time>2020-08-16T11:34:37Z</time>
      </trkpt>
      <trkpt lat="51.441488629443" lon="4.464007407757">
        <ele>8.4</ele>
        <time>2020-08-16T11:34:40Z</time>
      </trkpt>
      <trkpt lat="51.442037392436" lon="4.464076893708">
        <ele>7</ele>
        <time>2020-08-16T11:34:51Z</time>
      </trkpt>
      <trkpt lat="51.44260786455" lon="4.463969856845">
        <ele>8.8</ele>
        <time>2020-08-16T11:35:01Z</time>
      </trkpt>
      <trkpt lat="51.443197782672" lon="4.464012772173">
        <ele>11.2</ele>
        <time>2020-08-16T11:35:11Z</time>
      </trkpt>
      <trkpt lat="51.443786611147" lon="4.464175297214">
        <ele>10.6</ele>
        <time>2020-08-16T11:35:21Z</time>
      </trkpt>
      <trkpt lat="51.444326070231" lon="4.464273952177">
        <ele>9.2</ele>
        <time>2020-08-16T11:35:30Z</time>
      </trkpt>
      <trkpt lat="51.444894363051" lon="4.464379480298">
        <ele>9.2</ele>
        <time>2020-08-16T11:35:39Z</time>
      </trkpt>
      <trkpt lat="51.445581595032" lon="4.464578382785">
        <ele>8.4</ele>
        <time>2020-08-16T11:35:50Z</time>
      </trkpt>
      <trkpt lat="51.446115941157" lon="4.46481433327">
        <ele>8.2</ele>
        <time>2020-08-16T11:35:59Z</time>
      </trkpt>
      <trkpt lat="51.446656489888" lon="4.465049780841">
        <ele>6.6</ele>
        <time>2020-08-16T11:36:09Z</time>
      </trkpt>
      <trkpt lat="51.447190500737" lon="4.465291095742">
        <ele>6</ele>
        <time>2020-08-16T11:36:18Z</time>
      </trkpt>
      <trkpt lat="51.44772082355" lon="4.465511874988">
        <ele>5.4</ele>
        <time>2020-08-16T11:36:27Z</time>
      </trkpt>
      <trkpt lat="51.448292636768" lon="4.46575813521">
        <ele>5</ele>
        <time>2020-08-16T11:36:37Z</time>
      </trkpt>
      <trkpt lat="51.448844249607" lon="4.466003305785">
        <ele>4.8</ele>
        <time>2020-08-16T11:36:47Z</time>
      </trkpt>
      <trkpt lat="51.449408183839" lon="4.466159963496">
        <ele>4.8</ele>
        <time>2020-08-16T11:36:57Z</time>
      </trkpt>
      <trkpt lat="51.449946888552" lon="4.466326595668">
        <ele>6.6</ele>
        <time>2020-08-16T11:37:07Z</time>
      </trkpt>
      <trkpt lat="51.450505793644" lon="4.466494988039">
        <ele>9.6</ele>
        <time>2020-08-16T11:37:17Z</time>
      </trkpt>
      <trkpt lat="51.451067380944" lon="4.466662961315">
        <ele>11.6</ele>
        <time>2020-08-16T11:37:27Z</time>
      </trkpt>
      <trkpt lat="51.45163349447" lon="4.466821965958">
        <ele>10.2</ele>
        <time>2020-08-16T11:37:37Z</time>
      </trkpt>
      <trkpt lat="51.452186448413" lon="4.466795395335">
        <ele>7.8</ele>
        <time>2020-08-16T11:37:48Z</time>
      </trkpt>
      <trkpt lat="51.452239086745" lon="4.466770584911">
        <ele>8</ele>
        <time>2020-08-16T11:37:49Z</time>
      </trkpt>
      <trkpt lat="51.452674107355" lon="4.466234981501">
        <ele>9</ele>
        <time>2020-08-16T11:37:59Z</time>
      </trkpt>
      <trkpt lat="51.453082808799" lon="4.465570799745">
        <ele>10.6</ele>
        <time>2020-08-16T11:38:09Z</time>
      </trkpt>
      <trkpt lat="51.453512884088" lon="4.465043242959">
        <ele>10.4</ele>
        <time>2020-08-16T11:38:19Z</time>
      </trkpt>
      <trkpt lat="51.453646323936" lon="4.464934445897">
        <ele>10.6</ele>
        <time>2020-08-16T11:38:22Z</time>
      </trkpt>
      <trkpt lat="51.454202043906" lon="4.464767729906">
        <ele>10.4</ele>
        <time>2020-08-16T11:38:32Z</time>
      </trkpt>
      <trkpt lat="51.454744604293" lon="4.464877113701">
        <ele>10</ele>
        <time>2020-08-16T11:38:41Z</time>
      </trkpt>
      <trkpt lat="51.455303257928" lon="4.464906869446">
        <ele>8.4</ele>
        <time>2020-08-16T11:38:50Z</time>
      </trkpt>
      <trkpt lat="51.455850763636" lon="4.464738979989">
        <ele>6.4</ele>
        <time>2020-08-16T11:38:59Z</time>
      </trkpt>
      <trkpt lat="51.456407992348" lon="4.464528929575">
        <ele>6.4</ele>
        <time>2020-08-16T11:39:08Z</time>
      </trkpt>
      <trkpt lat="51.456962538852" lon="4.464411582975">
        <ele>5.8</ele>
        <time>2020-08-16T11:39:17Z</time>
      </trkpt>
      <trkpt lat="51.457517672089" lon="4.464319046799">
        <ele>5.8</ele>
        <time>2020-08-16T11:39:26Z</time>
      </trkpt>
      <trkpt lat="51.458075403715" lon="4.464237742369">
        <ele>4.8</ele>
        <time>2020-08-16T11:39:35Z</time>
      </trkpt>
      <trkpt lat="51.458556860051" lon="4.464143948908">
        <ele>5.8</ele>
        <time>2020-08-16T11:39:43Z</time>
      </trkpt>
      <trkpt lat="51.458713769219" lon="4.464027189041">
        <ele>7.4</ele>
        <time>2020-08-16T11:39:46Z</time>
      </trkpt>
      <trkpt lat="51.459227831146" lon="4.463658888355">
        <ele>9.2</ele>
        <time>2020-08-16T11:39:55Z</time>
      </trkpt>
      <trkpt lat="51.459718842848" lon="4.463224454478">
        <ele>10.8</ele>
        <time>2020-08-16T11:40:04Z</time>
      </trkpt>
      <trkpt lat="51.460217733536" lon="4.462777699208">
        <ele>10.8</ele>
        <time>2020-08-16T11:40:13Z</time>
      </trkpt>
      <trkpt lat="51.46073959063" lon="4.462344354978">
        <ele>10.4</ele>
        <time>2020-08-16T11:40:22Z</time>
      </trkpt>
      <trkpt lat="51.461276702782" lon="4.462038583266">
        <ele>10.4</ele>
        <time>2020-08-16T11:40:31Z</time>
      </trkpt>
      <trkpt lat="51.461837032797" lon="4.461921152847">
        <ele>11.6</ele>
        <time>2020-08-16T11:40:40Z</time>
      </trkpt>
      <trkpt lat="51.4624101033" lon="4.461855187294">
        <ele>9.4</ele>
        <time>2020-08-16T11:40:50Z</time>
      </trkpt>
      <trkpt lat="51.462949730022" lon="4.461852588905">
        <ele>12.2</ele>
        <time>2020-08-16T11:41:01Z</time>
      </trkpt>
      <trkpt lat="51.463324065676" lon="4.461878656614">
        <ele>15.6</ele>
        <time>2020-08-16T11:41:09Z</time>
      </trkpt>
      <trkpt lat="51.46388112675" lon="4.461994326834">
        <ele>16.6</ele>
        <time>2020-08-16T11:41:21Z</time>
      </trkpt>
      <trkpt lat="51.464428381001" lon="4.462030452823">
        <ele>15.4</ele>
        <time>2020-08-16T11:41:31Z</time>
      </trkpt>
      <trkpt lat="51.465010755413" lon="4.461918135363">
        <ele>17</ele>
        <time>2020-08-16T11:41:41Z</time>
      </trkpt>
      <trkpt lat="51.465322142998" lon="4.461882009374">
        <ele>15.6</ele>
        <time>2020-08-16T11:41:49Z</time>
      </trkpt>
      <trkpt lat="51.46544770386" lon="4.461837669123">
        <ele>16.4</ele>
        <time>2020-08-16T11:41:52Z</time>
      </trkpt>
      <trkpt lat="51.466034855955" lon="4.461695176823">
        <ele>18.4</ele>
        <time>2020-08-16T11:42:03Z</time>
      </trkpt>
      <trkpt lat="51.466589989192" lon="4.461545308451">
        <ele>17.2</ele>
        <time>2020-08-16T11:42:12Z</time>
      </trkpt>
      <trkpt lat="51.46716515517" lon="4.46138445979">
        <ele>18.4</ele>
        <time>2020-08-16T11:42:22Z</time>
      </trkpt>
      <trkpt lat="51.467732358343" lon="4.461245823164">
        <ele>18</ele>
        <time>2020-08-16T11:42:32Z</time>
      </trkpt>
      <trkpt lat="51.468303752466" lon="4.461106432167">
        <ele>15.8</ele>
        <time>2020-08-16T11:42:43Z</time>
      </trkpt>
      <trkpt lat="51.468861735549" lon="4.461010124136">
        <ele>16.8</ele>
        <time>2020-08-16T11:42:53Z</time>
      </trkpt>
      <trkpt lat="51.469405385583" lon="4.460860423402">
        <ele>17.4</ele>
        <time>2020-08-16T11:43:03Z</time>
      </trkpt>
      <trkpt lat="51.469943419744" lon="4.46075162634">
        <ele>16</ele>
        <time>2020-08-16T11:43:13Z</time>
      </trkpt>
      <trkpt lat="51.470316833389" lon="4.460647523142">
        <ele>13.4</ele>
        <time>2020-08-16T11:43:20Z</time>
      </trkpt>
      <trkpt lat="51.470377769802" lon="4.460542162659">
        <ele>12</ele>
        <time>2020-08-16T11:43:22Z</time>
      </trkpt>
      <trkpt lat="51.470383385675" lon="4.460346948208">
        <ele>10.6</ele>
        <time>2020-08-16T11:43:25Z</time>
      </trkpt>
      <trkpt lat="51.470306356014" lon="4.459864653682">
        <ele>8.8</ele>
        <time>2020-08-16T11:43:31Z</time>
      </trkpt>
      <trkpt lat="51.470124552603" lon="4.459021266904">
        <ele>6.2</ele>
        <time>2020-08-16T11:43:41Z</time>
      </trkpt>
      <trkpt lat="51.469970996195" lon="4.45813898811">
        <ele>3</ele>
        <time>2020-08-16T11:43:53Z</time>
      </trkpt>
      <trkpt lat="51.46976354417" lon="4.457286213604">
        <ele>1.8</ele>
        <time>2020-08-16T11:44:04Z</time>
      </trkpt>
      <trkpt lat="51.469660530619" lon="4.456381555137">
        <ele>0.8</ele>
        <time>2020-08-16T11:44:14Z</time>
      </trkpt>
      <trkpt lat="51.469586099347" lon="4.455517045971">
        <ele>1.6</ele>
        <time>2020-08-16T11:44:23Z</time>
      </trkpt>
      <trkpt lat="51.469527258409" lon="4.454646920932">
        <ele>2.8</ele>
        <time>2020-08-16T11:44:33Z</time>
      </trkpt>
      <trkpt lat="51.469503872908" lon="4.454245763198">
        <ele>2.6</ele>
        <time>2020-08-16T11:44:38Z</time>
      </trkpt>
      <trkpt lat="51.469501358338" lon="4.454008136333">
        <ele>2.6</ele>
        <time>2020-08-16T11:44:43Z</time>
      </trkpt>
      <trkpt lat="51.46952885097" lon="4.45398408028">
        <ele>2.6</ele>
        <time>2020-08-16T11:44:45Z</time>
      </trkpt>
      <trkpt lat="51.470069567339" lon="4.453730779262">
        <ele>6.4</ele>
        <time>2020-08-16T11:45:03Z</time>
      </trkpt>
      <trkpt lat="51.470583042533" lon="4.453431629251">
        <ele>8.4</ele>
        <time>2020-08-16T11:45:14Z</time>
      </trkpt>
      <trkpt lat="51.471082352316" lon="4.453072716293">
        <ele>8.6</ele>
        <time>2020-08-16T11:45:24Z</time>
      </trkpt>
      <trkpt lat="51.471579985719" lon="4.452716401724">
        <ele>8.2</ele>
        <time>2020-08-16T11:45:33Z</time>
      </trkpt>
      <trkpt lat="51.472081893891" lon="4.452321698053">
        <ele>8.2</ele>
        <time>2020-08-16T11:45:42Z</time>
      </trkpt>
      <trkpt lat="51.472593105972" lon="4.45189698718">
        <ele>8</ele>
        <time>2020-08-16T11:45:51Z</time>
      </trkpt>
      <trkpt lat="51.47308529114" lon="4.451482250768">
        <ele>7.4</ele>
        <time>2020-08-16T11:46:00Z</time>
      </trkpt>
      <trkpt lat="51.473602286732" lon="4.451040440819">
        <ele>7.6</ele>
        <time>2020-08-16T11:46:10Z</time>
      </trkpt>
      <trkpt lat="51.474103189076" lon="4.450642468207">
        <ele>7.4</ele>
        <time>2020-08-16T11:46:19Z</time>
      </trkpt>
      <trkpt lat="51.474602666497" lon="4.450237873894">
        <ele>8</ele>
        <time>2020-08-16T11:46:29Z</time>
      </trkpt>
      <trkpt lat="51.474700147994" lon="4.450311383157">
        <ele>7.8</ele>
        <time>2020-08-16T11:46:31Z</time>
      </trkpt>
      <trkpt lat="51.474752199593" lon="4.450449935964">
        <ele>8</ele>
        <time>2020-08-16T11:46:33Z</time>
      </trkpt>
      <trkpt lat="51.474907180924" lon="4.451337495355">
        <ele>7</ele>
        <time>2020-08-16T11:46:45Z</time>
      </trkpt>
      <trkpt lat="51.474930482606" lon="4.451395917198">
        <ele>7</ele>
        <time>2020-08-16T11:46:46Z</time>
      </trkpt>
      <trkpt lat="51.474990077915" lon="4.451467498624">
        <ele>6.8</ele>
        <time>2020-08-16T11:46:48Z</time>
      </trkpt>
      <trkpt lat="51.475416381349" lon="4.45168157235">
        <ele>6</ele>
        <time>2020-08-16T11:46:59Z</time>
      </trkpt>
      <trkpt lat="51.475568093739" lon="4.451654834089">
        <ele>6</ele>
        <time>2020-08-16T11:47:02Z</time>
      </trkpt>
      <trkpt lat="51.475709999306" lon="4.451582833568">
        <ele>6.2</ele>
        <time>2020-08-16T11:47:05Z</time>
      </trkpt>
      <trkpt lat="51.476223306862" lon="4.451234900899">
        <ele>5</ele>
        <time>2020-08-16T11:47:15Z</time>
      </trkpt>
      <trkpt lat="51.476737871703" lon="4.450841370694">
        <ele>5.6</ele>
        <time>2020-08-16T11:47:25Z</time>
      </trkpt>
      <trkpt lat="51.477244641377" lon="4.450480529899">
        <ele>5.4</ele>
        <time>2020-08-16T11:47:35Z</time>
      </trkpt>
      <trkpt lat="51.477345894729" lon="4.450424874083">
        <ele>5.4</ele>
        <time>2020-08-16T11:47:37Z</time>
      </trkpt>
      <trkpt lat="51.477437592715" lon="4.45043015468">
        <ele>5.6</ele>
        <time>2020-08-16T11:47:39Z</time>
      </trkpt>
      <trkpt lat="51.477490733961" lon="4.450528306729">
        <ele>5.6</ele>
        <time>2020-08-16T11:47:41Z</time>
      </trkpt>
      <trkpt lat="51.477506575752" lon="4.450688149562">
        <ele>5.4</ele>
        <time>2020-08-16T11:47:43Z</time>
      </trkpt>
      <trkpt lat="51.477664909843" lon="4.451579396989">
        <ele>3.4</ele>
        <time>2020-08-16T11:47:54Z</time>
      </trkpt>
      <trkpt lat="51.477818298613" lon="4.452174344251">
        <ele>2</ele>
        <time>2020-08-16T11:48:01Z</time>
      </trkpt>
      <trkpt lat="51.47789314898" lon="4.452312561782">
        <ele>1.8</ele>
        <time>2020-08-16T11:48:03Z</time>
      </trkpt>
      <trkpt lat="51.477980656016" lon="4.452422616129">
        <ele>1.6</ele>
        <time>2020-08-16T11:48:05Z</time>
      </trkpt>
      <trkpt lat="51.478043604085" lon="4.452571897768">
        <ele>1.4</ele>
        <time>2020-08-16T11:48:07Z</time>
      </trkpt>
      <trkpt lat="51.478173188259" lon="4.453360969834">
        <ele>0</ele>
        <time>2020-08-16T11:48:16Z</time>
      </trkpt>
      <trkpt lat="51.478223563478" lon="4.453509161826">
        <ele>0</ele>
        <time>2020-08-16T11:48:18Z</time>
      </trkpt>
      <trkpt lat="51.478290534859" lon="4.453606391866">
        <ele>0</ele>
        <time>2020-08-16T11:48:20Z</time>
      </trkpt>
      <trkpt lat="51.47837846099" lon="4.453641176751">
        <ele>0</ele>
        <time>2020-08-16T11:48:22Z</time>
      </trkpt>
      <trkpt lat="51.478973324433" lon="4.453510335292">
        <ele>0</ele>
        <time>2020-08-16T11:48:32Z</time>
      </trkpt>
      <trkpt lat="51.47941194926" lon="4.453407489379">
        <ele>0</ele>
        <time>2020-08-16T11:48:39Z</time>
      </trkpt>
      <trkpt lat="51.479523177073" lon="4.453479070805">
        <ele>0</ele>
        <time>2020-08-16T11:48:41Z</time>
      </trkpt>
      <trkpt lat="51.479568523152" lon="4.453642182579">
        <ele>0</ele>
        <time>2020-08-16T11:48:43Z</time>
      </trkpt>
      <trkpt lat="51.479491661129" lon="4.454565616502">
        <ele>0</ele>
        <time>2020-08-16T11:48:52Z</time>
      </trkpt>
      <trkpt lat="51.479496690269" lon="4.454664606741">
        <ele>0</ele>
        <time>2020-08-16T11:48:53Z</time>
      </trkpt>
      <trkpt lat="51.479534408819" lon="4.454851523111">
        <ele>0.4</ele>
        <time>2020-08-16T11:48:55Z</time>
      </trkpt>
      <trkpt lat="51.47960389477" lon="4.454996446162">
        <ele>0.4</ele>
        <time>2020-08-16T11:48:57Z</time>
      </trkpt>
      <trkpt lat="51.479700957172" lon="4.455085294302">
        <ele>0.4</ele>
        <time>2020-08-16T11:48:59Z</time>
      </trkpt>
      <trkpt lat="51.480764536463" lon="4.455088730881">
        <ele>2.4</ele>
        <time>2020-08-16T11:49:16Z</time>
      </trkpt>
      <trkpt lat="51.481340959726" lon="4.455160228488">
        <ele>4.4</ele>
        <time>2020-08-16T11:49:26Z</time>
      </trkpt>
      <trkpt lat="51.481906570338" lon="4.455320658054">
        <ele>5</ele>
        <time>2020-08-16T11:49:36Z</time>
      </trkpt>
      <trkpt lat="51.482462625584" lon="4.455558033462">
        <ele>5.6</ele>
        <time>2020-08-16T11:49:47Z</time>
      </trkpt>
      <trkpt lat="51.482510150957" lon="4.455588711216">
        <ele>5.4</ele>
        <time>2020-08-16T11:49:48Z</time>
      </trkpt>
      <trkpt lat="51.482638813122" lon="4.455727012566">
        <ele>5.4</ele>
        <time>2020-08-16T11:49:51Z</time>
      </trkpt>
      <trkpt lat="51.482714334041" lon="4.455848298659">
        <ele>5.4</ele>
        <time>2020-08-16T11:49:53Z</time>
      </trkpt>
      <trkpt lat="51.482803349819" lon="4.456060360729">
        <ele>5.2</ele>
        <time>2020-08-16T11:49:56Z</time>
      </trkpt>
      <trkpt lat="51.482849701726" lon="4.456209307092">
        <ele>5.8</ele>
        <time>2020-08-16T11:49:58Z</time>
      </trkpt>
      <trkpt lat="51.48282673532" lon="4.456613063215">
        <ele>5.8</ele>
        <time>2020-08-16T11:50:03Z</time>
      </trkpt>
      <trkpt lat="51.482853389762" lon="4.456702581907">
        <ele>5.8</ele>
        <time>2020-08-16T11:50:05Z</time>
      </trkpt>
      <trkpt lat="51.483407517171" lon="4.456904250421">
        <ele>4.4</ele>
        <time>2020-08-16T11:50:17Z</time>
      </trkpt>
      <trkpt lat="51.483598875948" lon="4.456984632842">
        <ele>3.8</ele>
        <time>2020-08-16T11:50:21Z</time>
      </trkpt>
      <trkpt lat="51.48368588007" lon="4.456953284536">
        <ele>3.6</ele>
        <time>2020-08-16T11:50:23Z</time>
      </trkpt>
      <trkpt lat="51.483763328826" lon="4.456850857718">
        <ele>3.4</ele>
        <time>2020-08-16T11:50:25Z</time>
      </trkpt>
      <trkpt lat="51.48414185543" lon="4.456155411475">
        <ele>2.8</ele>
        <time>2020-08-16T11:50:35Z</time>
      </trkpt>
      <trkpt lat="51.484512922143" lon="4.45545510373">
        <ele>1</ele>
        <time>2020-08-16T11:50:45Z</time>
      </trkpt>
      <trkpt lat="51.484666813827" lon="4.4552229251">
        <ele>0.4</ele>
        <time>2020-08-16T11:50:49Z</time>
      </trkpt>
      <trkpt lat="51.484758260356" lon="4.455250920646">
        <ele>0.4</ele>
        <time>2020-08-16T11:50:51Z</time>
      </trkpt>
      <trkpt lat="51.484835541474" lon="4.455356616405">
        <ele>0</ele>
        <time>2020-08-16T11:50:53Z</time>
      </trkpt>
      <trkpt lat="51.485235274285" lon="4.456002944714">
        <ele>0</ele>
        <time>2020-08-16T11:51:04Z</time>
      </trkpt>
      <trkpt lat="51.485646490299" lon="4.456637203087">
        <ele>0</ele>
        <time>2020-08-16T11:51:15Z</time>
      </trkpt>
      <trkpt lat="51.485918566773" lon="4.457148331349">
        <ele>0</ele>
        <time>2020-08-16T11:51:24Z</time>
      </trkpt>
      <trkpt lat="51.486020574496" lon="4.457095357741">
        <ele>0</ele>
        <time>2020-08-16T11:51:26Z</time>
      </trkpt>
      <trkpt lat="51.486469760517" lon="4.456688500315">
        <ele>0</ele>
        <time>2020-08-16T11:51:35Z</time>
      </trkpt>
      <trkpt lat="51.486576965018" lon="4.456684979917">
        <ele>0</ele>
        <time>2020-08-16T11:51:37Z</time>
      </trkpt>
      <trkpt lat="51.486699927491" lon="4.456948674491">
        <ele>0</ele>
        <time>2020-08-16T11:51:41Z</time>
      </trkpt>
      <trkpt lat="51.486791206382" lon="4.457247573045">
        <ele>0</ele>
        <time>2020-08-16T11:51:45Z</time>
      </trkpt>
      <trkpt lat="51.487162776009" lon="4.457885519454">
        <ele>0</ele>
        <time>2020-08-16T11:51:55Z</time>
      </trkpt>
      <trkpt lat="51.487474750327" lon="4.458402850322">
        <ele>0</ele>
        <time>2020-08-16T11:52:03Z</time>
      </trkpt>
      <trkpt lat="51.487567035046" lon="4.458471414264">
        <ele>0</ele>
        <time>2020-08-16T11:52:05Z</time>
      </trkpt>
      <trkpt lat="51.487661834335" lon="4.458445095098">
        <ele>0</ele>
        <time>2020-08-16T11:52:07Z</time>
      </trkpt>
      <trkpt lat="51.488171370036" lon="4.457982833313">
        <ele>0</ele>
        <time>2020-08-16T11:52:18Z</time>
      </trkpt>
      <trkpt lat="51.488678474986" lon="4.457516799673">
        <ele>0</ele>
        <time>2020-08-16T11:52:28Z</time>
      </trkpt>
      <trkpt lat="51.489203768659" lon="4.457032661129">
        <ele>0</ele>
        <time>2020-08-16T11:52:37Z</time>
      </trkpt>
      <trkpt lat="51.489698384578" lon="4.456583391289">
        <ele>0</ele>
        <time>2020-08-16T11:52:45Z</time>
      </trkpt>
      <trkpt lat="51.49017682343" lon="4.456155662932">
        <ele>0</ele>
        <time>2020-08-16T11:52:53Z</time>
      </trkpt>
      <trkpt lat="51.490661716345" lon="4.4557174572">
        <ele>0</ele>
        <time>2020-08-16T11:53:01Z</time>
      </trkpt>
      <trkpt lat="51.490790797605" lon="4.455627351775">
        <ele>0</ele>
        <time>2020-08-16T11:53:03Z</time>
      </trkpt>
      <trkpt lat="51.490930691516" lon="4.455620310979">
        <ele>0</ele>
        <time>2020-08-16T11:53:05Z</time>
      </trkpt>
      <trkpt lat="51.491057258206" lon="4.455711254594">
        <ele>0</ele>
        <time>2020-08-16T11:53:07Z</time>
      </trkpt>
      <trkpt lat="51.491141077206" lon="4.455898925335">
        <ele>0</ele>
        <time>2020-08-16T11:53:09Z</time>
      </trkpt>
      <trkpt lat="51.491247946431" lon="4.456189609627">
        <ele>0</ele>
        <time>2020-08-16T11:53:12Z</time>
      </trkpt>
      <trkpt lat="51.49134358391" lon="4.456321037819">
        <ele>0</ele>
        <time>2020-08-16T11:53:14Z</time>
      </trkpt>
      <trkpt lat="51.491452883886" lon="4.45637543635">
        <ele>0</ele>
        <time>2020-08-16T11:53:16Z</time>
      </trkpt>
      <trkpt lat="51.491565955717" lon="4.45634777608">
        <ele>0</ele>
        <time>2020-08-16T11:53:18Z</time>
      </trkpt>
      <trkpt lat="51.491667795802" lon="4.456244427253">
        <ele>0</ele>
        <time>2020-08-16T11:53:20Z</time>
      </trkpt>
      <trkpt lat="51.492057218876" lon="4.455636068951">
        <ele>0.2</ele>
        <time>2020-08-16T11:53:28Z</time>
      </trkpt>
      <trkpt lat="51.492472458202" lon="4.454981945475">
        <ele>0.6</ele>
        <time>2020-08-16T11:53:37Z</time>
      </trkpt>
      <trkpt lat="51.492870011719" lon="4.454395966846">
        <ele>1</ele>
        <time>2020-08-16T11:53:46Z</time>
      </trkpt>
      <trkpt lat="51.493266559408" lon="4.453756344057">
        <ele>1</ele>
        <time>2020-08-16T11:53:55Z</time>
      </trkpt>
      <trkpt lat="51.49366369383" lon="4.453090737378">
        <ele>1.2</ele>
        <time>2020-08-16T11:54:04Z</time>
      </trkpt>
      <trkpt lat="51.493985977885" lon="4.452562426221">
        <ele>2</ele>
        <time>2020-08-16T11:54:12Z</time>
      </trkpt>
      <trkpt lat="51.49440968293" lon="4.451923557803">
        <ele>2.4</ele>
        <time>2020-08-16T11:54:22Z</time>
      </trkpt>
      <trkpt lat="51.494779408539" lon="4.45128846124">
        <ele>2.8</ele>
        <time>2020-08-16T11:54:31Z</time>
      </trkpt>
      <trkpt lat="51.495180230997" lon="4.450666440441">
        <ele>3.4</ele>
        <time>2020-08-16T11:54:40Z</time>
      </trkpt>
      <trkpt lat="51.49557057608" lon="4.450035953923">
        <ele>3.8</ele>
        <time>2020-08-16T11:54:49Z</time>
      </trkpt>
      <trkpt lat="51.495959663878" lon="4.449427427983">
        <ele>3.4</ele>
        <time>2020-08-16T11:54:59Z</time>
      </trkpt>
      <trkpt lat="51.496346237106" lon="4.44876634753">
        <ele>3.8</ele>
        <time>2020-08-16T11:55:09Z</time>
      </trkpt>
      <trkpt lat="51.496421087473" lon="4.448640367573">
        <ele>3.6</ele>
        <time>2020-08-16T11:55:11Z</time>
      </trkpt>
      <trkpt lat="51.496494093822" lon="4.448519500575">
        <ele>3</ele>
        <time>2020-08-16T11:55:13Z</time>
      </trkpt>
      <trkpt lat="51.496530052173" lon="4.448366614719">
        <ele>2.6</ele>
        <time>2020-08-16T11:55:15Z</time>
      </trkpt>
      <trkpt lat="51.496488226492" lon="4.44822236222">
        <ele>2.4</ele>
        <time>2020-08-16T11:55:17Z</time>
      </trkpt>
      <trkpt lat="51.496197793657" lon="4.447484419744">
        <ele>1</ele>
        <time>2020-08-16T11:55:27Z</time>
      </trkpt>
      <trkpt lat="51.495871234833" lon="4.446721918301">
        <ele>0.2</ele>
        <time>2020-08-16T11:55:37Z</time>
      </trkpt>
      <trkpt lat="51.495712565466" lon="4.446262338724">
        <ele>0</ele>
        <time>2020-08-16T11:55:44Z</time>
      </trkpt>
      <trkpt lat="51.495701836634" lon="4.446128898876">
        <ele>0</ele>
        <time>2020-08-16T11:55:46Z</time>
      </trkpt>
      <trkpt lat="51.495745003419" lon="4.446003086557">
        <ele>0</ele>
        <time>2020-08-16T11:55:48Z</time>
      </trkpt>
      <trkpt lat="51.495841982002" lon="4.445963943084">
        <ele>0</ele>
        <time>2020-08-16T11:55:50Z</time>
      </trkpt>
      <trkpt lat="51.496092265536" lon="4.446120936071">
        <ele>0</ele>
        <time>2020-08-16T11:55:58Z</time>
      </trkpt>
      <trkpt lat="51.496242133908" lon="4.446130742894">
        <ele>0</ele>
        <time>2020-08-16T11:57:09Z</time>
      </trkpt>
      <trkpt lat="51.496702719313" lon="4.446164941046">
        <ele>0</ele>
        <time>2020-08-16T11:57:20Z</time>
      </trkpt>
      <trkpt lat="51.497258355464" lon="4.446175753697">
        <ele>0</ele>
        <time>2020-08-16T11:57:30Z</time>
      </trkpt>
      <trkpt lat="51.497808459561" lon="4.446217244102">
        <ele>0</ele>
        <time>2020-08-16T11:57:39Z</time>
      </trkpt>
      <trkpt lat="51.498404328832" lon="4.44622998459">
        <ele>0</ele>
        <time>2020-08-16T11:57:48Z</time>
      </trkpt>
      <trkpt lat="51.498830967542" lon="4.446215316265">
        <ele>0</ele>
        <time>2020-08-16T11:57:55Z</time>
      </trkpt>
      <trkpt lat="51.499315357543" lon="4.445840142421">
        <ele>0</ele>
        <time>2020-08-16T11:58:04Z</time>
      </trkpt>
      <trkpt lat="51.499796059508" lon="4.445392129866">
        <ele>0</ele>
        <time>2020-08-16T11:58:13Z</time>
      </trkpt>
      <trkpt lat="51.500278605491" lon="4.444934645764">
        <ele>0</ele>
        <time>2020-08-16T11:58:22Z</time>
      </trkpt>
      <trkpt lat="51.500791493952" lon="4.444448411745">
        <ele>0</ele>
        <time>2020-08-16T11:58:31Z</time>
      </trkpt>
      <trkpt lat="51.50131553034" lon="4.443968631789">
        <ele>0</ele>
        <time>2020-08-16T11:58:40Z</time>
      </trkpt>
      <trkpt lat="51.501831352466" lon="4.44351089623">
        <ele>0</ele>
        <time>2020-08-16T11:58:49Z</time>
      </trkpt>
      <trkpt lat="51.502330913706" lon="4.443061877847">
        <ele>0</ele>
        <time>2020-08-16T11:58:58Z</time>
      </trkpt>
      <trkpt lat="51.502809520196" lon="4.442554605259">
        <ele>0</ele>
        <time>2020-08-16T11:59:08Z</time>
      </trkpt>
      <trkpt lat="51.503278403682" lon="4.442065269937">
        <ele>0</ele>
        <time>2020-08-16T11:59:18Z</time>
      </trkpt>
      <trkpt lat="51.503788023202" lon="4.441586244352">
        <ele>0</ele>
        <time>2020-08-16T11:59:28Z</time>
      </trkpt>
      <trkpt lat="51.504274760135" lon="4.441147703344">
        <ele>0</ele>
        <time>2020-08-16T11:59:37Z</time>
      </trkpt>
      <trkpt lat="51.50445287551" lon="4.441063716706">
        <ele>0</ele>
        <time>2020-08-16T11:59:40Z</time>
      </trkpt>
      <trkpt lat="51.504993759517" lon="4.441004791949">
        <ele>0</ele>
        <time>2020-08-16T11:59:49Z</time>
      </trkpt>
      <trkpt lat="51.505279498488" lon="4.441044186879">
        <ele>0.4</ele>
        <time>2020-08-16T11:59:54Z</time>
      </trkpt>
      <trkpt lat="51.50576296648" lon="4.441474345987">
        <ele>1.2</ele>
        <time>2020-08-16T12:00:04Z</time>
      </trkpt>
      <trkpt lat="51.505962371881" lon="4.441570318742">
        <ele>1.4</ele>
        <time>2020-08-16T12:00:08Z</time>
      </trkpt>
      <trkpt lat="51.506135206659" lon="4.44155958991">
        <ele>1.8</ele>
        <time>2020-08-16T12:00:11Z</time>
      </trkpt>
      <trkpt lat="51.506675001019" lon="4.441349623315">
        <ele>1.6</ele>
        <time>2020-08-16T12:00:21Z</time>
      </trkpt>
      <trkpt lat="51.507222674365" lon="4.441112415545">
        <ele>1</ele>
        <time>2020-08-16T12:00:31Z</time>
      </trkpt>
      <trkpt lat="51.507755847024" lon="4.440882248571">
        <ele>0.6</ele>
        <time>2020-08-16T12:00:41Z</time>
      </trkpt>
      <trkpt lat="51.507835726531" lon="4.44078174959">
        <ele>0</ele>
        <time>2020-08-16T12:00:43Z</time>
      </trkpt>
      <trkpt lat="51.507884341551" lon="4.440640011661">
        <ele>0</ele>
        <time>2020-08-16T12:00:45Z</time>
      </trkpt>
      <trkpt lat="51.507895657116" lon="4.440477402801">
        <ele>0</ele>
        <time>2020-08-16T12:00:47Z</time>
      </trkpt>
      <trkpt lat="51.507875121461" lon="4.440297946322">
        <ele>0</ele>
        <time>2020-08-16T12:00:49Z</time>
      </trkpt>
      <trkpt lat="51.507777639964" lon="4.439428743292">
        <ele>0</ele>
        <time>2020-08-16T12:00:58Z</time>
      </trkpt>
      <trkpt lat="51.507715865361" lon="4.438504806455">
        <ele>0</ele>
        <time>2020-08-16T12:01:08Z</time>
      </trkpt>
      <trkpt lat="51.507749225323" lon="4.438397685773">
        <ele>0</ele>
        <time>2020-08-16T12:01:10Z</time>
      </trkpt>
      <trkpt lat="51.507813849772" lon="4.438402547275">
        <ele>0</ele>
        <time>2020-08-16T12:01:12Z</time>
      </trkpt>
      <trkpt lat="51.507947541077" lon="4.438484186981">
        <ele>0</ele>
        <time>2020-08-16T12:01:15Z</time>
      </trkpt>
      <trkpt lat="51.508083746952" lon="4.438515032373">
        <ele>0</ele>
        <time>2020-08-16T12:01:18Z</time>
      </trkpt>
      <trkpt lat="51.508163375002" lon="4.4385680898">
        <ele>0</ele>
        <time>2020-08-16T12:01:20Z</time>
      </trkpt>
      <trkpt lat="51.508647094451" lon="4.439014509794">
        <ele>0</ele>
        <time>2020-08-16T12:01:31Z</time>
      </trkpt>
      <trkpt lat="51.509130227167" lon="4.439484482927">
        <ele>0</ele>
        <time>2020-08-16T12:01:41Z</time>
      </trkpt>
      <trkpt lat="51.509230307053" lon="4.439506946419">
        <ele>0</ele>
        <time>2020-08-16T12:01:43Z</time>
      </trkpt>
      <trkpt lat="51.509327117998" lon="4.439420696668">
        <ele>0</ele>
        <time>2020-08-16T12:01:45Z</time>
      </trkpt>
      <trkpt lat="51.509519985517" lon="4.439003194229">
        <ele>0</ele>
        <time>2020-08-16T12:01:50Z</time>
      </trkpt>
      <trkpt lat="51.509677481418" lon="4.438804124104">
        <ele>0</ele>
        <time>2020-08-16T12:01:53Z</time>
      </trkpt>
      <trkpt lat="51.509798683692" lon="4.438724496054">
        <ele>0</ele>
        <time>2020-08-16T12:01:55Z</time>
      </trkpt>
      <trkpt lat="51.510385835787" lon="4.438554762579">
        <ele>0</ele>
        <time>2020-08-16T12:02:05Z</time>
      </trkpt>
      <trkpt lat="51.51063368857" lon="4.438420903636">
        <ele>0</ele>
        <time>2020-08-16T12:02:09Z</time>
      </trkpt>
      <trkpt lat="51.510669982197" lon="4.438355776273">
        <ele>0</ele>
        <time>2020-08-16T12:02:11Z</time>
      </trkpt>
      <trkpt lat="51.51070912567" lon="4.438191323395">
        <ele>0</ele>
        <time>2020-08-16T12:02:13Z</time>
      </trkpt>
      <trkpt lat="51.510712729887" lon="4.438001389541">
        <ele>0</ele>
        <time>2020-08-16T12:02:15Z</time>
      </trkpt>
      <trkpt lat="51.510698983571" lon="4.437802738511">
        <ele>0</ele>
        <time>2020-08-16T12:02:17Z</time>
      </trkpt>
      <trkpt lat="51.51071834576" lon="4.4376209351">
        <ele>0</ele>
        <time>2020-08-16T12:02:19Z</time>
      </trkpt>
      <trkpt lat="51.510767966608" lon="4.437452207453">
        <ele>0</ele>
        <time>2020-08-16T12:02:21Z</time>
      </trkpt>
      <trkpt lat="51.510843487527" lon="4.437308625506">
        <ele>0</ele>
        <time>2020-08-16T12:02:23Z</time>
      </trkpt>
      <trkpt lat="51.510920852464" lon="4.437166971396">
        <ele>0</ele>
        <time>2020-08-16T12:02:25Z</time>
      </trkpt>
      <trkpt lat="51.511103829341" lon="4.436788193335">
        <ele>0</ele>
        <time>2020-08-16T12:02:30Z</time>
      </trkpt>
      <trkpt lat="51.511187899798" lon="4.436755671563">
        <ele>0</ele>
        <time>2020-08-16T12:02:32Z</time>
      </trkpt>
      <trkpt lat="51.511263253079" lon="4.436814261044">
        <ele>0</ele>
        <time>2020-08-16T12:02:34Z</time>
      </trkpt>
      <trkpt lat="51.511347239717" lon="4.436985838537">
        <ele>0</ele>
        <time>2020-08-16T12:02:37Z</time>
      </trkpt>
      <trkpt lat="51.511563828013" lon="4.437304518375">
        <ele>0</ele>
        <time>2020-08-16T12:02:43Z</time>
      </trkpt>
      <trkpt lat="51.511721910647" lon="4.437511718943">
        <ele>0</ele>
        <time>2020-08-16T12:02:47Z</time>
      </trkpt>
      <trkpt lat="51.511826768216" lon="4.43755807085">
        <ele>0</ele>
        <time>2020-08-16T12:02:49Z</time>
      </trkpt>
      <trkpt lat="51.512052325145" lon="4.437529237114">
        <ele>0</ele>
        <time>2020-08-16T12:02:53Z</time>
      </trkpt>
      <trkpt lat="51.512275199866" lon="4.437546168552">
        <ele>0</ele>
        <time>2020-08-16T12:02:57Z</time>
      </trkpt>
      <trkpt lat="51.512832428578" lon="4.43741390217">
        <ele>0</ele>
        <time>2020-08-16T12:03:07Z</time>
      </trkpt>
      <trkpt lat="51.512940471269" lon="4.437391606316">
        <ele>0</ele>
        <time>2020-08-16T12:03:09Z</time>
      </trkpt>
      <trkpt lat="51.513139709032" lon="4.437504594328">
        <ele>0</ele>
        <time>2020-08-16T12:03:13Z</time>
      </trkpt>
      <trkpt lat="51.51323878309" lon="4.43749604479">
        <ele>0</ele>
        <time>2020-08-16T12:03:15Z</time>
      </trkpt>
      <trkpt lat="51.513818307656" lon="4.437341314916">
        <ele>0</ele>
        <time>2020-08-16T12:03:26Z</time>
      </trkpt>
      <trkpt lat="51.514161965556" lon="4.437219274452">
        <ele>1.2</ele>
        <time>2020-08-16T12:03:33Z</time>
      </trkpt>
      <trkpt lat="51.514285850038" lon="4.437224303592">
        <ele>1</ele>
        <time>2020-08-16T12:03:37Z</time>
      </trkpt>
      <trkpt lat="51.514343852786" lon="4.437461846638">
        <ele>0</ele>
        <time>2020-08-16T12:03:44Z</time>
      </trkpt>
      <trkpt lat="51.514905188629" lon="4.43734768516">
        <ele>0</ele>
        <time>2020-08-16T12:03:58Z</time>
      </trkpt>
      <trkpt lat="51.515465267187" lon="4.437201588643">
        <ele>0</ele>
        <time>2020-08-16T12:04:08Z</time>
      </trkpt>
      <trkpt lat="51.516048060694" lon="4.437102514585">
        <ele>0</ele>
        <time>2020-08-16T12:04:18Z</time>
      </trkpt>
      <trkpt lat="51.516217961807" lon="4.437143837352">
        <ele>0</ele>
        <time>2020-08-16T12:04:21Z</time>
      </trkpt>
      <trkpt lat="51.516763874954" lon="4.437019198499">
        <ele>0</ele>
        <time>2020-08-16T12:04:31Z</time>
      </trkpt>
      <trkpt lat="51.51719168713" lon="4.436899002053">
        <ele>0.6</ele>
        <time>2020-08-16T12:04:39Z</time>
      </trkpt>
      <trkpt lat="51.51726460966" lon="4.436935211861">
        <ele>0.6</ele>
        <time>2020-08-16T12:04:41Z</time>
      </trkpt>
      <trkpt lat="51.517307105893" lon="4.437242492315">
        <ele>1.4</ele>
        <time>2020-08-16T12:04:47Z</time>
      </trkpt>
      <trkpt lat="51.517309536644" lon="4.437481879379">
        <ele>0.8</ele>
        <time>2020-08-16T12:05:40Z</time>
      </trkpt>
      <trkpt lat="51.517510702244" lon="4.438272795463">
        <ele>0</ele>
        <time>2020-08-16T12:05:50Z</time>
      </trkpt>
      <trkpt lat="51.517499135222" lon="4.439152978782">
        <ele>0</ele>
        <time>2020-08-16T12:05:59Z</time>
      </trkpt>
      <trkpt lat="51.51747164259" lon="4.440035341395">
        <ele>0</ele>
        <time>2020-08-16T12:06:12Z</time>
      </trkpt>
      <trkpt lat="51.517497207385" lon="4.440187137604">
        <ele>0</ele>
        <time>2020-08-16T12:06:14Z</time>
      </trkpt>
      <trkpt lat="51.51756887263" lon="4.440271543337">
        <ele>0</ele>
        <time>2020-08-16T12:06:16Z</time>
      </trkpt>
      <trkpt lat="51.517679597529" lon="4.440290486431">
        <ele>0</ele>
        <time>2020-08-16T12:06:18Z</time>
      </trkpt>
      <trkpt lat="51.518298265568" lon="4.440114885626">
        <ele>0</ele>
        <time>2020-08-16T12:06:28Z</time>
      </trkpt>
      <trkpt lat="51.518883908921" lon="4.439967699462">
        <ele>0</ele>
        <time>2020-08-16T12:06:39Z</time>
      </trkpt>
      <trkpt lat="51.518999746779" lon="4.439952612042">
        <ele>0</ele>
        <time>2020-08-16T12:06:40Z</time>
      </trkpt>
      <trkpt lat="51.519046517781" lon="4.439991504058">
        <ele>0</ele>
        <time>2020-08-16T12:06:42Z</time>
      </trkpt>
      <trkpt lat="51.519108124746" lon="4.440127207019">
        <ele>0</ele>
        <time>2020-08-16T12:06:44Z</time>
      </trkpt>
      <trkpt lat="51.519377267555" lon="4.440883254399">
        <ele>0</ele>
        <time>2020-08-16T12:06:54Z</time>
      </trkpt>
      <trkpt lat="51.519681195249" lon="4.441691856292">
        <ele>0</ele>
        <time>2020-08-16T12:07:06Z</time>
      </trkpt>
      <trkpt lat="51.519965174021" lon="4.442457961952">
        <ele>0</ele>
        <time>2020-08-16T12:07:17Z</time>
      </trkpt>
      <trkpt lat="51.520273627941" lon="4.443285255482">
        <ele>0</ele>
        <time>2020-08-16T12:07:28Z</time>
      </trkpt>
      <trkpt lat="51.520559953645" lon="4.444040213215">
        <ele>0</ele>
        <time>2020-08-16T12:07:40Z</time>
      </trkpt>
      <trkpt lat="51.520831024291" lon="4.444832470403">
        <ele>0</ele>
        <time>2020-08-16T12:07:51Z</time>
      </trkpt>
      <trkpt lat="51.520967313985" lon="4.445382742138">
        <ele>0</ele>
        <time>2020-08-16T12:07:58Z</time>
      </trkpt>
      <trkpt lat="51.520907802495" lon="4.445511823398">
        <ele>0</ele>
        <time>2020-08-16T12:08:00Z</time>
      </trkpt>
      <trkpt lat="51.520395500767" lon="4.445830084141">
        <ele>0</ele>
        <time>2020-08-16T12:08:10Z</time>
      </trkpt>
      <trkpt lat="51.519887725265" lon="4.446153122567">
        <ele>0</ele>
        <time>2020-08-16T12:08:20Z</time>
      </trkpt>
      <trkpt lat="51.519600896647" lon="4.446313719771">
        <ele>0</ele>
        <time>2020-08-16T12:08:26Z</time>
      </trkpt>
      <trkpt lat="51.519523950805" lon="4.446165527779">
        <ele>0</ele>
        <time>2020-08-16T12:08:29Z</time>
      </trkpt>
      <trkpt lat="51.51958220501" lon="4.446061843676">
        <ele>0</ele>
        <time>2020-08-16T12:08:31Z</time>
      </trkpt>
      <trkpt lat="51.519670801693" lon="4.446061592219">
        <ele>0</ele>
        <time>2020-08-16T12:08:33Z</time>
      </trkpt>
      <trkpt lat="51.519756716168" lon="4.446134598568">
        <ele>0</ele>
        <time>2020-08-16T12:08:35Z</time>
      </trkpt>
      <trkpt lat="51.519849000887" lon="4.446169886367">
        <ele>0</ele>
        <time>2020-08-16T12:08:37Z</time>
      </trkpt>
      <trkpt lat="51.519942291434" lon="4.446136023491">
        <ele>0</ele>
        <time>2020-08-16T12:08:39Z</time>
      </trkpt>
      <trkpt lat="51.520289134456" lon="4.445903341947">
        <ele>0</ele>
        <time>2020-08-16T12:08:46Z</time>
      </trkpt>
      <trkpt lat="51.520805710953" lon="4.445570496698">
        <ele>0.2</ele>
        <time>2020-08-16T12:08:56Z</time>
      </trkpt>
      <trkpt lat="51.520909646513" lon="4.445516349624">
        <ele>0.4</ele>
        <time>2020-08-16T12:08:58Z</time>
      </trkpt>
      <trkpt lat="51.521025065276" lon="4.445538394021">
        <ele>0.4</ele>
        <time>2020-08-16T12:09:00Z</time>
      </trkpt>
      <trkpt lat="51.521540468307" lon="4.445882471016">
        <ele>0</ele>
        <time>2020-08-16T12:09:10Z</time>
      </trkpt>
      <trkpt lat="51.522083531608" lon="4.446072069594">
        <ele>0</ele>
        <time>2020-08-16T12:09:20Z</time>
      </trkpt>
      <trkpt lat="51.522659954871" lon="4.44623333735">
        <ele>0</ele>
        <time>2020-08-16T12:09:31Z</time>
      </trkpt>
      <trkpt lat="51.522758777472" lon="4.44624507201">
        <ele>0</ele>
        <time>2020-08-16T12:09:33Z</time>
      </trkpt>
      <trkpt lat="51.522842847929" lon="4.446236103377">
        <ele>0</ele>
        <time>2020-08-16T12:09:35Z</time>
      </trkpt>
      <trkpt lat="51.522960026891" lon="4.446210790039">
        <ele>0</ele>
        <time>2020-08-16T12:09:38Z</time>
      </trkpt>
      <trkpt lat="51.523018448734" lon="4.446304667319">
        <ele>0</ele>
        <time>2020-08-16T12:09:40Z</time>
      </trkpt>
      <trkpt lat="51.523041834235" lon="4.446445986153">
        <ele>0</ele>
        <time>2020-08-16T12:09:42Z</time>
      </trkpt>
      <trkpt lat="51.523059771501" lon="4.446657964404">
        <ele>0</ele>
        <time>2020-08-16T12:09:45Z</time>
      </trkpt>
      <trkpt lat="51.523137639352" lon="4.44682761406">
        <ele>0</ele>
        <time>2020-08-16T12:09:47Z</time>
      </trkpt>
      <trkpt lat="51.523174854988" lon="4.446870864664">
        <ele>0</ele>
        <time>2020-08-16T12:09:49Z</time>
      </trkpt>
      <trkpt lat="51.5235309181" lon="4.447234052391">
        <ele>0</ele>
        <time>2020-08-16T12:09:58Z</time>
      </trkpt>
      <trkpt lat="51.523578862568" lon="4.447365648221">
        <ele>0</ele>
        <time>2020-08-16T12:10:00Z</time>
      </trkpt>
      <trkpt lat="51.523657987704" lon="4.447714083804">
        <ele>0</ele>
        <time>2020-08-16T12:10:05Z</time>
      </trkpt>
      <trkpt lat="51.523932494929" lon="4.448537186384">
        <ele>0</ele>
        <time>2020-08-16T12:10:16Z</time>
      </trkpt>
      <trkpt lat="51.524181856454" lon="4.44931871474">
        <ele>0</ele>
        <time>2020-08-16T12:10:26Z</time>
      </trkpt>
      <trkpt lat="51.524411101419" lon="4.450152043238">
        <ele>0</ele>
        <time>2020-08-16T12:10:36Z</time>
      </trkpt>
      <trkpt lat="51.524521826318" lon="4.450562840157">
        <ele>0</ele>
        <time>2020-08-16T12:10:40Z</time>
      </trkpt>
      <trkpt lat="51.524652081044" lon="4.451025101942">
        <ele>0</ele>
        <time>2020-08-16T12:10:47Z</time>
      </trkpt>
      <trkpt lat="51.524721231719" lon="4.451148148234">
        <ele>0</ele>
        <time>2020-08-16T12:10:49Z</time>
      </trkpt>
      <trkpt lat="51.524839165052" lon="4.451519885499">
        <ele>0</ele>
        <time>2020-08-16T12:10:54Z</time>
      </trkpt>
      <trkpt lat="51.524912674315" lon="4.451619462471">
        <ele>0</ele>
        <time>2020-08-16T12:10:56Z</time>
      </trkpt>
      <trkpt lat="51.525392454271" lon="4.451999497817">
        <ele>0</ele>
        <time>2020-08-16T12:11:06Z</time>
      </trkpt>
      <trkpt lat="51.525481134773" lon="4.452106031766">
        <ele>0</ele>
        <time>2020-08-16T12:11:08Z</time>
      </trkpt>
      <trkpt lat="51.525979606366" lon="4.452490844795">
        <ele>0</ele>
        <time>2020-08-16T12:11:18Z</time>
      </trkpt>
      <trkpt lat="51.526506073505" lon="4.4528927569">
        <ele>0</ele>
        <time>2020-08-16T12:11:29Z</time>
      </trkpt>
      <trkpt lat="51.52658779703" lon="4.452978839013">
        <ele>0</ele>
        <time>2020-08-16T12:11:31Z</time>
      </trkpt>
      <trkpt lat="51.526598442043" lon="4.45323473842">
        <ele>0</ele>
        <time>2020-08-16T12:11:35Z</time>
      </trkpt>
      <trkpt lat="51.526563740977" lon="4.4535130175">
        <ele>0</ele>
        <time>2020-08-16T12:11:39Z</time>
      </trkpt>
      <trkpt lat="51.526239361447" lon="4.454237632755">
        <ele>0</ele>
        <time>2020-08-16T12:11:54Z</time>
      </trkpt>
      <trkpt lat="51.526011792862" lon="4.454566287054">
        <ele>0</ele>
        <time>2020-08-16T12:12:05Z</time>
      </trkpt>
      <trkpt lat="51.526043057349" lon="4.454726046068">
        <ele>0</ele>
        <time>2020-08-16T12:12:12Z</time>
      </trkpt>
      <trkpt lat="51.526465337471" lon="4.45415674742">
        <ele>0</ele>
        <time>2020-08-16T12:12:26Z</time>
      </trkpt>
      <trkpt lat="51.526706233277" lon="4.453642517855">
        <ele>0</ele>
        <time>2020-08-16T12:12:33Z</time>
      </trkpt>
      <trkpt lat="51.526782592386" lon="4.453508658912">
        <ele>0</ele>
        <time>2020-08-16T12:12:35Z</time>
      </trkpt>
      <trkpt lat="51.526900358081" lon="4.453203222476">
        <ele>0</ele>
        <time>2020-08-16T12:12:39Z</time>
      </trkpt>
      <trkpt lat="51.527065146235" lon="4.453196014042">
        <ele>0</ele>
        <time>2020-08-16T12:12:42Z</time>
      </trkpt>
      <trkpt lat="51.52748549852" lon="4.453526009445">
        <ele>0</ele>
        <time>2020-08-16T12:12:50Z</time>
      </trkpt>
      <trkpt lat="51.527656070185" lon="4.453631872842">
        <ele>0</ele>
        <time>2020-08-16T12:12:53Z</time>
      </trkpt>
      <trkpt lat="51.528177508184" lon="4.453691300513">
        <ele>0</ele>
        <time>2020-08-16T12:13:02Z</time>
      </trkpt>
      <trkpt lat="51.528373393187" lon="4.453880396177">
        <ele>0</ele>
        <time>2020-08-16T12:13:07Z</time>
      </trkpt>
      <trkpt lat="51.52837314173" lon="4.454013081654">
        <ele>0</ele>
        <time>2020-08-16T12:13:09Z</time>
      </trkpt>
      <trkpt lat="51.528352019342" lon="4.454331845311">
        <ele>0</ele>
        <time>2020-08-16T12:13:14Z</time>
      </trkpt>
      <trkpt lat="51.528373225549" lon="4.454553546566">
        <ele>0</ele>
        <time>2020-08-16T12:13:17Z</time>
      </trkpt>
      <trkpt lat="51.52853323602" lon="4.45542157613">
        <ele>0</ele>
        <time>2020-08-16T12:13:28Z</time>
      </trkpt>
      <trkpt lat="51.528682517659" lon="4.456255742818">
        <ele>0</ele>
        <time>2020-08-16T12:13:42Z</time>
      </trkpt>
      <trkpt lat="51.528687295342" lon="4.456291365893">
        <ele>0</ele>
        <time>2020-08-16T12:13:43Z</time>
      </trkpt>
      <trkpt lat="51.528822579208" lon="4.456821185792">
        <ele>0</ele>
        <time>2020-08-16T12:13:54Z</time>
      </trkpt>
      <trkpt lat="51.529018715668" lon="4.457639091594">
        <ele>0</ele>
        <time>2020-08-16T12:14:06Z</time>
      </trkpt>
      <trkpt lat="51.529162046158" lon="4.458167654208">
        <ele>0</ele>
        <time>2020-08-16T12:14:14Z</time>
      </trkpt>
      <trkpt lat="51.529198339785" lon="4.458292879794">
        <ele>0</ele>
        <time>2020-08-16T12:14:16Z</time>
      </trkpt>
      <trkpt lat="51.529435044641" lon="4.458977932481">
        <ele>0</ele>
        <time>2020-08-16T12:14:29Z</time>
      </trkpt>
      <trkpt lat="51.529670911307" lon="4.458919091543">
        <ele>0</ele>
        <time>2020-08-16T12:14:35Z</time>
      </trkpt>
      <trkpt lat="51.529780127464" lon="4.458906351055">
        <ele>0</ele>
        <time>2020-08-16T12:14:39Z</time>
      </trkpt>
      <trkpt lat="51.529831843787" lon="4.458858909501">
        <ele>0</ele>
        <time>2020-08-16T12:14:40Z</time>
      </trkpt>
      <trkpt lat="51.529841482972" lon="4.458807612273">
        <ele>0</ele>
        <time>2020-08-16T12:14:42Z</time>
      </trkpt>
      <trkpt lat="51.529879452979" lon="4.458365467048">
        <ele>1.4</ele>
        <time>2020-08-16T12:14:50Z</time>
      </trkpt>
      <trkpt lat="51.529890181811" lon="4.458400251933">
        <ele>1.6</ele>
        <time>2020-08-16T12:14:52Z</time>
      </trkpt>
      <trkpt lat="51.529848859044" lon="4.458798978916">
        <ele>2.2</ele>
        <time>2020-08-16T12:15:01Z</time>
      </trkpt>
      <trkpt lat="51.530389659232" lon="4.459091339588">
        <ele>1.6</ele>
        <time>2020-08-16T12:15:15Z</time>
      </trkpt>
      <trkpt lat="51.530912689792" lon="4.459339024733">
        <ele>0.8</ele>
        <time>2020-08-16T12:15:25Z</time>
      </trkpt>
      <trkpt lat="51.531236650227" lon="4.459513284434">
        <ele>0</ele>
        <time>2020-08-16T12:15:32Z</time>
      </trkpt>
      <trkpt lat="51.531579553756" lon="4.459817295947">
        <ele>0</ele>
        <time>2020-08-16T12:15:40Z</time>
      </trkpt>
      <trkpt lat="51.532030919071" lon="4.460329849132">
        <ele>0</ele>
        <time>2020-08-16T12:15:50Z</time>
      </trkpt>
      <trkpt lat="51.532498545272" lon="4.460834690969">
        <ele>0</ele>
        <time>2020-08-16T12:16:00Z</time>
      </trkpt>
      <trkpt lat="51.532770873203" lon="4.461007441928">
        <ele>0</ele>
        <time>2020-08-16T12:16:06Z</time>
      </trkpt>
      <trkpt lat="51.532792833781" lon="4.461106264529">
        <ele>0</ele>
        <time>2020-08-16T12:16:08Z</time>
      </trkpt>
      <trkpt lat="51.532772381945" lon="4.461328552517">
        <ele>0</ele>
        <time>2020-08-16T12:16:12Z</time>
      </trkpt>
      <trkpt lat="51.53276693371" lon="4.461460902718">
        <ele>0</ele>
        <time>2020-08-16T12:16:14Z</time>
      </trkpt>
      <trkpt lat="51.532730640083" lon="4.461587637046">
        <ele>0</ele>
        <time>2020-08-16T12:16:16Z</time>
      </trkpt>
      <trkpt lat="51.532626536885" lon="4.462461031026">
        <ele>0</ele>
        <time>2020-08-16T12:16:30Z</time>
      </trkpt>
      <trkpt lat="51.532571300164" lon="4.46333157516">
        <ele>0</ele>
        <time>2020-08-16T12:16:41Z</time>
      </trkpt>
      <trkpt lat="51.532544980998" lon="4.464274371272">
        <ele>0</ele>
        <time>2020-08-16T12:16:52Z</time>
      </trkpt>
      <trkpt lat="51.53251715309" lon="4.465214904271">
        <ele>0</ele>
        <time>2020-08-16T12:17:03Z</time>
      </trkpt>
      <trkpt lat="51.53255068069" lon="4.465977657171">
        <ele>0</ele>
        <time>2020-08-16T12:17:14Z</time>
      </trkpt>
      <trkpt lat="51.533089217765" lon="4.46619818496">
        <ele>0</ele>
        <time>2020-08-16T12:17:27Z</time>
      </trkpt>
      <trkpt lat="51.533644183364" lon="4.466429944495">
        <ele>0</ele>
        <time>2020-08-16T12:17:39Z</time>
      </trkpt>
      <trkpt lat="51.533908716128" lon="4.466555421538">
        <ele>0</ele>
        <time>2020-08-16T12:17:46Z</time>
      </trkpt>
      <trkpt lat="51.533914918734" lon="4.466642928574">
        <ele>0</ele>
        <time>2020-08-16T12:17:48Z</time>
      </trkpt>
      <trkpt lat="51.533689026529" lon="4.467428983156">
        <ele>0</ele>
        <time>2020-08-16T12:18:05Z</time>
      </trkpt>
      <trkpt lat="51.533432624208" lon="4.468264490948">
        <ele>0</ele>
        <time>2020-08-16T12:18:17Z</time>
      </trkpt>
      <trkpt lat="51.533235733377" lon="4.468939401536">
        <ele>0</ele>
        <time>2020-08-16T12:18:26Z</time>
      </trkpt>
      <trkpt lat="51.533197008999" lon="4.469088012623">
        <ele>0</ele>
        <time>2020-08-16T12:18:28Z</time>
      </trkpt>
      <trkpt lat="51.532954939727" lon="4.469914384144">
        <ele>0</ele>
        <time>2020-08-16T12:18:39Z</time>
      </trkpt>
      <trkpt lat="51.532714714473" lon="4.470750730126">
        <ele>0</ele>
        <time>2020-08-16T12:18:50Z</time>
      </trkpt>
      <trkpt lat="51.53247105264" lon="4.471586657013">
        <ele>0</ele>
        <time>2020-08-16T12:19:01Z</time>
      </trkpt>
      <trkpt lat="51.532214063586" lon="4.472397019105">
        <ele>0</ele>
        <time>2020-08-16T12:19:12Z</time>
      </trkpt>
      <trkpt lat="51.532060674816" lon="4.472791806595">
        <ele>0</ele>
        <time>2020-08-16T12:19:19Z</time>
      </trkpt>
      <trkpt lat="51.531960930206" lon="4.472761547936">
        <ele>0</ele>
        <time>2020-08-16T12:19:21Z</time>
      </trkpt>
      <trkpt lat="51.531815755698" lon="4.472702790817">
        <ele>0</ele>
        <time>2020-08-16T12:19:24Z</time>
      </trkpt>
      <trkpt lat="51.531730427956" lon="4.472749813276">
        <ele>0</ele>
        <time>2020-08-16T12:19:26Z</time>
      </trkpt>
      <trkpt lat="51.531678711633" lon="4.472891886481">
        <ele>0</ele>
        <time>2020-08-16T12:19:28Z</time>
      </trkpt>
      <trkpt lat="51.531606711112" lon="4.473154910503">
        <ele>0</ele>
        <time>2020-08-16T12:19:32Z</time>
      </trkpt>
      <trkpt lat="51.531541751387" lon="4.47344182294">
        <ele>0</ele>
        <time>2020-08-16T12:19:36Z</time>
      </trkpt>
      <trkpt lat="51.531338071217" lon="4.474249335186">
        <ele>0</ele>
        <time>2020-08-16T12:19:47Z</time>
      </trkpt>
      <trkpt lat="51.531255006588" lon="4.474636746604">
        <ele>0</ele>
        <time>2020-08-16T12:19:52Z</time>
      </trkpt>
      <trkpt lat="51.531202703532" lon="4.474835146177">
        <ele>0</ele>
        <time>2020-08-16T12:19:55Z</time>
      </trkpt>
      <trkpt lat="51.531111424641" lon="4.475018206873">
        <ele>0</ele>
        <time>2020-08-16T12:19:59Z</time>
      </trkpt>
      <trkpt lat="51.530645055725" lon="4.474841935516">
        <ele>0</ele>
        <time>2020-08-16T12:20:09Z</time>
      </trkpt>
      <trkpt lat="51.530121438432" lon="4.47456415935">
        <ele>0</ele>
        <time>2020-08-16T12:20:19Z</time>
      </trkpt>
      <trkpt lat="51.529595809483" lon="4.474258136181">
        <ele>0</ele>
        <time>2020-08-16T12:20:28Z</time>
      </trkpt>
      <trkpt lat="51.529097421709" lon="4.473916406118">
        <ele>0</ele>
        <time>2020-08-16T12:20:37Z</time>
      </trkpt>
      <trkpt lat="51.528571625122" lon="4.473561181196">
        <ele>0</ele>
        <time>2020-08-16T12:20:46Z</time>
      </trkpt>
      <trkpt lat="51.528066867104" lon="4.473229844689">
        <ele>0</ele>
        <time>2020-08-16T12:20:55Z</time>
      </trkpt>
      <trkpt lat="51.527909287384" lon="4.473121969636">
        <ele>0</ele>
        <time>2020-08-16T12:20:58Z</time>
      </trkpt>
      <trkpt lat="51.527776015174" lon="4.472984338838">
        <ele>0</ele>
        <time>2020-08-16T12:21:01Z</time>
      </trkpt>
      <trkpt lat="51.527688005224" lon="4.472993810385">
        <ele>0</ele>
        <time>2020-08-16T12:21:03Z</time>
      </trkpt>
      <trkpt lat="51.527479715009" lon="4.473257169683">
        <ele>0</ele>
        <time>2020-08-16T12:21:11Z</time>
      </trkpt>
      <trkpt lat="51.527444259572" lon="4.473624799817">
        <ele>0</ele>
        <time>2020-08-16T12:25:00Z</time>
      </trkpt>
      <trkpt lat="51.527228341828" lon="4.474424600715">
        <ele>0</ele>
        <time>2020-08-16T12:25:12Z</time>
      </trkpt>
      <trkpt lat="51.527196742065" lon="4.474827686286">
        <ele>0</ele>
        <time>2020-08-16T12:25:23Z</time>
      </trkpt>
      <trkpt lat="51.527047795702" lon="4.475303778206">
        <ele>0</ele>
        <time>2020-08-16T12:25:32Z</time>
      </trkpt>
      <trkpt lat="51.526834476347" lon="4.476133083392">
        <ele>0</ele>
        <time>2020-08-16T12:25:43Z</time>
      </trkpt>
      <trkpt lat="51.526764236025" lon="4.476390323903">
        <ele>0</ele>
        <time>2020-08-16T12:25:46Z</time>
      </trkpt>
      <trkpt lat="51.526715034272" lon="4.476549580003">
        <ele>0</ele>
        <time>2020-08-16T12:25:48Z</time>
      </trkpt>
      <trkpt lat="51.526709166942" lon="4.476713027053">
        <ele>0</ele>
        <time>2020-08-16T12:25:50Z</time>
      </trkpt>
      <trkpt lat="51.526762056731" lon="4.476942355837">
        <ele>0</ele>
        <time>2020-08-16T12:25:53Z</time>
      </trkpt>
      <trkpt lat="51.526759709799" lon="4.477100689928">
        <ele>0</ele>
        <time>2020-08-16T12:25:55Z</time>
      </trkpt>
      <trkpt lat="51.52673615666" lon="4.477335466947">
        <ele>0</ele>
        <time>2020-08-16T12:25:58Z</time>
      </trkpt>
      <trkpt lat="51.52665904318" lon="4.478235347731">
        <ele>0</ele>
        <time>2020-08-16T12:26:09Z</time>
      </trkpt>
      <trkpt lat="51.526566171728" lon="4.479105891865">
        <ele>0.6</ele>
        <time>2020-08-16T12:26:20Z</time>
      </trkpt>
      <trkpt lat="51.526456620295" lon="4.479871243154">
        <ele>1.4</ele>
        <time>2020-08-16T12:26:29Z</time>
      </trkpt>
      <trkpt lat="51.526318570402" lon="4.480728879162">
        <ele>1.8</ele>
        <time>2020-08-16T12:26:41Z</time>
      </trkpt>
      <trkpt lat="51.526217400869" lon="4.481595064708">
        <ele>2.2</ele>
        <time>2020-08-16T12:26:52Z</time>
      </trkpt>
      <trkpt lat="51.526137772819" lon="4.482499806994">
        <ele>2.8</ele>
        <time>2020-08-16T12:27:03Z</time>
      </trkpt>
      <trkpt lat="51.525981366565" lon="4.483384767996">
        <ele>2.6</ele>
        <time>2020-08-16T12:27:18Z</time>
      </trkpt>
      <trkpt lat="51.525999890564" lon="4.483428521514">
        <ele>2.6</ele>
        <time>2020-08-16T12:27:20Z</time>
      </trkpt>
      <trkpt lat="51.526019336572" lon="4.483547376856">
        <ele>2.4</ele>
        <time>2020-08-16T12:27:22Z</time>
      </trkpt>
      <trkpt lat="51.525902241429" lon="4.484477683937">
        <ele>1.2</ele>
        <time>2020-08-16T12:27:33Z</time>
      </trkpt>
      <trkpt lat="51.525791265073" lon="4.485336828687">
        <ele>0.6</ele>
        <time>2020-08-16T12:27:42Z</time>
      </trkpt>
      <trkpt lat="51.525653550456" lon="4.486239559317">
        <ele>0</ele>
        <time>2020-08-16T12:27:52Z</time>
      </trkpt>
      <trkpt lat="51.525512734536" lon="4.487134243323">
        <ele>0</ele>
        <time>2020-08-16T12:28:02Z</time>
      </trkpt>
      <trkpt lat="51.525364458725" lon="4.488054575943">
        <ele>0</ele>
        <time>2020-08-16T12:28:12Z</time>
      </trkpt>
      <trkpt lat="51.525210064127" lon="4.488970885251">
        <ele>0</ele>
        <time>2020-08-16T12:28:22Z</time>
      </trkpt>
      <trkpt lat="51.525081737238" lon="4.489837322254">
        <ele>0</ele>
        <time>2020-08-16T12:28:32Z</time>
      </trkpt>
      <trkpt lat="51.525071846596" lon="4.489994650517">
        <ele>0</ele>
        <time>2020-08-16T12:28:34Z</time>
      </trkpt>
      <trkpt lat="51.52496841395" lon="4.490581551155">
        <ele>0</ele>
        <time>2020-08-16T12:28:42Z</time>
      </trkpt>
      <trkpt lat="51.524841176708" lon="4.491460812465">
        <ele>0</ele>
        <time>2020-08-16T12:28:53Z</time>
      </trkpt>
      <trkpt lat="51.524765404332" lon="4.492336804834">
        <ele>0</ele>
        <time>2020-08-16T12:29:04Z</time>
      </trkpt>
      <trkpt lat="51.524719387701" lon="4.492430095381">
        <ele>0</ele>
        <time>2020-08-16T12:29:06Z</time>
      </trkpt>
      <trkpt lat="51.524627773534" lon="4.49243772291">
        <ele>0</ele>
        <time>2020-08-16T12:29:08Z</time>
      </trkpt>
      <trkpt lat="51.524253018785" lon="4.492398747075">
        <ele>0</ele>
        <time>2020-08-16T12:29:15Z</time>
      </trkpt>
      <trkpt lat="51.524136007461" lon="4.492401596921">
        <ele>0</ele>
        <time>2020-08-16T12:29:17Z</time>
      </trkpt>
      <trkpt lat="51.523557656361" lon="4.492409056812">
        <ele>0</ele>
        <time>2020-08-16T12:29:28Z</time>
      </trkpt>
      <trkpt lat="51.523454978086" lon="4.492391119546">
        <ele>0</ele>
        <time>2020-08-16T12:29:30Z</time>
      </trkpt>
      <trkpt lat="51.52330544499" lon="4.49238994608">
        <ele>0</ele>
        <time>2020-08-16T12:29:32Z</time>
      </trkpt>
      <trkpt lat="51.523259512178" lon="4.492418109264">
        <ele>0</ele>
        <time>2020-08-16T12:29:34Z</time>
      </trkpt>
      <trkpt lat="51.523184494173" lon="4.492491199432">
        <ele>0</ele>
        <time>2020-08-16T12:29:36Z</time>
      </trkpt>
      <trkpt lat="51.523103944114" lon="4.492541323194">
        <ele>0.2</ele>
        <time>2020-08-16T12:29:38Z</time>
      </trkpt>
      <trkpt lat="51.523007468445" lon="4.492540652642">
        <ele>0.4</ele>
        <time>2020-08-16T12:29:40Z</time>
      </trkpt>
      <trkpt lat="51.522420819264" lon="4.492552219664">
        <ele>1.2</ele>
        <time>2020-08-16T12:29:51Z</time>
      </trkpt>
      <trkpt lat="51.521841043241" lon="4.492594045345">
        <ele>1.4</ele>
        <time>2020-08-16T12:30:01Z</time>
      </trkpt>
      <trkpt lat="51.521269816756" lon="4.492693706136">
        <ele>1</ele>
        <time>2020-08-16T12:30:12Z</time>
      </trkpt>
      <trkpt lat="51.521162528436" lon="4.492707284814">
        <ele>1</ele>
        <time>2020-08-16T12:30:14Z</time>
      </trkpt>
      <trkpt lat="51.520610245045" lon="4.492761599526">
        <ele>1.4</ele>
        <time>2020-08-16T12:30:24Z</time>
      </trkpt>
      <trkpt lat="51.520072127065" lon="4.492813818763">
        <ele>1.2</ele>
        <time>2020-08-16T12:30:34Z</time>
      </trkpt>
      <trkpt lat="51.519631993496" lon="4.492944157308">
        <ele>2</ele>
        <time>2020-08-16T12:30:42Z</time>
      </trkpt>
      <trkpt lat="51.519286240121" lon="4.493188489693">
        <ele>2.6</ele>
        <time>2020-08-16T12:30:51Z</time>
      </trkpt>
      <trkpt lat="51.5191555663" lon="4.493162421984">
        <ele>3.4</ele>
        <time>2020-08-16T12:30:54Z</time>
      </trkpt>
      <trkpt lat="51.518589871869" lon="4.493364174317">
        <ele>4.8</ele>
        <time>2020-08-16T12:31:05Z</time>
      </trkpt>
      <trkpt lat="51.518051753889" lon="4.493583444821">
        <ele>6</ele>
        <time>2020-08-16T12:31:14Z</time>
      </trkpt>
      <trkpt lat="51.51750097924" lon="4.493844121911">
        <ele>6.4</ele>
        <time>2020-08-16T12:31:23Z</time>
      </trkpt>
      <trkpt lat="51.516973254816" lon="4.494077557826">
        <ele>6.8</ele>
        <time>2020-08-16T12:31:32Z</time>
      </trkpt>
      <trkpt lat="51.516431364981" lon="4.494289787534">
        <ele>5.8</ele>
        <time>2020-08-16T12:31:43Z</time>
      </trkpt>
      <trkpt lat="51.516298847142" lon="4.494326919351">
        <ele>5.8</ele>
        <time>2020-08-16T12:31:50Z</time>
      </trkpt>
      <trkpt lat="51.516254339253" lon="4.494253493907">
        <ele>6.4</ele>
        <time>2020-08-16T12:36:36Z</time>
      </trkpt>
      <trkpt lat="51.516391970051" lon="4.493355876236">
        <ele>6.8</ele>
        <time>2020-08-16T12:36:52Z</time>
      </trkpt>
      <trkpt lat="51.516550723237" lon="4.492522631557">
        <ele>6.4</ele>
        <time>2020-08-16T12:37:02Z</time>
      </trkpt>
      <trkpt lat="51.516697741763" lon="4.49166155897">
        <ele>6.2</ele>
        <time>2020-08-16T12:37:11Z</time>
      </trkpt>
      <trkpt lat="51.516863619564" lon="4.490745082024">
        <ele>5</ele>
        <time>2020-08-16T12:37:20Z</time>
      </trkpt>
      <trkpt lat="51.517019355266" lon="4.489910663879">
        <ele>4.2</ele>
        <time>2020-08-16T12:37:28Z</time>
      </trkpt>
      <trkpt lat="51.517152376019" lon="4.489066690368">
        <ele>2.8</ele>
        <time>2020-08-16T12:37:38Z</time>
      </trkpt>
      <trkpt lat="51.517127649414" lon="4.488989241612">
        <ele>2</ele>
        <time>2020-08-16T12:37:43Z</time>
      </trkpt>
      <trkpt lat="51.516550052685" lon="4.48898689468">
        <ele>0</ele>
        <time>2020-08-16T12:37:58Z</time>
      </trkpt>
      <trkpt lat="51.515968265006" lon="4.489160232372">
        <ele>0</ele>
        <time>2020-08-16T12:38:09Z</time>
      </trkpt>
      <trkpt lat="51.515540788106" lon="4.489302221758">
        <ele>0</ele>
        <time>2020-08-16T12:38:25Z</time>
      </trkpt>
      <trkpt lat="51.516108913288" lon="4.489162998399">
        <ele>0</ele>
        <time>2020-08-16T12:38:38Z</time>
      </trkpt>
      <trkpt lat="51.516158869412" lon="4.489145983142">
        <ele>0</ele>
        <time>2020-08-16T12:38:39Z</time>
      </trkpt>
      <trkpt lat="51.516735041218" lon="4.489001563005">
        <ele>0</ele>
        <time>2020-08-16T12:38:50Z</time>
      </trkpt>
      <trkpt lat="51.516846855764" lon="4.489002485014">
        <ele>0</ele>
        <time>2020-08-16T12:38:52Z</time>
      </trkpt>
      <trkpt lat="51.517089176493" lon="4.489185629529">
        <ele>0</ele>
        <time>2020-08-16T12:38:59Z</time>
      </trkpt>
      <trkpt lat="51.516953054437" lon="4.490042846442">
        <ele>0</ele>
        <time>2020-08-16T12:39:11Z</time>
      </trkpt>
      <trkpt lat="51.516823554082" lon="4.490924538503">
        <ele>0</ele>
        <time>2020-08-16T12:39:22Z</time>
      </trkpt>
      <trkpt lat="51.516672512244" lon="4.491817713767">
        <ele>0</ele>
        <time>2020-08-16T12:39:33Z</time>
      </trkpt>
      <trkpt lat="51.51652532608" lon="4.492711391945">
        <ele>0</ele>
        <time>2020-08-16T12:39:44Z</time>
      </trkpt>
      <trkpt lat="51.516394736078" lon="4.493587049038">
        <ele>0</ele>
        <time>2020-08-16T12:39:55Z</time>
      </trkpt>
      <trkpt lat="51.516264146076" lon="4.494434123852">
        <ele>1.4</ele>
        <time>2020-08-16T12:40:05Z</time>
      </trkpt>
      <trkpt lat="51.516247549914" lon="4.495334339912">
        <ele>2</ele>
        <time>2020-08-16T12:40:15Z</time>
      </trkpt>
      <trkpt lat="51.516251740864" lon="4.496267245382">
        <ele>2.2</ele>
        <time>2020-08-16T12:40:26Z</time>
      </trkpt>
      <trkpt lat="51.516241095851" lon="4.496343436853">
        <ele>2.4</ele>
        <time>2020-08-16T12:40:27Z</time>
      </trkpt>
      <trkpt lat="51.516257608194" lon="4.496538399847">
        <ele>2.8</ele>
        <time>2020-08-16T12:40:31Z</time>
      </trkpt>
      <trkpt lat="51.516380905943" lon="4.496768902097">
        <ele>3.8</ele>
        <time>2020-08-16T12:40:37Z</time>
      </trkpt>
      <trkpt lat="51.516404961996" lon="4.496912484044">
        <ele>3.8</ele>
        <time>2020-08-16T12:40:39Z</time>
      </trkpt>
      <trkpt lat="51.516494815964" lon="4.497804737299">
        <ele>2.8</ele>
        <time>2020-08-16T12:40:50Z</time>
      </trkpt>
      <trkpt lat="51.516552483436" lon="4.498674862338">
        <ele>1.6</ele>
        <time>2020-08-16T12:41:00Z</time>
      </trkpt>
      <trkpt lat="51.516632698219" lon="4.499573066742">
        <ele>0</ele>
        <time>2020-08-16T12:41:10Z</time>
      </trkpt>
      <trkpt lat="51.516708302957" lon="4.50043657008">
        <ele>0</ele>
        <time>2020-08-16T12:41:20Z</time>
      </trkpt>
      <trkpt lat="51.51676169566" lon="4.501375510518">
        <ele>0</ele>
        <time>2020-08-16T12:41:30Z</time>
      </trkpt>
      <trkpt lat="51.516808550481" lon="4.502186878438">
        <ele>0</ele>
        <time>2020-08-16T12:41:42Z</time>
      </trkpt>
      <trkpt lat="51.516712326269" lon="4.503031019587">
        <ele>0</ele>
        <time>2020-08-16T12:43:40Z</time>
      </trkpt>
      <trkpt lat="51.51674912281" lon="4.503910699992">
        <ele>0</ele>
        <time>2020-08-16T12:43:53Z</time>
      </trkpt>
      <trkpt lat="51.516799581848" lon="4.504840252702">
        <ele>0</ele>
        <time>2020-08-16T12:44:04Z</time>
      </trkpt>
      <trkpt lat="51.516802264056" lon="4.50492507753">
        <ele>0</ele>
        <time>2020-08-16T12:44:05Z</time>
      </trkpt>
      <trkpt lat="51.516854064198" lon="4.505819845355">
        <ele>0</ele>
        <time>2020-08-16T12:44:15Z</time>
      </trkpt>
      <trkpt lat="51.516937883198" lon="4.506737831043">
        <ele>0</ele>
        <time>2020-08-16T12:44:25Z</time>
      </trkpt>
      <trkpt lat="51.517036454342" lon="4.507621450941">
        <ele>0</ele>
        <time>2020-08-16T12:44:35Z</time>
      </trkpt>
      <trkpt lat="51.517144916128" lon="4.508537760249">
        <ele>0</ele>
        <time>2020-08-16T12:44:45Z</time>
      </trkpt>
      <trkpt lat="51.5172444931" lon="4.509394893343">
        <ele>0</ele>
        <time>2020-08-16T12:44:54Z</time>
      </trkpt>
      <trkpt lat="51.517349518307" lon="4.510300641457">
        <ele>0</ele>
        <time>2020-08-16T12:45:04Z</time>
      </trkpt>
      <trkpt lat="51.517441635388" lon="4.511197840033">
        <ele>0</ele>
        <time>2020-08-16T12:45:14Z</time>
      </trkpt>
      <trkpt lat="51.517597622547" lon="4.512432326265">
        <ele>0</ele>
        <time>2020-08-16T12:45:27Z</time>
      </trkpt>
      <trkpt lat="51.517694265854" lon="4.51328267002">
        <ele>0</ele>
        <time>2020-08-16T12:45:36Z</time>
      </trkpt>
      <trkpt lat="51.517823766209" lon="4.514197302948">
        <ele>0</ele>
        <time>2020-08-16T12:45:46Z</time>
      </trkpt>
      <trkpt lat="51.517922169715" lon="4.51511076241">
        <ele>0</ele>
        <time>2020-08-16T12:45:56Z</time>
      </trkpt>
      <trkpt lat="51.517941950999" lon="4.515380743409">
        <ele>0</ele>
        <time>2020-08-16T12:45:59Z</time>
      </trkpt>
      <trkpt lat="51.517993918779" lon="4.516282468211">
        <ele>0.2</ele>
        <time>2020-08-16T12:46:09Z</time>
      </trkpt>
      <trkpt lat="51.518065416386" lon="4.517212440016">
        <ele>0</ele>
        <time>2020-08-16T12:46:20Z</time>
      </trkpt>
      <trkpt lat="51.518076145218" lon="4.518106034375">
        <ele>0</ele>
        <time>2020-08-16T12:46:31Z</time>
      </trkpt>
      <trkpt lat="51.518082096367" lon="4.518423540747">
        <ele>0</ele>
        <time>2020-08-16T12:46:35Z</time>
      </trkpt>
      <trkpt lat="51.518110594827" lon="4.518739873653">
        <ele>0</ele>
        <time>2020-08-16T12:46:39Z</time>
      </trkpt>
      <trkpt lat="51.518112606483" lon="4.519635395849">
        <ele>0</ele>
        <time>2020-08-16T12:46:50Z</time>
      </trkpt>
      <trkpt lat="51.51811788708" lon="4.52051457334">
        <ele>0</ele>
        <time>2020-08-16T12:47:00Z</time>
      </trkpt>
      <trkpt lat="51.518161724417" lon="4.521427194612">
        <ele>0.2</ele>
        <time>2020-08-16T12:47:11Z</time>
      </trkpt>
      <trkpt lat="51.518142529866" lon="4.52236781143">
        <ele>0.2</ele>
        <time>2020-08-16T12:47:22Z</time>
      </trkpt>
      <trkpt lat="51.518087963697" lon="4.523262411617">
        <ele>0.6</ele>
        <time>2020-08-16T12:47:33Z</time>
      </trkpt>
      <trkpt lat="51.518025518542" lon="4.524152066483">
        <ele>1.6</ele>
        <time>2020-08-16T12:47:44Z</time>
      </trkpt>
      <trkpt lat="51.517751178955" lon="4.524983131868">
        <ele>3</ele>
        <time>2020-08-16T12:47:57Z</time>
      </trkpt>
      <trkpt lat="51.517435013687" lon="4.525768515898">
        <ele>3</ele>
        <time>2020-08-16T12:48:08Z</time>
      </trkpt>
      <trkpt lat="51.517203840885" lon="4.526556582136">
        <ele>4</ele>
        <time>2020-08-16T12:48:19Z</time>
      </trkpt>
      <trkpt lat="51.516974176825" lon="4.527341295614">
        <ele>5</ele>
        <time>2020-08-16T12:48:30Z</time>
      </trkpt>
      <trkpt lat="51.516756834158" lon="4.528148472584">
        <ele>5.6</ele>
        <time>2020-08-16T12:48:40Z</time>
      </trkpt>
      <trkpt lat="51.516544269174" lon="4.528948860215">
        <ele>6.4</ele>
        <time>2020-08-16T12:49:18Z</time>
      </trkpt>
      <trkpt lat="51.516512082678" lon="4.529127981418">
        <ele>7.2</ele>
        <time>2020-08-16T12:49:25Z</time>
      </trkpt>
      <trkpt lat="51.516271522148" lon="4.529966255237">
        <ele>7.6</ele>
        <time>2020-08-16T12:49:40Z</time>
      </trkpt>
      <trkpt lat="51.516147470028" lon="4.530803690866">
        <ele>7.4</ele>
        <time>2020-08-16T12:49:53Z</time>
      </trkpt>
      <trkpt lat="51.516560697698" lon="4.531399392499">
        <ele>5.6</ele>
        <time>2020-08-16T12:50:06Z</time>
      </trkpt>
      <trkpt lat="51.516640912481" lon="4.531547249215">
        <ele>5.2</ele>
        <time>2020-08-16T12:50:09Z</time>
      </trkpt>
      <trkpt lat="51.516887256522" lon="4.535727302745">
        <ele>0</ele>
        <time>2020-08-16T12:51:17Z</time>
      </trkpt>
      <trkpt lat="51.516930255669" lon="4.536350077915">
        <ele>0</ele>
        <time>2020-08-16T12:51:25Z</time>
      </trkpt>
      <trkpt lat="51.516945510727" lon="4.536916610536">
        <ele>0</ele>
        <time>2020-08-16T12:51:33Z</time>
      </trkpt>
      <trkpt lat="51.516982223449" lon="4.538279926571">
        <ele>0</ele>
        <time>2020-08-16T12:52:00Z</time>
      </trkpt>
      <trkpt lat="51.517149693811" lon="4.538647808162">
        <ele>0</ele>
        <time>2020-08-16T12:52:05Z</time>
      </trkpt>
      <trkpt lat="51.517392936549" lon="4.539199756277">
        <ele>0</ele>
        <time>2020-08-16T12:52:15Z</time>
      </trkpt>
      <trkpt lat="51.518915592503" lon="4.543356005211">
        <ele>0</ele>
        <time>2020-08-16T12:53:33Z</time>
      </trkpt>
      <trkpt lat="51.518350233348" lon="4.543412331579">
        <ele>0</ele>
        <time>2020-08-16T12:53:47Z</time>
      </trkpt>
      <trkpt lat="51.517802224726" lon="4.543468741766">
        <ele>0</ele>
        <time>2020-08-16T12:54:00Z</time>
      </trkpt>
      <trkpt lat="51.517728883101" lon="4.5434843321">
        <ele>0</ele>
        <time>2020-08-16T12:54:02Z</time>
      </trkpt>
      <trkpt lat="51.517664258652" lon="4.543885154558">
        <ele>0</ele>
        <time>2020-08-16T12:54:11Z</time>
      </trkpt>
      <trkpt lat="51.517776408474" lon="4.544549084857">
        <ele>0</ele>
        <time>2020-08-16T12:54:21Z</time>
      </trkpt>
      <trkpt lat="51.518005821077" lon="4.545379228233">
        <ele>0</ele>
        <time>2020-08-16T12:54:33Z</time>
      </trkpt>
      <trkpt lat="51.518217044957" lon="4.546243234485">
        <ele>0</ele>
        <time>2020-08-16T12:54:46Z</time>
      </trkpt>
      <trkpt lat="51.518494821123" lon="4.54704161046">
        <ele>0</ele>
        <time>2020-08-16T12:54:56Z</time>
      </trkpt>
      <trkpt lat="51.518570425861" lon="4.54741879596">
        <ele>0</ele>
        <time>2020-08-16T12:55:14Z</time>
      </trkpt>
      <trkpt lat="51.518291224772" lon="4.547523904986">
        <ele>0</ele>
        <time>2020-08-16T12:55:22Z</time>
      </trkpt>
      <trkpt lat="51.517710862016" lon="4.547680646516">
        <ele>0</ele>
        <time>2020-08-16T12:55:33Z</time>
      </trkpt>
      <trkpt lat="51.517174168959" lon="4.547817271486">
        <ele>0</ele>
        <time>2020-08-16T12:55:42Z</time>
      </trkpt>
      <trkpt lat="51.516600260266" lon="4.547974767387">
        <ele>0</ele>
        <time>2020-08-16T12:55:51Z</time>
      </trkpt>
      <trkpt lat="51.516059208621" lon="4.548081301336">
        <ele>0</ele>
        <time>2020-08-16T12:56:00Z</time>
      </trkpt>
      <trkpt lat="51.515471888888" lon="4.548218261582">
        <ele>0</ele>
        <time>2020-08-16T12:56:10Z</time>
      </trkpt>
      <trkpt lat="51.514929328501" lon="4.548321610409">
        <ele>2.2</ele>
        <time>2020-08-16T12:56:18Z</time>
      </trkpt>
      <trkpt lat="51.514354833075" lon="4.548442980321">
        <ele>3.4</ele>
        <time>2020-08-16T12:56:26Z</time>
      </trkpt>
      <trkpt lat="51.513791653214" lon="4.548553956677">
        <ele>3.8</ele>
        <time>2020-08-16T12:56:35Z</time>
      </trkpt>
      <trkpt lat="51.513598115143" lon="4.548621095696">
        <ele>4.2</ele>
        <time>2020-08-16T12:56:40Z</time>
      </trkpt>
      <trkpt lat="51.51362518868" lon="4.548817651251">
        <ele>4.2</ele>
        <time>2020-08-16T12:56:43Z</time>
      </trkpt>
      <trkpt lat="51.513831634877" lon="4.54968442353">
        <ele>4.6</ele>
        <time>2020-08-16T12:56:53Z</time>
      </trkpt>
      <trkpt lat="51.514037494341" lon="4.550550189981">
        <ele>5</ele>
        <time>2020-08-16T12:57:02Z</time>
      </trkpt>
      <trkpt lat="51.514256261931" lon="4.551406820161">
        <ele>5.6</ele>
        <time>2020-08-16T12:57:11Z</time>
      </trkpt>
      <trkpt lat="51.514466647621" lon="4.552246686541">
        <ele>5.8</ele>
        <time>2020-08-16T12:57:20Z</time>
      </trkpt>
      <trkpt lat="51.514635123811" lon="4.553083032523">
        <ele>6</ele>
        <time>2020-08-16T12:57:29Z</time>
      </trkpt>
      <trkpt lat="51.514826147312" lon="4.553978722357">
        <ele>6</ele>
        <time>2020-08-16T12:57:39Z</time>
      </trkpt>
      <trkpt lat="51.515045585454" lon="4.55485102669">
        <ele>6</ele>
        <time>2020-08-16T12:57:49Z</time>
      </trkpt>
      <trkpt lat="51.515139546553" lon="4.555143890276">
        <ele>6.2</ele>
        <time>2020-08-16T12:57:53Z</time>
      </trkpt>
      <trkpt lat="51.515511702913" lon="4.555828691506">
        <ele>6</ele>
        <time>2020-08-16T12:58:04Z</time>
      </trkpt>
      <trkpt lat="51.515802051929" lon="4.556071934244">
        <ele>6.4</ele>
        <time>2020-08-16T12:58:11Z</time>
      </trkpt>
      <trkpt lat="51.51637445188" lon="4.556191376319">
        <ele>5.4</ele>
        <time>2020-08-16T12:58:23Z</time>
      </trkpt>
      <trkpt lat="51.516450475713" lon="4.556292126757">
        <ele>4.8</ele>
        <time>2020-08-16T12:58:25Z</time>
      </trkpt>
      <trkpt lat="51.516477213974" lon="4.556462614603">
        <ele>4.4</ele>
        <time>2020-08-16T12:58:27Z</time>
      </trkpt>
      <trkpt lat="51.516564050458" lon="4.557360148455">
        <ele>3.2</ele>
        <time>2020-08-16T12:58:37Z</time>
      </trkpt>
      <trkpt lat="51.516647366544" lon="4.558273691736">
        <ele>2.2</ele>
        <time>2020-08-16T12:58:48Z</time>
      </trkpt>
      <trkpt lat="51.516719031789" lon="4.559235179485">
        <ele>1.4</ele>
        <time>2020-08-16T12:58:58Z</time>
      </trkpt>
      <trkpt lat="51.516784159152" lon="4.559674977778">
        <ele>0.8</ele>
        <time>2020-08-16T12:59:07Z</time>
      </trkpt>
      <trkpt lat="51.516888094712" lon="4.56057251163">
        <ele>2.2</ele>
        <time>2020-08-16T12:59:18Z</time>
      </trkpt>
      <trkpt lat="51.516954227903" lon="4.561487479834">
        <ele>2.4</ele>
        <time>2020-08-16T12:59:28Z</time>
      </trkpt>
      <trkpt lat="51.517032682487" lon="4.562442010606">
        <ele>2.8</ele>
        <time>2020-08-16T12:59:38Z</time>
      </trkpt>
      <trkpt lat="51.517116585306" lon="4.56330920198">
        <ele>2</ele>
        <time>2020-08-16T12:59:47Z</time>
      </trkpt>
      <trkpt lat="51.517191351854" lon="4.564194498258">
        <ele>2</ele>
        <time>2020-08-16T12:59:57Z</time>
      </trkpt>
      <trkpt lat="51.517266872773" lon="4.565056409035">
        <ele>1.8</ele>
        <time>2020-08-16T13:00:07Z</time>
      </trkpt>
      <trkpt lat="51.517337280733" lon="4.566003060821">
        <ele>1.6</ele>
        <time>2020-08-16T13:00:18Z</time>
      </trkpt>
      <trkpt lat="51.517417746973" lon="4.566928338762">
        <ele>2.2</ele>
        <time>2020-08-16T13:00:29Z</time>
      </trkpt>
      <trkpt lat="51.517496033919" lon="4.567848671382">
        <ele>2.6</ele>
        <time>2020-08-16T13:00:40Z</time>
      </trkpt>
      <trkpt lat="51.5175797691" lon="4.568772943495">
        <ele>2.4</ele>
        <time>2020-08-16T13:00:51Z</time>
      </trkpt>
      <trkpt lat="51.517670796534" lon="4.569693024658">
        <ele>3</ele>
        <time>2020-08-16T13:01:02Z</time>
      </trkpt>
      <trkpt lat="51.517744808711" lon="4.570589301225">
        <ele>4</ele>
        <time>2020-08-16T13:01:13Z</time>
      </trkpt>
      <trkpt lat="51.517815803404" lon="4.571458001341">
        <ele>4.2</ele>
        <time>2020-08-16T13:01:23Z</time>
      </trkpt>
      <trkpt lat="51.517888893572" lon="4.572360061419">
        <ele>4.2</ele>
        <time>2020-08-16T13:01:33Z</time>
      </trkpt>
      <trkpt lat="51.517960894093" lon="4.573297325477">
        <ele>4</ele>
        <time>2020-08-16T13:01:45Z</time>
      </trkpt>
      <trkpt lat="51.517963324844" lon="4.573973912445">
        <ele>4.2</ele>
        <time>2020-08-16T13:01:57Z</time>
      </trkpt>
      <trkpt lat="51.517482371422" lon="4.574368867573">
        <ele>5.4</ele>
        <time>2020-08-16T13:02:11Z</time>
      </trkpt>
      <trkpt lat="51.516973673911" lon="4.574705652315">
        <ele>5.2</ele>
        <time>2020-08-16T13:02:21Z</time>
      </trkpt>
      <trkpt lat="51.516468496798" lon="4.575116700691">
        <ele>5.8</ele>
        <time>2020-08-16T13:02:31Z</time>
      </trkpt>
      <trkpt lat="51.51636858455" lon="4.575182750063">
        <ele>6</ele>
        <time>2020-08-16T13:02:32Z</time>
      </trkpt>
      <trkpt lat="51.516087958538" lon="4.575308227106">
        <ele>6</ele>
        <time>2020-08-16T13:02:39Z</time>
      </trkpt>
      <trkpt lat="51.515603484718" lon="4.575725729545">
        <ele>5</ele>
        <time>2020-08-16T13:02:50Z</time>
      </trkpt>
      <trkpt lat="51.515520587727" lon="4.575818600997">
        <ele>4.8</ele>
        <time>2020-08-16T13:02:52Z</time>
      </trkpt>
      <trkpt lat="51.515180953139" lon="4.576118505379">
        <ele>4</ele>
        <time>2020-08-16T13:03:00Z</time>
      </trkpt>
      <trkpt lat="51.514674518741" lon="4.576455206302">
        <ele>2.8</ele>
        <time>2020-08-16T13:03:11Z</time>
      </trkpt>
      <trkpt lat="51.514135814028" lon="4.576833062354">
        <ele>1.8</ele>
        <time>2020-08-16T13:03:21Z</time>
      </trkpt>
      <trkpt lat="51.513752174465" lon="4.577081753327">
        <ele>1.4</ele>
        <time>2020-08-16T13:03:28Z</time>
      </trkpt>
      <trkpt lat="51.513219420901" lon="4.57751233153">
        <ele>1.2</ele>
        <time>2020-08-16T13:03:38Z</time>
      </trkpt>
      <trkpt lat="51.512744167171" lon="4.57791633911">
        <ele>1.4</ele>
        <time>2020-08-16T13:03:48Z</time>
      </trkpt>
      <trkpt lat="51.512210240141" lon="4.578323531812">
        <ele>2.6</ele>
        <time>2020-08-16T13:03:58Z</time>
      </trkpt>
      <trkpt lat="51.511679498233" lon="4.578675906888">
        <ele>3.4</ele>
        <time>2020-08-16T13:04:07Z</time>
      </trkpt>
      <trkpt lat="51.511134758552" lon="4.579086368531">
        <ele>2.6</ele>
        <time>2020-08-16T13:04:15Z</time>
      </trkpt>
      <trkpt lat="51.51060519011" lon="4.579452406104">
        <ele>2</ele>
        <time>2020-08-16T13:04:23Z</time>
      </trkpt>
      <trkpt lat="51.510108646354" lon="4.579843254101">
        <ele>2</ele>
        <time>2020-08-16T13:04:30Z</time>
      </trkpt>
      <trkpt lat="51.509572791487" lon="4.58027584396">
        <ele>2.6</ele>
        <time>2020-08-16T13:04:40Z</time>
      </trkpt>
      <trkpt lat="51.509037607172" lon="4.580696447702">
        <ele>3.8</ele>
        <time>2020-08-16T13:04:49Z</time>
      </trkpt>
      <trkpt lat="51.508495549699" lon="4.581070615718">
        <ele>3</ele>
        <time>2020-08-16T13:04:58Z</time>
      </trkpt>
      <trkpt lat="51.507989534396" lon="4.581440844241">
        <ele>3.2</ele>
        <time>2020-08-16T13:05:07Z</time>
      </trkpt>
      <trkpt lat="51.507459546859" lon="4.581814425524">
        <ele>2.6</ele>
        <time>2020-08-16T13:05:17Z</time>
      </trkpt>
      <trkpt lat="51.506951436081" lon="4.582194879965">
        <ele>3</ele>
        <time>2020-08-16T13:05:27Z</time>
      </trkpt>
      <trkpt lat="51.506463106587" lon="4.582575921139">
        <ele>3.6</ele>
        <time>2020-08-16T13:05:37Z</time>
      </trkpt>
      <trkpt lat="51.50593982457" lon="4.582986215144">
        <ele>4.8</ele>
        <time>2020-08-16T13:05:48Z</time>
      </trkpt>
      <trkpt lat="51.505439928054" lon="4.583350995432">
        <ele>5.6</ele>
        <time>2020-08-16T13:05:59Z</time>
      </trkpt>
      <trkpt lat="51.504924105928" lon="4.583674369134">
        <ele>5.6</ele>
        <time>2020-08-16T13:06:10Z</time>
      </trkpt>
      <trkpt lat="51.50440174592" lon="4.584065468588">
        <ele>5</ele>
        <time>2020-08-16T13:06:21Z</time>
      </trkpt>
      <trkpt lat="51.503910650399" lon="4.584462854467">
        <ele>5.8</ele>
        <time>2020-08-16T13:06:31Z</time>
      </trkpt>
      <trkpt lat="51.50338502145" lon="4.584816738285">
        <ele>5.6</ele>
        <time>2020-08-16T13:06:41Z</time>
      </trkpt>
      <trkpt lat="51.502864673098" lon="4.585173136673">
        <ele>5.4</ele>
        <time>2020-08-16T13:06:51Z</time>
      </trkpt>
      <trkpt lat="51.502329069688" lon="4.585576725158">
        <ele>5.2</ele>
        <time>2020-08-16T13:07:02Z</time>
      </trkpt>
      <trkpt lat="51.501797154314" lon="4.585988947">
        <ele>6</ele>
        <time>2020-08-16T13:07:12Z</time>
      </trkpt>
      <trkpt lat="51.501281667464" lon="4.586376023142">
        <ele>6.4</ele>
        <time>2020-08-16T13:07:22Z</time>
      </trkpt>
      <trkpt lat="51.500782944414" lon="4.586723620535">
        <ele>6.2</ele>
        <time>2020-08-16T13:07:31Z</time>
      </trkpt>
      <trkpt lat="51.500252034868" lon="4.587062249295">
        <ele>5.6</ele>
        <time>2020-08-16T13:07:41Z</time>
      </trkpt>
      <trkpt lat="51.499703271875" lon="4.587429627972">
        <ele>4.8</ele>
        <time>2020-08-16T13:07:52Z</time>
      </trkpt>
      <trkpt lat="51.499190802509" lon="4.587866827876">
        <ele>4.2</ele>
        <time>2020-08-16T13:08:02Z</time>
      </trkpt>
      <trkpt lat="51.498656288746" lon="4.588260022805">
        <ele>3.4</ele>
        <time>2020-08-16T13:08:12Z</time>
      </trkpt>
      <trkpt lat="51.498155134945" lon="4.588621534152">
        <ele>3</ele>
        <time>2020-08-16T13:08:21Z</time>
      </trkpt>
      <trkpt lat="51.497644593416" lon="4.589014393805">
        <ele>3.2</ele>
        <time>2020-08-16T13:08:30Z</time>
      </trkpt>
      <trkpt lat="51.497163388537" lon="4.589424436353">
        <ele>2.6</ele>
        <time>2020-08-16T13:08:39Z</time>
      </trkpt>
      <trkpt lat="51.496668269704" lon="4.589840010955">
        <ele>2.6</ele>
        <time>2020-08-16T13:08:49Z</time>
      </trkpt>
      <trkpt lat="51.496575733528" lon="4.589916872978">
        <ele>2.6</ele>
        <time>2020-08-16T13:08:51Z</time>
      </trkpt>
      <trkpt lat="51.496314218248" lon="4.590244102354">
        <ele>2.8</ele>
        <time>2020-08-16T13:08:57Z</time>
      </trkpt>
      <trkpt lat="51.496256131681" lon="4.590391623794">
        <ele>3</ele>
        <time>2020-08-16T13:08:59Z</time>
      </trkpt>
      <trkpt lat="51.496133504484" lon="4.591238614789">
        <ele>3</ele>
        <time>2020-08-16T13:09:09Z</time>
      </trkpt>
      <trkpt lat="51.495984474302" lon="4.592092059847">
        <ele>2.6</ele>
        <time>2020-08-16T13:09:20Z</time>
      </trkpt>
      <trkpt lat="51.495902750777" lon="4.592952210425">
        <ele>2.8</ele>
        <time>2020-08-16T13:09:31Z</time>
      </trkpt>
      <trkpt lat="51.495814824646" lon="4.593807667139">
        <ele>3.2</ele>
        <time>2020-08-16T13:09:41Z</time>
      </trkpt>
      <trkpt lat="51.495752630948" lon="4.594668320631">
        <ele>3.6</ele>
        <time>2020-08-16T13:09:51Z</time>
      </trkpt>
      <trkpt lat="51.495651796691" lon="4.595588820889">
        <ele>3.6</ele>
        <time>2020-08-16T13:10:02Z</time>
      </trkpt>
      <trkpt lat="51.495559428153" lon="4.596509656423">
        <ele>4.2</ele>
        <time>2020-08-16T13:10:12Z</time>
      </trkpt>
      <trkpt lat="51.49544568577" lon="4.597369471725">
        <ele>4.4</ele>
        <time>2020-08-16T13:10:21Z</time>
      </trkpt>
      <trkpt lat="51.495347198445" lon="4.598301203729">
        <ele>5</ele>
        <time>2020-08-16T13:10:31Z</time>
      </trkpt>
      <trkpt lat="51.495251812423" lon="4.599205443101">
        <ele>4.8</ele>
        <time>2020-08-16T13:10:41Z</time>
      </trkpt>
      <trkpt lat="51.495157013134" lon="4.600059977806">
        <ele>4.6</ele>
        <time>2020-08-16T13:10:51Z</time>
      </trkpt>
      <trkpt lat="51.495064141682" lon="4.600935886356">
        <ele>4.8</ele>
        <time>2020-08-16T13:11:01Z</time>
      </trkpt>
      <trkpt lat="51.494975964094" lon="4.601814896209">
        <ele>4.8</ele>
        <time>2020-08-16T13:11:11Z</time>
      </trkpt>
      <trkpt lat="51.494924750685" lon="4.602137683178">
        <ele>5</ele>
        <time>2020-08-16T13:11:15Z</time>
      </trkpt>
      <trkpt lat="51.494873369638" lon="4.602276319804">
        <ele>5</ele>
        <time>2020-08-16T13:11:17Z</time>
      </trkpt>
      <trkpt lat="51.494503895486" lon="4.602960953396">
        <ele>4.2</ele>
        <time>2020-08-16T13:11:28Z</time>
      </trkpt>
      <trkpt lat="51.494137103542" lon="4.603683054081">
        <ele>4.4</ele>
        <time>2020-08-16T13:11:41Z</time>
      </trkpt>
      <trkpt lat="51.494078681699" lon="4.603788330745">
        <ele>4.2</ele>
        <time>2020-08-16T13:11:43Z</time>
      </trkpt>
      <trkpt lat="51.493927975137" lon="4.604095862656">
        <ele>4.2</ele>
        <time>2020-08-16T13:11:48Z</time>
      </trkpt>
      <trkpt lat="51.493866619629" lon="4.604226787934">
        <ele>4.2</ele>
        <time>2020-08-16T13:11:50Z</time>
      </trkpt>
      <trkpt lat="51.493487506292" lon="4.60494629023">
        <ele>4.8</ele>
        <time>2020-08-16T13:12:01Z</time>
      </trkpt>
      <trkpt lat="51.493125408212" lon="4.605637377885">
        <ele>5.4</ele>
        <time>2020-08-16T13:12:11Z</time>
      </trkpt>
      <trkpt lat="51.492760711743" lon="4.606302733107">
        <ele>5.6</ele>
        <time>2020-08-16T13:12:21Z</time>
      </trkpt>
      <trkpt lat="51.492621656022" lon="4.606466347795">
        <ele>5.4</ele>
        <time>2020-08-16T13:12:24Z</time>
      </trkpt>
      <trkpt lat="51.492068450622" lon="4.606782848339">
        <ele>4</ele>
        <time>2020-08-16T13:12:34Z</time>
      </trkpt>
      <trkpt lat="51.491494877205" lon="4.606964316474">
        <ele>2.4</ele>
        <time>2020-08-16T13:12:44Z</time>
      </trkpt>
      <trkpt lat="51.490958603243" lon="4.607138911451">
        <ele>1.6</ele>
        <time>2020-08-16T13:12:53Z</time>
      </trkpt>
      <trkpt lat="51.490412187182" lon="4.607274698231">
        <ele>0.2</ele>
        <time>2020-08-16T13:13:03Z</time>
      </trkpt>
      <trkpt lat="51.489884462758" lon="4.607456417823">
        <ele>0</ele>
        <time>2020-08-16T13:13:12Z</time>
      </trkpt>
      <trkpt lat="51.489298148853" lon="4.607617015027">
        <ele>0</ele>
        <time>2020-08-16T13:13:22Z</time>
      </trkpt>
      <trkpt lat="51.488734046983" lon="4.607896467573">
        <ele>0</ele>
        <time>2020-08-16T13:13:31Z</time>
      </trkpt>
      <trkpt lat="51.488158042815" lon="4.608037618769">
        <ele>0</ele>
        <time>2020-08-16T13:13:40Z</time>
      </trkpt>
      <trkpt lat="51.487574997851" lon="4.608245489889">
        <ele>0</ele>
        <time>2020-08-16T13:13:48Z</time>
      </trkpt>
      <trkpt lat="51.487074095507" lon="4.608531564136">
        <ele>0</ele>
        <time>2020-08-16T13:13:58Z</time>
      </trkpt>
      <trkpt lat="51.486545449074" lon="4.608692915711">
        <ele>0</ele>
        <time>2020-08-16T13:14:07Z</time>
      </trkpt>
      <trkpt lat="51.486385941517" lon="4.608831552337">
        <ele>0</ele>
        <time>2020-08-16T13:14:10Z</time>
      </trkpt>
      <trkpt lat="51.485938264238" lon="4.609423733572">
        <ele>0</ele>
        <time>2020-08-16T13:14:20Z</time>
      </trkpt>
      <trkpt lat="51.485873220694" lon="4.609520879793">
        <ele>0</ele>
        <time>2020-08-16T13:14:22Z</time>
      </trkpt>
      <trkpt lat="51.485787892952" lon="4.609680722626">
        <ele>0</ele>
        <time>2020-08-16T13:14:25Z</time>
      </trkpt>
      <trkpt lat="51.485370809608" lon="4.610252116749">
        <ele>0</ele>
        <time>2020-08-16T13:14:37Z</time>
      </trkpt>
      <trkpt lat="51.484970406245" lon="4.610842789242">
        <ele>0</ele>
        <time>2020-08-16T13:14:48Z</time>
      </trkpt>
      <trkpt lat="51.484848952514" lon="4.610997854392">
        <ele>0</ele>
        <time>2020-08-16T13:14:51Z</time>
      </trkpt>
      <trkpt lat="51.484397671018" lon="4.611509820844">
        <ele>0</ele>
        <time>2020-08-16T13:15:01Z</time>
      </trkpt>
      <trkpt lat="51.483971619041" lon="4.612147012882">
        <ele>0</ele>
        <time>2020-08-16T13:15:11Z</time>
      </trkpt>
      <trkpt lat="51.483677833446" lon="4.612602904423">
        <ele>0</ele>
        <time>2020-08-16T13:15:18Z</time>
      </trkpt>
      <trkpt lat="51.483261253016" lon="4.613204054291">
        <ele>0</ele>
        <time>2020-08-16T13:15:28Z</time>
      </trkpt>
      <trkpt lat="51.482818856334" lon="4.613716104562">
        <ele>0</ele>
        <time>2020-08-16T13:15:37Z</time>
      </trkpt>
      <trkpt lat="51.482385595923" lon="4.61436000212">
        <ele>0</ele>
        <time>2020-08-16T13:15:47Z</time>
      </trkpt>
      <trkpt lat="51.481951916417" lon="4.615016723985">
        <ele>0</ele>
        <time>2020-08-16T13:15:57Z</time>
      </trkpt>
      <trkpt lat="51.48152586444" lon="4.615668919624">
        <ele>0</ele>
        <time>2020-08-16T13:16:07Z</time>
      </trkpt>
      <trkpt lat="51.481129652027" lon="4.616254479158">
        <ele>0</ele>
        <time>2020-08-16T13:16:16Z</time>
      </trkpt>
      <trkpt lat="51.480705611706" lon="4.616881780554">
        <ele>0</ele>
        <time>2020-08-16T13:16:25Z</time>
      </trkpt>
      <trkpt lat="51.479969010334" lon="4.617966230776">
        <ele>0</ele>
        <time>2020-08-16T13:16:40Z</time>
      </trkpt>
      <trkpt lat="51.479530469326" lon="4.618591520516">
        <ele>0</ele>
        <time>2020-08-16T13:16:49Z</time>
      </trkpt>
      <trkpt lat="51.479117828389" lon="4.619220498292">
        <ele>0</ele>
        <time>2020-08-16T13:16:58Z</time>
      </trkpt>
      <trkpt lat="51.478768135521" lon="4.619893900138">
        <ele>0</ele>
        <time>2020-08-16T13:17:07Z</time>
      </trkpt>
      <trkpt lat="51.47850418949" lon="4.620734353251">
        <ele>0</ele>
        <time>2020-08-16T13:17:16Z</time>
      </trkpt>
      <trkpt lat="51.478313501265" lon="4.621547146094">
        <ele>0.4</ele>
        <time>2020-08-16T13:17:25Z</time>
      </trkpt>
      <trkpt lat="51.478149048387" lon="4.622462701031">
        <ele>0.6</ele>
        <time>2020-08-16T13:17:35Z</time>
      </trkpt>
      <trkpt lat="51.477852748222" lon="4.623199805317">
        <ele>1</ele>
        <time>2020-08-16T13:17:44Z</time>
      </trkpt>
      <trkpt lat="51.477542953198" lon="4.623754687097">
        <ele>1</ele>
        <time>2020-08-16T13:17:52Z</time>
      </trkpt>
      <trkpt lat="51.477486543011" lon="4.623989045021">
        <ele>0.4</ele>
        <time>2020-08-16T13:17:55Z</time>
      </trkpt>
      <trkpt lat="51.477167863173" lon="4.624779625829">
        <ele>0.6</ele>
        <time>2020-08-16T13:18:04Z</time>
      </trkpt>
      <trkpt lat="51.476918920743" lon="4.625593256862">
        <ele>1</ele>
        <time>2020-08-16T13:18:12Z</time>
      </trkpt>
      <trkpt lat="51.476890170826" lon="4.625695851318">
        <ele>1</ele>
        <time>2020-08-16T13:18:13Z</time>
      </trkpt>
      <trkpt lat="51.476783972153" lon="4.625978321348">
        <ele>0.8</ele>
        <time>2020-08-16T13:18:16Z</time>
      </trkpt>
      <trkpt lat="51.476716581677" lon="4.626388699172">
        <ele>1</ele>
        <time>2020-08-16T13:18:24Z</time>
      </trkpt>
      <trkpt lat="51.476670984141" lon="4.626572765696">
        <ele>1.2</ele>
        <time>2020-08-16T13:19:57Z</time>
      </trkpt>
      <trkpt lat="51.476499155191" lon="4.627396119733">
        <ele>1.4</ele>
        <time>2020-08-16T13:20:09Z</time>
      </trkpt>
      <trkpt lat="51.476255912453" lon="4.628384094286">
        <ele>1.4</ele>
        <time>2020-08-16T13:20:19Z</time>
      </trkpt>
      <trkpt lat="51.476063883124" lon="4.629227564883">
        <ele>1.2</ele>
        <time>2020-08-16T13:20:29Z</time>
      </trkpt>
      <trkpt lat="51.47588149298" lon="4.630079249742">
        <ele>0.8</ele>
        <time>2020-08-16T13:20:38Z</time>
      </trkpt>
      <trkpt lat="51.475707065641" lon="4.630914589896">
        <ele>0.8</ele>
        <time>2020-08-16T13:20:47Z</time>
      </trkpt>
      <trkpt lat="51.475578738752" lon="4.631757222303">
        <ele>0.4</ele>
        <time>2020-08-16T13:20:56Z</time>
      </trkpt>
      <trkpt lat="51.47557974458" lon="4.63269959932">
        <ele>0.2</ele>
        <time>2020-08-16T13:21:05Z</time>
      </trkpt>
      <trkpt lat="51.475684015416" lon="4.6336149028">
        <ele>0</ele>
        <time>2020-08-16T13:21:14Z</time>
      </trkpt>
      <trkpt lat="51.475853329796" lon="4.63452182438">
        <ele>0</ele>
        <time>2020-08-16T13:21:23Z</time>
      </trkpt>
      <trkpt lat="51.476011663887" lon="4.635408461762">
        <ele>0</ele>
        <time>2020-08-16T13:21:32Z</time>
      </trkpt>
      <trkpt lat="51.47618910871" lon="4.63625184854">
        <ele>0.2</ele>
        <time>2020-08-16T13:21:41Z</time>
      </trkpt>
      <trkpt lat="51.476313412287" lon="4.637114932783">
        <ele>0.2</ele>
        <time>2020-08-16T13:21:50Z</time>
      </trkpt>
      <trkpt lat="51.476456407501" lon="4.637959576846">
        <ele>0</ele>
        <time>2020-08-16T13:21:59Z</time>
      </trkpt>
      <trkpt lat="51.476616334153" lon="4.638871611385">
        <ele>0.2</ele>
        <time>2020-08-16T13:22:09Z</time>
      </trkpt>
      <trkpt lat="51.476755222236" lon="4.639708041186">
        <ele>0</ele>
        <time>2020-08-16T13:22:19Z</time>
      </trkpt>
      <trkpt lat="51.476917160544" lon="4.640617225879">
        <ele>0</ele>
        <time>2020-08-16T13:22:30Z</time>
      </trkpt>
      <trkpt lat="51.476938702027" lon="4.640783187499">
        <ele>0</ele>
        <time>2020-08-16T13:22:32Z</time>
      </trkpt>
      <trkpt lat="51.476948089755" lon="4.641024753857">
        <ele>0.2</ele>
        <time>2020-08-16T13:22:35Z</time>
      </trkpt>
      <trkpt lat="51.476913137232" lon="4.64139917333">
        <ele>0.6</ele>
        <time>2020-08-16T13:22:40Z</time>
      </trkpt>
      <trkpt lat="51.476877933252" lon="4.641765965274">
        <ele>1.6</ele>
        <time>2020-08-16T13:22:48Z</time>
      </trkpt>
      <trkpt lat="51.47703232785" lon="4.641316443977">
        <ele>2.4</ele>
        <time>2020-08-16T13:22:56Z</time>
      </trkpt>
      <trkpt lat="51.477129054976" lon="4.641085774089">
        <ele>2.8</ele>
        <time>2020-08-16T13:23:02Z</time>
      </trkpt>
      <trkpt lat="51.477101981439" lon="4.641054174326">
        <ele>2.8</ele>
        <time>2020-08-16T13:23:05Z</time>
      </trkpt>
      <trkpt lat="51.477093934815" lon="4.64112340882">
        <ele>3</ele>
        <time>2020-08-16T13:23:07Z</time>
      </trkpt>
      <trkpt lat="51.477282527565" lon="4.642001496664">
        <ele>2.6</ele>
        <time>2020-08-16T13:23:22Z</time>
      </trkpt>
      <trkpt lat="51.477447567176" lon="4.642865083821">
        <ele>3.6</ele>
        <time>2020-08-16T13:23:32Z</time>
      </trkpt>
      <trkpt lat="51.477623419438" lon="4.64374694352">
        <ele>3.2</ele>
        <time>2020-08-16T13:23:42Z</time>
      </trkpt>
      <trkpt lat="51.477864734339" lon="4.64453568031">
        <ele>3.2</ele>
        <time>2020-08-16T13:23:50Z</time>
      </trkpt>
      <trkpt lat="51.478151898233" lon="4.645312095707">
        <ele>3.2</ele>
        <time>2020-08-16T13:24:00Z</time>
      </trkpt>
      <trkpt lat="51.478432524245" lon="4.646079123376">
        <ele>2.4</ele>
        <time>2020-08-16T13:24:09Z</time>
      </trkpt>
      <trkpt lat="51.47870954604" lon="4.646846989235">
        <ele>1.6</ele>
        <time>2020-08-16T13:24:18Z</time>
      </trkpt>
      <trkpt lat="51.479031159543" lon="4.647625667745">
        <ele>2</ele>
        <time>2020-08-16T13:24:28Z</time>
      </trkpt>
      <trkpt lat="51.479304744759" lon="4.648431419792">
        <ele>2.2</ele>
        <time>2020-08-16T13:24:38Z</time>
      </trkpt>
      <trkpt lat="51.479538180674" lon="4.649296767148">
        <ele>2.6</ele>
        <time>2020-08-16T13:24:48Z</time>
      </trkpt>
      <trkpt lat="51.479732389297" lon="4.650109140896">
        <ele>2.8</ele>
        <time>2020-08-16T13:24:57Z</time>
      </trkpt>
      <trkpt lat="51.479935650372" lon="4.650927549612">
        <ele>2.8</ele>
        <time>2020-08-16T13:25:07Z</time>
      </trkpt>
      <trkpt lat="51.47999281493" lon="4.651154615283">
        <ele>2.2</ele>
        <time>2020-08-16T13:25:10Z</time>
      </trkpt>
      <trkpt lat="51.48000706416" lon="4.651360726204">
        <ele>1.8</ele>
        <time>2020-08-16T13:25:13Z</time>
      </trkpt>
      <trkpt lat="51.479484620333" lon="4.651568010591">
        <ele>0</ele>
        <time>2020-08-16T13:25:28Z</time>
      </trkpt>
      <trkpt lat="51.479330225735" lon="4.65167202997">
        <ele>0</ele>
        <time>2020-08-16T13:25:32Z</time>
      </trkpt>
      <trkpt lat="51.479233582428" lon="4.651997163871">
        <ele>0</ele>
        <time>2020-08-16T13:25:38Z</time>
      </trkpt>
      <trkpt lat="51.479440531539" lon="4.65286309796">
        <ele>0</ele>
        <time>2020-08-16T13:25:50Z</time>
      </trkpt>
      <trkpt lat="51.479457127701" lon="4.653023778983">
        <ele>0</ele>
        <time>2020-08-16T13:25:52Z</time>
      </trkpt>
      <trkpt lat="51.479434664209" lon="4.653189740603">
        <ele>0</ele>
        <time>2020-08-16T13:25:54Z</time>
      </trkpt>
      <trkpt lat="51.479411697803" lon="4.653336172396">
        <ele>0</ele>
        <time>2020-08-16T13:25:56Z</time>
      </trkpt>
      <trkpt lat="51.479435250942" lon="4.653480341076">
        <ele>0</ele>
        <time>2020-08-16T13:25:58Z</time>
      </trkpt>
      <trkpt lat="51.479600458191" lon="4.653891473271">
        <ele>0</ele>
        <time>2020-08-16T13:26:04Z</time>
      </trkpt>
      <trkpt lat="51.479579251984" lon="4.654133374905">
        <ele>0</ele>
        <time>2020-08-16T13:26:07Z</time>
      </trkpt>
      <trkpt lat="51.479494008061" lon="4.654230018212">
        <ele>0</ele>
        <time>2020-08-16T13:26:09Z</time>
      </trkpt>
      <trkpt lat="51.479352521589" lon="4.654347448631">
        <ele>0</ele>
        <time>2020-08-16T13:26:12Z</time>
      </trkpt>
      <trkpt lat="51.479137358216" lon="4.65455959452">
        <ele>0</ele>
        <time>2020-08-16T13:26:17Z</time>
      </trkpt>
      <trkpt lat="51.479088910834" lon="4.654675516197">
        <ele>0</ele>
        <time>2020-08-16T13:26:19Z</time>
      </trkpt>
      <trkpt lat="51.479098717657" lon="4.654797053747">
        <ele>0</ele>
        <time>2020-08-16T13:26:21Z</time>
      </trkpt>
      <trkpt lat="51.479096119268" lon="4.654987322877">
        <ele>0</ele>
        <time>2020-08-16T13:26:24Z</time>
      </trkpt>
      <trkpt lat="51.479037529787" lon="4.65507424318">
        <ele>0</ele>
        <time>2020-08-16T13:26:26Z</time>
      </trkpt>
      <trkpt lat="51.478955470986" lon="4.655099556518">
        <ele>0</ele>
        <time>2020-08-16T13:26:28Z</time>
      </trkpt>
      <trkpt lat="51.478874585651" lon="4.655122774381">
        <ele>0</ele>
        <time>2020-08-16T13:26:30Z</time>
      </trkpt>
      <trkpt lat="51.478436379919" lon="4.65567103446">
        <ele>0</ele>
        <time>2020-08-16T13:26:44Z</time>
      </trkpt>
      <trkpt lat="51.47791242735" lon="4.656042687906">
        <ele>0.4</ele>
        <time>2020-08-16T13:27:03Z</time>
      </trkpt>
      <trkpt lat="51.477694581769" lon="4.656428003849">
        <ele>1.6</ele>
        <time>2020-08-16T13:27:11Z</time>
      </trkpt>
      <trkpt lat="51.477635405555" lon="4.656545601906">
        <ele>1.6</ele>
        <time>2020-08-16T13:27:13Z</time>
      </trkpt>
      <trkpt lat="51.477471455591" lon="4.656787419721">
        <ele>1.8</ele>
        <time>2020-08-16T13:27:17Z</time>
      </trkpt>
      <trkpt lat="51.476932247964" lon="4.657217830286">
        <ele>1.2</ele>
        <time>2020-08-16T13:27:26Z</time>
      </trkpt>
      <trkpt lat="51.476478619536" lon="4.657686546134">
        <ele>0</ele>
        <time>2020-08-16T13:27:34Z</time>
      </trkpt>
      <trkpt lat="51.47624694382" lon="4.657941607351">
        <ele>0</ele>
        <time>2020-08-16T13:27:38Z</time>
      </trkpt>
      <trkpt lat="51.476110235031" lon="4.658148640281">
        <ele>0</ele>
        <time>2020-08-16T13:27:41Z</time>
      </trkpt>
      <trkpt lat="51.476098500371" lon="4.658267327985">
        <ele>0</ele>
        <time>2020-08-16T13:27:43Z</time>
      </trkpt>
      <trkpt lat="51.476431177982" lon="4.659008790859">
        <ele>0</ele>
        <time>2020-08-16T13:27:55Z</time>
      </trkpt>
      <trkpt lat="51.476525977271" lon="4.659258403841">
        <ele>0</ele>
        <time>2020-08-16T13:27:59Z</time>
      </trkpt>
      <trkpt lat="51.476506363625" lon="4.659366278894">
        <ele>0</ele>
        <time>2020-08-16T13:28:01Z</time>
      </trkpt>
      <trkpt lat="51.476021135434" lon="4.659744889317">
        <ele>0</ele>
        <time>2020-08-16T13:28:14Z</time>
      </trkpt>
      <trkpt lat="51.475906219585" lon="4.659869192894">
        <ele>0</ele>
        <time>2020-08-16T13:28:17Z</time>
      </trkpt>
      <trkpt lat="51.475385871233" lon="4.660322737503">
        <ele>0</ele>
        <time>2020-08-16T13:28:29Z</time>
      </trkpt>
      <trkpt lat="51.474878431007" lon="4.660656504761">
        <ele>0</ele>
        <time>2020-08-16T13:28:39Z</time>
      </trkpt>
      <trkpt lat="51.47468874861" lon="4.66077728794">
        <ele>0</ele>
        <time>2020-08-16T13:28:43Z</time>
      </trkpt>
      <trkpt lat="51.474254063276" lon="4.661103008574">
        <ele>0</ele>
        <time>2020-08-16T13:28:52Z</time>
      </trkpt>
      <trkpt lat="51.474128921509" lon="4.66131037678">
        <ele>0</ele>
        <time>2020-08-16T13:28:55Z</time>
      </trkpt>
      <trkpt lat="51.473903280761" lon="4.662137502672">
        <ele>0</ele>
        <time>2020-08-16T13:29:08Z</time>
      </trkpt>
      <trkpt lat="51.473811498956" lon="4.662494571612">
        <ele>0</ele>
        <time>2020-08-16T13:29:14Z</time>
      </trkpt>
      <trkpt lat="51.473757687158" lon="4.662608984547">
        <ele>0</ele>
        <time>2020-08-16T13:29:16Z</time>
      </trkpt>
      <trkpt lat="51.473373209405" lon="4.663243410558">
        <ele>0</ele>
        <time>2020-08-16T13:29:29Z</time>
      </trkpt>
      <trkpt lat="51.473163661905" lon="4.663503668553">
        <ele>0</ele>
        <time>2020-08-16T13:29:36Z</time>
      </trkpt>
      <trkpt lat="51.473369605188" lon="4.664042121809">
        <ele>0</ele>
        <time>2020-08-16T13:29:47Z</time>
      </trkpt>
      <trkpt lat="51.473786772351" lon="4.66468828248">
        <ele>0</ele>
        <time>2020-08-16T13:29:59Z</time>
      </trkpt>
      <trkpt lat="51.47421265669" lon="4.665064043057">
        <ele>0</ele>
        <time>2020-08-16T13:30:08Z</time>
      </trkpt>
      <trkpt lat="51.474271246171" lon="4.665201003303">
        <ele>0</ele>
        <time>2020-08-16T13:30:10Z</time>
      </trkpt>
      <trkpt lat="51.474258840959" lon="4.665374676271">
        <ele>0</ele>
        <time>2020-08-16T13:30:12Z</time>
      </trkpt>
      <trkpt lat="51.473899089811" lon="4.666216470488">
        <ele>0</ele>
        <time>2020-08-16T13:30:22Z</time>
      </trkpt>
      <trkpt lat="51.473633132124" lon="4.666800688918">
        <ele>0</ele>
        <time>2020-08-16T13:30:47Z</time>
      </trkpt>
      <trkpt lat="51.473598933972" lon="4.66688098752">
        <ele>0</ele>
        <time>2020-08-16T13:30:50Z</time>
      </trkpt>
      <trkpt lat="51.473866400401" lon="4.667272086974">
        <ele>0</ele>
        <time>2020-08-16T13:31:00Z</time>
      </trkpt>
      <trkpt lat="51.474352131506" lon="4.66774180865">
        <ele>0</ele>
        <time>2020-08-16T13:31:10Z</time>
      </trkpt>
      <trkpt lat="51.474879688292" lon="4.668196191449">
        <ele>0</ele>
        <time>2020-08-16T13:31:20Z</time>
      </trkpt>
      <trkpt lat="51.475387296156" lon="4.668613610069">
        <ele>0</ele>
        <time>2020-08-16T13:31:29Z</time>
      </trkpt>
      <trkpt lat="51.475912338372" lon="4.669023904074">
        <ele>0.2</ele>
        <time>2020-08-16T13:31:38Z</time>
      </trkpt>
      <trkpt lat="51.475964892885" lon="4.669065897393">
        <ele>0.4</ele>
        <time>2020-08-16T13:31:39Z</time>
      </trkpt>
      <trkpt lat="51.476058937803" lon="4.669177544301">
        <ele>0.4</ele>
        <time>2020-08-16T13:31:41Z</time>
      </trkpt>
      <trkpt lat="51.476100344389" lon="4.669360688816">
        <ele>0.6</ele>
        <time>2020-08-16T13:31:43Z</time>
      </trkpt>
      <trkpt lat="51.476108474832" lon="4.669552550507">
        <ele>1</ele>
        <time>2020-08-16T13:31:45Z</time>
      </trkpt>
      <trkpt lat="51.476066984427" lon="4.669732593719">
        <ele>1.2</ele>
        <time>2020-08-16T13:31:47Z</time>
      </trkpt>
      <trkpt lat="51.475786442234" lon="4.670460813191">
        <ele>1.4</ele>
        <time>2020-08-16T13:31:56Z</time>
      </trkpt>
      <trkpt lat="51.475720392862" lon="4.670593498668">
        <ele>1.2</ele>
        <time>2020-08-16T13:31:58Z</time>
      </trkpt>
      <trkpt lat="51.475461727428" lon="4.671358179405">
        <ele>1.6</ele>
        <time>2020-08-16T13:32:07Z</time>
      </trkpt>
      <trkpt lat="51.475195183008" lon="4.672159572864">
        <ele>1.8</ele>
        <time>2020-08-16T13:32:16Z</time>
      </trkpt>
      <trkpt lat="51.474741051666" lon="4.673578796172">
        <ele>0.6</ele>
        <time>2020-08-16T13:32:31Z</time>
      </trkpt>
      <trkpt lat="51.474457240532" lon="4.674421177122">
        <ele>0</ele>
        <time>2020-08-16T13:32:40Z</time>
      </trkpt>
      <trkpt lat="51.474422958561" lon="4.674507762149">
        <ele>0</ele>
        <time>2020-08-16T13:32:41Z</time>
      </trkpt>
      <trkpt lat="51.474258589502" lon="4.674813198585">
        <ele>0</ele>
        <time>2020-08-16T13:32:45Z</time>
      </trkpt>
      <trkpt lat="51.473998247688" lon="4.675064320309">
        <ele>0</ele>
        <time>2020-08-16T13:32:50Z</time>
      </trkpt>
      <trkpt lat="51.473679400212" lon="4.675141769065">
        <ele>0</ele>
        <time>2020-08-16T13:32:55Z</time>
      </trkpt>
      <trkpt lat="51.473126949183" lon="4.675126178731">
        <ele>0</ele>
        <time>2020-08-16T13:33:04Z</time>
      </trkpt>
      <trkpt lat="51.472968363635" lon="4.675119808487">
        <ele>0</ele>
        <time>2020-08-16T13:33:07Z</time>
      </trkpt>
      <trkpt lat="51.472871636509" lon="4.67507764753">
        <ele>0</ele>
        <time>2020-08-16T13:33:09Z</time>
      </trkpt>
      <trkpt lat="51.472735095358" lon="4.674991733055">
        <ele>0</ele>
        <time>2020-08-16T13:33:12Z</time>
      </trkpt>
      <trkpt lat="51.472620263328" lon="4.675077563711">
        <ele>0</ele>
        <time>2020-08-16T13:33:15Z</time>
      </trkpt>
      <trkpt lat="51.472596374913" lon="4.675213601948">
        <ele>0</ele>
        <time>2020-08-16T13:33:17Z</time>
      </trkpt>
      <trkpt lat="51.472606097917" lon="4.675379898844">
        <ele>0</ele>
        <time>2020-08-16T13:33:19Z</time>
      </trkpt>
      <trkpt lat="51.472625208649" lon="4.675552482165">
        <ele>0</ele>
        <time>2020-08-16T13:33:21Z</time>
      </trkpt>
      <trkpt lat="51.472602242243" lon="4.675733279748">
        <ele>0</ele>
        <time>2020-08-16T13:33:23Z</time>
      </trkpt>
      <trkpt lat="51.472442231772" lon="4.676593849421">
        <ele>0</ele>
        <time>2020-08-16T13:33:32Z</time>
      </trkpt>
      <trkpt lat="51.472273755582" lon="4.677448384126">
        <ele>0</ele>
        <time>2020-08-16T13:33:41Z</time>
      </trkpt>
      <trkpt lat="51.472116008224" lon="4.678348181091">
        <ele>0</ele>
        <time>2020-08-16T13:33:52Z</time>
      </trkpt>
      <trkpt lat="51.471956584486" lon="4.679253342472">
        <ele>0</ele>
        <time>2020-08-16T13:34:02Z</time>
      </trkpt>
      <trkpt lat="51.471866730518" lon="4.680109469738">
        <ele>0</ele>
        <time>2020-08-16T13:34:11Z</time>
      </trkpt>
      <trkpt lat="51.471911238407" lon="4.681009685798">
        <ele>0</ele>
        <time>2020-08-16T13:34:20Z</time>
      </trkpt>
      <trkpt lat="51.47191433971" lon="4.681399025053">
        <ele>0</ele>
        <time>2020-08-16T13:34:24Z</time>
      </trkpt>
      <trkpt lat="51.471885422155" lon="4.681762715694">
        <ele>0</ele>
        <time>2020-08-16T13:34:28Z</time>
      </trkpt>
      <trkpt lat="51.471790622866" lon="4.682088603966">
        <ele>0</ele>
        <time>2020-08-16T13:34:32Z</time>
      </trkpt>
      <trkpt lat="51.471347387994" lon="4.682700817942">
        <ele>0</ele>
        <time>2020-08-16T13:34:43Z</time>
      </trkpt>
      <trkpt lat="51.470820753217" lon="4.682937019884">
        <ele>0</ele>
        <time>2020-08-16T13:34:53Z</time>
      </trkpt>
      <trkpt lat="51.470280539762" lon="4.682986892189">
        <ele>0</ele>
        <time>2020-08-16T13:35:03Z</time>
      </trkpt>
      <trkpt lat="51.469739907212" lon="4.683100886029">
        <ele>0</ele>
        <time>2020-08-16T13:35:16Z</time>
      </trkpt>
      <trkpt lat="51.46923045533" lon="4.683488800361">
        <ele>0</ele>
        <time>2020-08-16T13:35:35Z</time>
      </trkpt>
      <trkpt lat="51.468743886035" lon="4.683990876171">
        <ele>0.8</ele>
        <time>2020-08-16T13:35:46Z</time>
      </trkpt>
      <trkpt lat="51.468295789661" lon="4.684569646366">
        <ele>0.2</ele>
        <time>2020-08-16T13:35:56Z</time>
      </trkpt>
      <trkpt lat="51.467863954173" lon="4.685149841484">
        <ele>0</ele>
        <time>2020-08-16T13:36:06Z</time>
      </trkpt>
      <trkpt lat="51.467437064006" lon="4.685713188983">
        <ele>0</ele>
        <time>2020-08-16T13:36:16Z</time>
      </trkpt>
      <trkpt lat="51.467000953749" lon="4.686262790166">
        <ele>0</ele>
        <time>2020-08-16T13:36:26Z</time>
      </trkpt>
      <trkpt lat="51.466560652542" lon="4.686839045791">
        <ele>0</ele>
        <time>2020-08-16T13:36:35Z</time>
      </trkpt>
      <trkpt lat="51.466121440982" lon="4.687427036076">
        <ele>0</ele>
        <time>2020-08-16T13:36:45Z</time>
      </trkpt>
      <trkpt lat="51.465685246906" lon="4.687996418543">
        <ele>0</ele>
        <time>2020-08-16T13:36:55Z</time>
      </trkpt>
      <trkpt lat="51.465238659274" lon="4.688586336665">
        <ele>0</ele>
        <time>2020-08-16T13:37:07Z</time>
      </trkpt>
      <trkpt lat="51.464823587586" lon="4.689234089897">
        <ele>0</ele>
        <time>2020-08-16T13:37:19Z</time>
      </trkpt>
      <trkpt lat="51.464426117888" lon="4.689909503399">
        <ele>0</ele>
        <time>2020-08-16T13:37:30Z</time>
      </trkpt>
      <trkpt lat="51.464048932388" lon="4.69054225303">
        <ele>0</ele>
        <time>2020-08-16T13:37:40Z</time>
      </trkpt>
      <trkpt lat="51.463656827106" lon="4.691196795601">
        <ele>0</ele>
        <time>2020-08-16T13:37:50Z</time>
      </trkpt>
      <trkpt lat="51.463269080412" lon="4.691840693159">
        <ele>0</ele>
        <time>2020-08-16T13:38:00Z</time>
      </trkpt>
      <trkpt lat="51.462877142768" lon="4.69249607392">
        <ele>0</ele>
        <time>2020-08-16T13:38:10Z</time>
      </trkpt>
      <trkpt lat="51.462475063025" lon="4.693139384745">
        <ele>0</ele>
        <time>2020-08-16T13:38:20Z</time>
      </trkpt>
      <trkpt lat="51.462071809816" lon="4.693748497418">
        <ele>0</ele>
        <time>2020-08-16T13:38:33Z</time>
      </trkpt>
      <trkpt lat="51.461674256299" lon="4.694421480169">
        <ele>0.2</ele>
        <time>2020-08-16T13:38:46Z</time>
      </trkpt>
      <trkpt lat="51.461310146563" lon="4.695067557021">
        <ele>0</ele>
        <time>2020-08-16T13:38:54Z</time>
      </trkpt>
      <trkpt lat="51.460900858386" lon="4.695744563084">
        <ele>0</ele>
        <time>2020-08-16T13:39:03Z</time>
      </trkpt>
      <trkpt lat="51.460527193284" lon="4.696415701817">
        <ele>0</ele>
        <time>2020-08-16T13:39:12Z</time>
      </trkpt>
      <trkpt lat="51.460223684685" lon="4.697170240455">
        <ele>0</ele>
        <time>2020-08-16T13:39:21Z</time>
      </trkpt>
      <trkpt lat="51.459941969026" lon="4.697951936449">
        <ele>0</ele>
        <time>2020-08-16T13:39:30Z</time>
      </trkpt>
      <trkpt lat="51.459693613329" lon="4.698720640498">
        <ele>0</ele>
        <time>2020-08-16T13:39:40Z</time>
      </trkpt>
      <trkpt lat="51.459400498286" lon="4.699533014246">
        <ele>0</ele>
        <time>2020-08-16T13:39:51Z</time>
      </trkpt>
      <trkpt lat="51.459111490374" lon="4.700282607563">
        <ele>0</ele>
        <time>2020-08-16T13:40:01Z</time>
      </trkpt>
      <trkpt lat="51.458814352019" lon="4.701061788987">
        <ele>0</ele>
        <time>2020-08-16T13:40:11Z</time>
      </trkpt>
      <trkpt lat="51.458539928613" lon="4.701805095879">
        <ele>0</ele>
        <time>2020-08-16T13:40:20Z</time>
      </trkpt>
      <trkpt lat="51.458256452755" lon="4.702623756052">
        <ele>0</ele>
        <time>2020-08-16T13:40:30Z</time>
      </trkpt>
      <trkpt lat="51.45803978064" lon="4.703446942451">
        <ele>0</ele>
        <time>2020-08-16T13:40:40Z</time>
      </trkpt>
      <trkpt lat="51.457821180688" lon="4.704256466353">
        <ele>0</ele>
        <time>2020-08-16T13:40:49Z</time>
      </trkpt>
      <trkpt lat="51.457601994003" lon="4.705059117097">
        <ele>0</ele>
        <time>2020-08-16T13:40:58Z</time>
      </trkpt>
      <trkpt lat="51.45738850701" lon="4.705899654029">
        <ele>0</ele>
        <time>2020-08-16T13:41:08Z</time>
      </trkpt>
      <trkpt lat="51.457168398316" lon="4.706734239812">
        <ele>0</ele>
        <time>2020-08-16T13:41:18Z</time>
      </trkpt>
      <trkpt lat="51.456941919378" lon="4.707552313252">
        <ele>0</ele>
        <time>2020-08-16T13:41:28Z</time>
      </trkpt>
      <trkpt lat="51.456727678014" lon="4.708390587071">
        <ele>0</ele>
        <time>2020-08-16T13:41:38Z</time>
      </trkpt>
      <trkpt lat="51.456515867401" lon="4.709235734048">
        <ele>0.6</ele>
        <time>2020-08-16T13:41:49Z</time>
      </trkpt>
      <trkpt lat="51.456279497821" lon="4.710026063399">
        <ele>1.2</ele>
        <time>2020-08-16T13:41:59Z</time>
      </trkpt>
      <trkpt lat="51.456069866502" lon="4.710825696659">
        <ele>1.8</ele>
        <time>2020-08-16T13:42:08Z</time>
      </trkpt>
      <trkpt lat="51.455844225754" lon="4.711625497557">
        <ele>1.8</ele>
        <time>2020-08-16T13:42:17Z</time>
      </trkpt>
      <trkpt lat="51.455621434852" lon="4.712490928732">
        <ele>2.4</ele>
        <time>2020-08-16T13:42:27Z</time>
      </trkpt>
      <trkpt lat="51.455395375009" lon="4.713317216434">
        <ele>2.6</ele>
        <time>2020-08-16T13:42:36Z</time>
      </trkpt>
      <trkpt lat="51.455159592162" lon="4.714190694233">
        <ele>3.2</ele>
        <time>2020-08-16T13:42:45Z</time>
      </trkpt>
      <trkpt lat="51.45493512488" lon="4.71502410655">
        <ele>3.2</ele>
        <time>2020-08-16T13:42:53Z</time>
      </trkpt>
      <trkpt lat="51.454719458593" lon="4.715834803918">
        <ele>2.8</ele>
        <time>2020-08-16T13:43:01Z</time>
      </trkpt>
      <trkpt lat="51.454509743455" lon="4.716576685887">
        <ele>3</ele>
        <time>2020-08-16T13:43:09Z</time>
      </trkpt>
      <trkpt lat="51.45445400382" lon="4.716742982783">
        <ele>3</ele>
        <time>2020-08-16T13:43:11Z</time>
      </trkpt>
      <trkpt lat="51.454230290909" lon="4.71761076089">
        <ele>3.8</ele>
        <time>2020-08-16T13:43:21Z</time>
      </trkpt>
      <trkpt lat="51.453999788659" lon="4.718432019452">
        <ele>4.6</ele>
        <time>2020-08-16T13:43:31Z</time>
      </trkpt>
      <trkpt lat="51.453868779562" lon="4.718936274556">
        <ele>5.4</ele>
        <time>2020-08-16T13:43:38Z</time>
      </trkpt>
      <trkpt lat="51.453651436895" lon="4.719774632194">
        <ele>7.8</ele>
        <time>2020-08-16T13:43:51Z</time>
      </trkpt>
      <trkpt lat="51.453425125595" lon="4.720607625416">
        <ele>10.8</ele>
        <time>2020-08-16T13:44:06Z</time>
      </trkpt>
      <trkpt lat="51.453207363833" lon="4.721430644177">
        <ele>12.6</ele>
        <time>2020-08-16T13:44:19Z</time>
      </trkpt>
      <trkpt lat="51.452976358669" lon="4.7222954048">
        <ele>12.2</ele>
        <time>2020-08-16T13:44:30Z</time>
      </trkpt>
      <trkpt lat="51.452754322138" lon="4.723134265352">
        <ele>10.6</ele>
        <time>2020-08-16T13:44:39Z</time>
      </trkpt>
      <trkpt lat="51.452530190132" lon="4.723994248292">
        <ele>8.2</ele>
        <time>2020-08-16T13:44:47Z</time>
      </trkpt>
      <trkpt lat="51.452299352606" lon="4.724901840424">
        <ele>6.8</ele>
        <time>2020-08-16T13:44:55Z</time>
      </trkpt>
      <trkpt lat="51.452088799278" lon="4.725697701829">
        <ele>6.2</ele>
        <time>2020-08-16T13:45:02Z</time>
      </trkpt>
      <trkpt lat="51.451840024486" lon="4.726474284864">
        <ele>5.2</ele>
        <time>2020-08-16T13:45:10Z</time>
      </trkpt>
      <trkpt lat="51.451501814821" lon="4.727175598437">
        <ele>4.6</ele>
        <time>2020-08-16T13:45:19Z</time>
      </trkpt>
      <trkpt lat="51.451161844957" lon="4.727922006632">
        <ele>4.6</ele>
        <time>2020-08-16T13:45:29Z</time>
      </trkpt>
      <trkpt lat="51.450793041357" lon="4.728640251643">
        <ele>4.6</ele>
        <time>2020-08-16T13:45:39Z</time>
      </trkpt>
      <trkpt lat="51.450373862538" lon="4.729534935649">
        <ele>4.2</ele>
        <time>2020-08-16T13:45:51Z</time>
      </trkpt>
      <trkpt lat="51.44994873257" lon="4.730184281442">
        <ele>4.2</ele>
        <time>2020-08-16T13:46:01Z</time>
      </trkpt>
      <trkpt lat="51.449559644772" lon="4.730799848178">
        <ele>4.8</ele>
        <time>2020-08-16T13:46:11Z</time>
      </trkpt>
      <trkpt lat="51.449293100352" lon="4.731633763409">
        <ele>4</ele>
        <time>2020-08-16T13:46:22Z</time>
      </trkpt>
      <trkpt lat="51.449097718263" lon="4.732497685842">
        <ele>3.4</ele>
        <time>2020-08-16T13:46:31Z</time>
      </trkpt>
      <trkpt lat="51.449003170431" lon="4.732862549949">
        <ele>3.2</ele>
        <time>2020-08-16T13:46:35Z</time>
      </trkpt>
      <trkpt lat="51.448839639562" lon="4.733692525687">
        <ele>3</ele>
        <time>2020-08-16T13:46:44Z</time>
      </trkpt>
      <trkpt lat="51.448678204168" lon="4.734535744827">
        <ele>3</ele>
        <time>2020-08-16T13:46:54Z</time>
      </trkpt>
      <trkpt lat="51.44848609102" lon="4.735398074699">
        <ele>2.6</ele>
        <time>2020-08-16T13:47:06Z</time>
      </trkpt>
      <trkpt lat="51.448341587064" lon="4.73616828749">
        <ele>2.8</ele>
        <time>2020-08-16T13:47:17Z</time>
      </trkpt>
      <trkpt lat="51.448197921298" lon="4.736783686588">
        <ele>2.2</ele>
        <time>2020-08-16T13:47:27Z</time>
      </trkpt>
      <trkpt lat="51.448025505615" lon="4.73767954406">
        <ele>0.6</ele>
        <time>2020-08-16T13:47:39Z</time>
      </trkpt>
      <trkpt lat="51.447893155414" lon="4.738301313402">
        <ele>0.8</ele>
        <time>2020-08-16T13:47:46Z</time>
      </trkpt>
      <trkpt lat="51.447819981427" lon="4.738447074643">
        <ele>1</ele>
        <time>2020-08-16T13:47:48Z</time>
      </trkpt>
      <trkpt lat="51.447714537125" lon="4.738547405986">
        <ele>1</ele>
        <time>2020-08-16T13:47:50Z</time>
      </trkpt>
      <trkpt lat="51.447599453638" lon="4.738600882508">
        <ele>0.8</ele>
        <time>2020-08-16T13:47:52Z</time>
      </trkpt>
      <trkpt lat="51.447035938501" lon="4.738595182816">
        <ele>1.6</ele>
        <time>2020-08-16T13:48:02Z</time>
      </trkpt>
      <trkpt lat="51.446988496947" lon="4.738588812572">
        <ele>1.6</ele>
        <time>2020-08-16T13:48:03Z</time>
      </trkpt>
      <trkpt lat="51.44685664966" lon="4.738593841712">
        <ele>1.8</ele>
        <time>2020-08-16T13:48:06Z</time>
      </trkpt>
      <trkpt lat="51.446279220569" lon="4.738466855927">
        <ele>3</ele>
        <time>2020-08-16T13:48:17Z</time>
      </trkpt>
      <trkpt lat="51.445732804508" lon="4.738232330365">
        <ele>2.6</ele>
        <time>2020-08-16T13:48:27Z</time>
      </trkpt>
      <trkpt lat="51.445740096761" lon="4.738022615227">
        <ele>2.6</ele>
        <time>2020-08-16T13:48:30Z</time>
      </trkpt>
      <trkpt lat="51.445822155562" lon="4.737730170736">
        <ele>2.8</ele>
        <time>2020-08-16T13:48:34Z</time>
      </trkpt>
      <trkpt lat="51.445827939073" lon="4.737585582961">
        <ele>2.8</ele>
        <time>2020-08-16T13:48:36Z</time>
      </trkpt>
      <trkpt lat="51.445776138931" lon="4.737484916342">
        <ele>3.2</ele>
        <time>2020-08-16T13:48:38Z</time>
      </trkpt>
      <trkpt lat="51.445339358122" lon="4.736946546905">
        <ele>3.8</ele>
        <time>2020-08-16T13:48:49Z</time>
      </trkpt>
      <trkpt lat="51.444897045259" lon="4.736501300377">
        <ele>5</ele>
        <time>2020-08-16T13:48:58Z</time>
      </trkpt>
      <trkpt lat="51.444357753813" lon="4.736234253043">
        <ele>6.8</ele>
        <time>2020-08-16T13:49:07Z</time>
      </trkpt>
      <trkpt lat="51.444174274022" lon="4.736208101515">
        <ele>7.2</ele>
        <time>2020-08-16T13:49:10Z</time>
      </trkpt>
      <trkpt lat="51.443594833275" lon="4.736104836507">
        <ele>8</ele>
        <time>2020-08-16T13:49:21Z</time>
      </trkpt>
      <trkpt lat="51.443195016645" lon="4.7359159923">
        <ele>8</ele>
        <time>2020-08-16T13:49:29Z</time>
      </trkpt>
      <trkpt lat="51.443091332542" lon="4.735869808031">
        <ele>8.2</ele>
        <time>2020-08-16T13:49:31Z</time>
      </trkpt>
      <trkpt lat="51.442990246828" lon="4.735802669012">
        <ele>8</ele>
        <time>2020-08-16T13:49:33Z</time>
      </trkpt>
      <trkpt lat="51.442517256211" lon="4.73555640879">
        <ele>8.2</ele>
        <time>2020-08-16T13:49:42Z</time>
      </trkpt>
      <trkpt lat="51.44215524195" lon="4.734911589223">
        <ele>8.2</ele>
        <time>2020-08-16T13:49:51Z</time>
      </trkpt>
      <trkpt lat="51.44211668521" lon="4.734850233715">
        <ele>8</ele>
        <time>2020-08-16T13:49:52Z</time>
      </trkpt>
      <trkpt lat="51.442026244509" lon="4.734783429972">
        <ele>7.8</ele>
        <time>2020-08-16T13:49:54Z</time>
      </trkpt>
      <trkpt lat="51.441955082178" lon="4.734685948475">
        <ele>7.8</ele>
        <time>2020-08-16T13:49:56Z</time>
      </trkpt>
      <trkpt lat="51.441925745528" lon="4.73455058079">
        <ele>7.8</ele>
        <time>2020-08-16T13:49:58Z</time>
      </trkpt>
      <trkpt lat="51.441724579928" lon="4.733678276457">
        <ele>7</ele>
        <time>2020-08-16T13:50:09Z</time>
      </trkpt>
      <trkpt lat="51.441441858441" lon="4.732804379563">
        <ele>7.4</ele>
        <time>2020-08-16T13:50:19Z</time>
      </trkpt>
      <trkpt lat="51.441146480285" lon="4.731965854287">
        <ele>6.8</ele>
        <time>2020-08-16T13:50:30Z</time>
      </trkpt>
      <trkpt lat="51.440872895069" lon="4.731215925694">
        <ele>6</ele>
        <time>2020-08-16T13:50:39Z</time>
      </trkpt>
      <trkpt lat="51.440575337619" lon="4.730391649648">
        <ele>6.6</ele>
        <time>2020-08-16T13:50:49Z</time>
      </trkpt>
      <trkpt lat="51.440303177326" lon="4.729625795445">
        <ele>7.4</ele>
        <time>2020-08-16T13:50:57Z</time>
      </trkpt>
      <trkpt lat="51.44000947555" lon="4.728823647615">
        <ele>5.6</ele>
        <time>2020-08-16T13:51:08Z</time>
      </trkpt>
      <trkpt lat="51.439742344397" lon="4.728052009901">
        <ele>4.2</ele>
        <time>2020-08-16T13:51:17Z</time>
      </trkpt>
      <trkpt lat="51.439469094457" lon="4.727305098792">
        <ele>4.4</ele>
        <time>2020-08-16T13:51:26Z</time>
      </trkpt>
      <trkpt lat="51.439193581404" lon="4.726557768588">
        <ele>3.8</ele>
        <time>2020-08-16T13:51:36Z</time>
      </trkpt>
      <trkpt lat="51.4389324014" lon="4.72579820081">
        <ele>4</ele>
        <time>2020-08-16T13:51:46Z</time>
      </trkpt>
      <trkpt lat="51.438645656601" lon="4.725050116235">
        <ele>6.2</ele>
        <time>2020-08-16T13:51:55Z</time>
      </trkpt>
      <trkpt lat="51.438367880435" lon="4.724258194323">
        <ele>6.8</ele>
        <time>2020-08-16T13:52:05Z</time>
      </trkpt>
      <trkpt lat="51.438075352125" lon="4.723495273785">
        <ele>8.8</ele>
        <time>2020-08-16T13:52:15Z</time>
      </trkpt>
      <trkpt lat="51.437788607326" lon="4.722679966372">
        <ele>10.2</ele>
        <time>2020-08-16T13:52:27Z</time>
      </trkpt>
      <trkpt lat="51.437491636609" lon="4.721855857964">
        <ele>10.2</ele>
        <time>2020-08-16T13:52:38Z</time>
      </trkpt>
      <trkpt lat="51.437214530995" lon="4.721093105064">
        <ele>10</ele>
        <time>2020-08-16T13:52:47Z</time>
      </trkpt>
      <trkpt lat="51.436935413725" lon="4.720325574481">
        <ele>9.8</ele>
        <time>2020-08-16T13:52:56Z</time>
      </trkpt>
      <trkpt lat="51.436815636374" lon="4.720100269009">
        <ele>9.8</ele>
        <time>2020-08-16T13:52:59Z</time>
      </trkpt>
      <trkpt lat="51.436715472669" lon="4.720035560741">
        <ele>10.2</ele>
        <time>2020-08-16T13:53:01Z</time>
      </trkpt>
      <trkpt lat="51.436257150377" lon="4.720573008169">
        <ele>10.4</ele>
        <time>2020-08-16T13:53:11Z</time>
      </trkpt>
      <trkpt lat="51.435808970184" lon="4.721140965713">
        <ele>10.6</ele>
        <time>2020-08-16T13:53:21Z</time>
      </trkpt>
      <trkpt lat="51.435300691768" lon="4.721522761258">
        <ele>11</ele>
        <time>2020-08-16T13:53:32Z</time>
      </trkpt>
      <trkpt lat="51.434758131381" lon="4.721687130317">
        <ele>10.6</ele>
        <time>2020-08-16T13:53:42Z</time>
      </trkpt>
      <trkpt lat="51.434217163555" lon="4.721658967133">
        <ele>11</ele>
        <time>2020-08-16T13:53:51Z</time>
      </trkpt>
      <trkpt lat="51.433704442732" lon="4.721933055263">
        <ele>11.4</ele>
        <time>2020-08-16T13:54:01Z</time>
      </trkpt>
      <trkpt lat="51.433142436337" lon="4.722243353201">
        <ele>12.4</ele>
        <time>2020-08-16T13:54:12Z</time>
      </trkpt>
      <trkpt lat="51.432832389856" lon="4.722418283454">
        <ele>13</ele>
        <time>2020-08-16T13:54:19Z</time>
      </trkpt>
      <trkpt lat="51.432307096183" lon="4.722675607784">
        <ele>14.6</ele>
        <time>2020-08-16T13:54:31Z</time>
      </trkpt>
      <trkpt lat="51.432150187015" lon="4.722736208921">
        <ele>14.6</ele>
        <time>2020-08-16T13:54:35Z</time>
      </trkpt>
      <trkpt lat="51.431587090973" lon="4.722786751778">
        <ele>15.6</ele>
        <time>2020-08-16T13:54:48Z</time>
      </trkpt>
      <trkpt lat="51.430991808435" lon="4.722857159738">
        <ele>15.6</ele>
        <time>2020-08-16T13:54:59Z</time>
      </trkpt>
      <trkpt lat="51.430443799813" lon="4.722907032043">
        <ele>15.2</ele>
        <time>2020-08-16T13:55:08Z</time>
      </trkpt>
      <trkpt lat="51.429874584984" lon="4.722971405035">
        <ele>15.4</ele>
        <time>2020-08-16T13:55:17Z</time>
      </trkpt>
      <trkpt lat="51.429299167549" lon="4.723015577648">
        <ele>15.2</ele>
        <time>2020-08-16T13:55:27Z</time>
      </trkpt>
      <trkpt lat="51.428923490791" lon="4.723065952867">
        <ele>14.6</ele>
        <time>2020-08-16T13:55:34Z</time>
      </trkpt>
      <trkpt lat="51.428378080558" lon="4.723111885679">
        <ele>13.8</ele>
        <time>2020-08-16T13:55:46Z</time>
      </trkpt>
      <trkpt lat="51.427791850472" lon="4.72311850738">
        <ele>13.8</ele>
        <time>2020-08-16T13:56:00Z</time>
      </trkpt>
      <trkpt lat="51.427200926522" lon="4.723101659761">
        <ele>13.6</ele>
        <time>2020-08-16T13:56:12Z</time>
      </trkpt>
      <trkpt lat="51.426658114678" lon="4.723076094966">
        <ele>13.6</ele>
        <time>2020-08-16T13:56:22Z</time>
      </trkpt>
      <trkpt lat="51.426101137423" lon="4.72305480494">
        <ele>13.8</ele>
        <time>2020-08-16T13:56:32Z</time>
      </trkpt>
      <trkpt lat="51.425516080803" lon="4.723032844362">
        <ele>14.2</ele>
        <time>2020-08-16T13:56:43Z</time>
      </trkpt>
      <trkpt lat="51.424959606462" lon="4.723023037539">
        <ele>14.4</ele>
        <time>2020-08-16T13:56:53Z</time>
      </trkpt>
      <trkpt lat="51.424390810728" lon="4.722994874355">
        <ele>14.4</ele>
        <time>2020-08-16T13:57:05Z</time>
      </trkpt>
      <trkpt lat="51.423850261997" lon="4.722973668148">
        <ele>14.4</ele>
        <time>2020-08-16T13:57:16Z</time>
      </trkpt>
      <trkpt lat="51.423276940037" lon="4.722964867153">
        <ele>14</ele>
        <time>2020-08-16T13:57:27Z</time>
      </trkpt>
      <trkpt lat="51.422728931415" lon="4.722958245452">
        <ele>14.2</ele>
        <time>2020-08-16T13:57:38Z</time>
      </trkpt>
      <trkpt lat="51.422568334211" lon="4.722958077814">
        <ele>14.4</ele>
        <time>2020-08-16T13:57:41Z</time>
      </trkpt>
      <trkpt lat="51.421983529048" lon="4.722980457487">
        <ele>14.4</ele>
        <time>2020-08-16T13:57:52Z</time>
      </trkpt>
      <trkpt lat="51.421426048879" lon="4.723126470185">
        <ele>14.2</ele>
        <time>2020-08-16T13:58:03Z</time>
      </trkpt>
      <trkpt lat="51.420852978376" lon="4.723308944148">
        <ele>13.8</ele>
        <time>2020-08-16T13:58:14Z</time>
      </trkpt>
      <trkpt lat="51.420298934786" lon="4.723504158599">
        <ele>13.4</ele>
        <time>2020-08-16T13:58:24Z</time>
      </trkpt>
      <trkpt lat="51.419724271722" lon="4.723694427729">
        <ele>14.2</ele>
        <time>2020-08-16T13:58:34Z</time>
      </trkpt>
      <trkpt lat="51.419352031543" lon="4.723845134291">
        <ele>13.8</ele>
        <time>2020-08-16T13:58:41Z</time>
      </trkpt>
      <trkpt lat="51.419210209795" lon="4.723860640806">
        <ele>13.6</ele>
        <time>2020-08-16T13:58:43Z</time>
      </trkpt>
      <trkpt lat="51.418667230313" lon="4.724050323203">
        <ele>13.8</ele>
        <time>2020-08-16T13:58:54Z</time>
      </trkpt>
      <trkpt lat="51.41812265827" lon="4.724243693636">
        <ele>14.2</ele>
        <time>2020-08-16T13:59:04Z</time>
      </trkpt>
      <trkpt lat="51.417958540668" lon="4.724297505434">
        <ele>14.2</ele>
        <time>2020-08-16T13:59:07Z</time>
      </trkpt>
      <trkpt lat="51.4173741546" lon="4.724503783993">
        <ele>14.2</ele>
        <time>2020-08-16T13:59:17Z</time>
      </trkpt>
      <trkpt lat="51.416823715227" lon="4.724707464163">
        <ele>14.2</ele>
        <time>2020-08-16T13:59:27Z</time>
      </trkpt>
      <trkpt lat="51.41624008353" lon="4.724893123248">
        <ele>14.2</ele>
        <time>2020-08-16T13:59:39Z</time>
      </trkpt>
      <trkpt lat="51.415702049369" lon="4.725065538931">
        <ele>14.8</ele>
        <time>2020-08-16T13:59:50Z</time>
      </trkpt>
      <trkpt lat="51.415122524803" lon="4.725147094818">
        <ele>15</ele>
        <time>2020-08-16T14:00:01Z</time>
      </trkpt>
      <trkpt lat="51.414551214499" lon="4.725201493349">
        <ele>15.6</ele>
        <time>2020-08-16T14:00:13Z</time>
      </trkpt>
      <trkpt lat="51.414433700261" lon="4.725207612136">
        <ele>15.6</ele>
        <time>2020-08-16T14:00:16Z</time>
      </trkpt>
      <trkpt lat="51.413854510971" lon="4.725230913818">
        <ele>15.6</ele>
        <time>2020-08-16T14:00:28Z</time>
      </trkpt>
      <trkpt lat="51.413545721775" lon="4.725260166649">
        <ele>15.8</ele>
        <time>2020-08-16T14:00:34Z</time>
      </trkpt>
      <trkpt lat="51.413119921255" lon="4.725278690648">
        <ele>15.6</ele>
        <time>2020-08-16T14:00:42Z</time>
      </trkpt>
      <trkpt lat="51.412580462171" lon="4.725183975178">
        <ele>15.6</ele>
        <time>2020-08-16T14:00:53Z</time>
      </trkpt>
      <trkpt lat="51.41206757371" lon="4.724834114672">
        <ele>15</ele>
        <time>2020-08-16T14:01:04Z</time>
      </trkpt>
      <trkpt lat="51.411777811427" lon="4.724643845542">
        <ele>14.6</ele>
        <time>2020-08-16T14:01:10Z</time>
      </trkpt>
      <trkpt lat="51.411446726377" lon="4.724433962766">
        <ele>15</ele>
        <time>2020-08-16T14:01:17Z</time>
      </trkpt>
      <trkpt lat="51.410911122967" lon="4.72406482389">
        <ele>15.2</ele>
        <time>2020-08-16T14:01:27Z</time>
      </trkpt>
      <trkpt lat="51.410532764001" lon="4.723848822327">
        <ele>16</ele>
        <time>2020-08-16T14:01:35Z</time>
      </trkpt>
      <trkpt lat="51.409977546945" lon="4.72375720816">
        <ele>17.2</ele>
        <time>2020-08-16T14:01:45Z</time>
      </trkpt>
      <trkpt lat="51.409398525293" lon="4.723648830193">
        <ele>17.6</ele>
        <time>2020-08-16T14:01:56Z</time>
      </trkpt>
      <trkpt lat="51.409114714159" lon="4.723606753055">
        <ele>17.6</ele>
        <time>2020-08-16T14:02:02Z</time>
      </trkpt>
      <trkpt lat="51.408919667346" lon="4.723624019769">
        <ele>17.2</ele>
        <time>2020-08-16T14:02:06Z</time>
      </trkpt>
      <trkpt lat="51.408698636643" lon="4.723703647819">
        <ele>17.2</ele>
        <time>2020-08-16T14:02:11Z</time>
      </trkpt>
      <trkpt lat="51.408144509234" lon="4.723918056821">
        <ele>16.2</ele>
        <time>2020-08-16T14:02:23Z</time>
      </trkpt>
      <trkpt lat="51.407607229444" lon="4.724098938223">
        <ele>15.8</ele>
        <time>2020-08-16T14:02:34Z</time>
      </trkpt>
      <trkpt lat="51.407067351265" lon="4.724266743861">
        <ele>15.6</ele>
        <time>2020-08-16T14:02:44Z</time>
      </trkpt>
      <trkpt lat="51.406492017649" lon="4.724436477336">
        <ele>14.8</ele>
        <time>2020-08-16T14:02:56Z</time>
      </trkpt>
      <trkpt lat="51.405924060105" lon="4.724616772005">
        <ele>14.4</ele>
        <time>2020-08-16T14:03:07Z</time>
      </trkpt>
      <trkpt lat="51.405343529711" lon="4.724783320358">
        <ele>14.6</ele>
        <time>2020-08-16T14:03:18Z</time>
      </trkpt>
      <trkpt lat="51.404782110049" lon="4.724919945328">
        <ele>15.2</ele>
        <time>2020-08-16T14:03:28Z</time>
      </trkpt>
      <trkpt lat="51.404201663474" lon="4.725057157031">
        <ele>15.8</ele>
        <time>2020-08-16T14:03:38Z</time>
      </trkpt>
      <trkpt lat="51.403625491668" lon="4.725201577168">
        <ele>16</ele>
        <time>2020-08-16T14:03:49Z</time>
      </trkpt>
      <trkpt lat="51.403051080061" lon="4.725304087805">
        <ele>16.2</ele>
        <time>2020-08-16T14:04:00Z</time>
      </trkpt>
      <trkpt lat="51.402493683711" lon="4.72536653296">
        <ele>16.6</ele>
        <time>2020-08-16T14:04:10Z</time>
      </trkpt>
      <trkpt lat="51.401913991507" lon="4.725451106331">
        <ele>17</ele>
        <time>2020-08-16T14:04:20Z</time>
      </trkpt>
      <trkpt lat="51.401324911575" lon="4.725517658617">
        <ele>17.2</ele>
        <time>2020-08-16T14:04:29Z</time>
      </trkpt>
      <trkpt lat="51.400740609326" lon="4.72560122616">
        <ele>17.4</ele>
        <time>2020-08-16T14:04:41Z</time>
      </trkpt>
      <trkpt lat="51.40015521743" lon="4.725668365179">
        <ele>17.4</ele>
        <time>2020-08-16T14:04:52Z</time>
      </trkpt>
      <trkpt lat="51.399611986491" lon="4.725747825591">
        <ele>17.8</ele>
        <time>2020-08-16T14:05:02Z</time>
      </trkpt>
      <trkpt lat="51.399056517978" lon="4.725825106709">
        <ele>18.2</ele>
        <time>2020-08-16T14:05:12Z</time>
      </trkpt>
      <trkpt lat="51.398502642026" lon="4.725893083918">
        <ele>18.2</ele>
        <time>2020-08-16T14:05:22Z</time>
      </trkpt>
      <trkpt lat="51.397923871831" lon="4.72596332424">
        <ele>17.6</ele>
        <time>2020-08-16T14:05:33Z</time>
      </trkpt>
      <trkpt lat="51.397342503247" lon="4.726037420236">
        <ele>18.2</ele>
        <time>2020-08-16T14:05:43Z</time>
      </trkpt>
      <trkpt lat="51.397072522248" lon="4.726081425211">
        <ele>18.4</ele>
        <time>2020-08-16T14:05:49Z</time>
      </trkpt>
      <trkpt lat="51.396527950205" lon="4.726138757407">
        <ele>18.8</ele>
        <time>2020-08-16T14:06:00Z</time>
      </trkpt>
      <trkpt lat="51.395941803938" lon="4.726205058236">
        <ele>18.4</ele>
        <time>2020-08-16T14:06:11Z</time>
      </trkpt>
      <trkpt lat="51.395366218865" lon="4.726283680458">
        <ele>17.8</ele>
        <time>2020-08-16T14:06:22Z</time>
      </trkpt>
      <trkpt lat="51.394796417303" lon="4.726376635729">
        <ele>17.8</ele>
        <time>2020-08-16T14:06:33Z</time>
      </trkpt>
      <trkpt lat="51.394749813939" lon="4.726376719548">
        <ele>17.8</ele>
        <time>2020-08-16T14:06:34Z</time>
      </trkpt>
      <trkpt lat="51.394662893636" lon="4.726371355132">
        <ele>17.8</ele>
        <time>2020-08-16T14:06:36Z</time>
      </trkpt>
      <trkpt lat="51.394542026638" lon="4.726382167783">
        <ele>17.4</ele>
        <time>2020-08-16T14:06:39Z</time>
      </trkpt>
      <trkpt lat="51.394474133248" lon="4.726317208058">
        <ele>17.4</ele>
        <time>2020-08-16T14:06:41Z</time>
      </trkpt>
      <trkpt lat="51.394425937323" lon="4.726191814834">
        <ele>17.4</ele>
        <time>2020-08-16T14:06:44Z</time>
      </trkpt>
      <trkpt lat="51.394383524909" lon="4.72612509491">
        <ele>17.2</ele>
        <time>2020-08-16T14:06:48Z</time>
      </trkpt>
      <trkpt lat="51.394349410576" lon="4.726073797682">
        <ele>17</ele>
        <time>2020-08-16T14:06:51Z</time>
      </trkpt>
      <trkpt lat="51.394313116949" lon="4.726131632792">
        <ele>16.6</ele>
        <time>2020-08-16T14:06:54Z</time>
      </trkpt>
      <trkpt lat="51.394278834978" lon="4.726332798392">
        <ele>16.2</ele>
        <time>2020-08-16T14:06:57Z</time>
      </trkpt>
      <trkpt lat="51.394186969354" lon="4.726458107797">
        <ele>16</ele>
        <time>2020-08-16T14:07:01Z</time>
      </trkpt>
      <trkpt lat="51.39409845649" lon="4.726448133336">
        <ele>15.8</ele>
        <time>2020-08-16T14:07:03Z</time>
      </trkpt>
      <trkpt lat="51.393999382432" lon="4.726430447527">
        <ele>15.8</ele>
        <time>2020-08-16T14:07:05Z</time>
      </trkpt>
      <trkpt lat="51.393452379638" lon="4.726537149114">
        <ele>15.2</ele>
        <time>2020-08-16T14:07:17Z</time>
      </trkpt>
      <trkpt lat="51.392929935811" lon="4.72661627425">
        <ele>16.2</ele>
        <time>2020-08-16T14:07:32Z</time>
      </trkpt>
      <trkpt lat="51.392839327472" lon="4.726621890123">
        <ele>16.2</ele>
        <time>2020-08-16T14:07:34Z</time>
      </trkpt>
      <trkpt lat="51.392495921029" lon="4.726665811279">
        <ele>16.8</ele>
        <time>2020-08-16T14:07:41Z</time>
      </trkpt>
      <trkpt lat="51.392409168364" lon="4.72672440076">
        <ele>17.2</ele>
        <time>2020-08-16T14:07:43Z</time>
      </trkpt>
      <trkpt lat="51.392328283029" lon="4.726791204503">
        <ele>17.4</ele>
        <time>2020-08-16T14:07:45Z</time>
      </trkpt>
      <trkpt lat="51.392238931975" lon="4.726821882257">
        <ele>17.6</ele>
        <time>2020-08-16T14:07:47Z</time>
      </trkpt>
      <trkpt lat="51.391696120131" lon="4.726889608009">
        <ele>18</ele>
        <time>2020-08-16T14:07:57Z</time>
      </trkpt>
      <trkpt lat="51.391594028589" lon="4.726907042361">
        <ele>17.6</ele>
        <time>2020-08-16T14:07:59Z</time>
      </trkpt>
      <trkpt lat="51.391050713831" lon="4.726976193036">
        <ele>18</ele>
        <time>2020-08-16T14:08:09Z</time>
      </trkpt>
      <trkpt lat="51.390468926152" lon="4.7270144145">
        <ele>18.6</ele>
        <time>2020-08-16T14:08:19Z</time>
      </trkpt>
      <trkpt lat="51.389900549513" lon="4.727137460792">
        <ele>19</ele>
        <time>2020-08-16T14:08:29Z</time>
      </trkpt>
      <trkpt lat="51.389508192774" lon="4.727228404407">
        <ele>18.8</ele>
        <time>2020-08-16T14:08:36Z</time>
      </trkpt>
      <trkpt lat="51.389394869486" lon="4.727231924805">
        <ele>19</ele>
        <time>2020-08-16T14:08:38Z</time>
      </trkpt>
      <trkpt lat="51.388829007417" lon="4.727359078228">
        <ele>19.2</ele>
        <time>2020-08-16T14:08:48Z</time>
      </trkpt>
      <trkpt lat="51.388722808744" lon="4.727378524236">
        <ele>19.2</ele>
        <time>2020-08-16T14:08:50Z</time>
      </trkpt>
      <trkpt lat="51.388625578704" lon="4.727411381284">
        <ele>19.2</ele>
        <time>2020-08-16T14:08:52Z</time>
      </trkpt>
      <trkpt lat="51.388287704315" lon="4.727496625207">
        <ele>19.2</ele>
        <time>2020-08-16T14:09:02Z</time>
      </trkpt>
      <trkpt lat="51.388278148949" lon="4.727500061786">
        <ele>19.6</ele>
        <time>2020-08-16T14:11:13Z</time>
      </trkpt>
      <trkpt lat="51.388256523647" lon="4.727505845297">
        <ele>19.6</ele>
        <time>2020-08-16T14:11:14Z</time>
      </trkpt>
      <trkpt lat="51.387709520853" lon="4.72770005392">
        <ele>20.2</ele>
        <time>2020-08-16T14:11:30Z</time>
      </trkpt>
      <trkpt lat="51.387166457552" lon="4.727813880122">
        <ele>20.6</ele>
        <time>2020-08-16T14:11:40Z</time>
      </trkpt>
      <trkpt lat="51.386614677075" lon="4.727919240605">
        <ele>20.8</ele>
        <time>2020-08-16T14:11:51Z</time>
      </trkpt>
      <trkpt lat="51.386564469494" lon="4.727919072967">
        <ele>21</ele>
        <time>2020-08-16T14:11:52Z</time>
      </trkpt>
      <trkpt lat="51.386081001502" lon="4.728035665196">
        <ele>20.8</ele>
        <time>2020-08-16T14:12:01Z</time>
      </trkpt>
      <trkpt lat="51.386037667079" lon="4.728030719875">
        <ele>20.8</ele>
        <time>2020-08-16T14:12:03Z</time>
      </trkpt>
      <trkpt lat="51.385495525787" lon="4.727909014687">
        <ele>20.8</ele>
        <time>2020-08-16T14:12:16Z</time>
      </trkpt>
      <trkpt lat="51.384951875753" lon="4.727747327836">
        <ele>20.8</ele>
        <time>2020-08-16T14:12:27Z</time>
      </trkpt>
      <trkpt lat="51.384597321383" lon="4.727647415588">
        <ele>20.8</ele>
        <time>2020-08-16T14:12:34Z</time>
      </trkpt>
      <trkpt lat="51.38449028452" lon="4.727653199099">
        <ele>20.6</ele>
        <time>2020-08-16T14:12:36Z</time>
      </trkpt>
      <trkpt lat="51.384294231879" lon="4.727768031129">
        <ele>20.6</ele>
        <time>2020-08-16T14:12:40Z</time>
      </trkpt>
      <trkpt lat="51.384197420934" lon="4.727825614782">
        <ele>20.6</ele>
        <time>2020-08-16T14:12:42Z</time>
      </trkpt>
      <trkpt lat="51.384038583929" lon="4.72780650405">
        <ele>20.4</ele>
        <time>2020-08-16T14:12:45Z</time>
      </trkpt>
      <trkpt lat="51.383929116315" lon="4.727812119923">
        <ele>20.4</ele>
        <time>2020-08-16T14:12:47Z</time>
      </trkpt>
      <trkpt lat="51.383426705229" lon="4.727290933381">
        <ele>20.2</ele>
        <time>2020-08-16T14:12:57Z</time>
      </trkpt>
      <trkpt lat="51.382975088457" lon="4.726762789862">
        <ele>20.2</ele>
        <time>2020-08-16T14:13:06Z</time>
      </trkpt>
      <trkpt lat="51.382526992083" lon="4.726231628859">
        <ele>20.4</ele>
        <time>2020-08-16T14:13:15Z</time>
      </trkpt>
      <trkpt lat="51.382057354226" lon="4.725681860038">
        <ele>20.4</ele>
        <time>2020-08-16T14:13:25Z</time>
      </trkpt>
      <trkpt lat="51.3815918235" lon="4.725130414837">
        <ele>20.4</ele>
        <time>2020-08-16T14:13:35Z</time>
      </trkpt>
      <trkpt lat="51.381145738782" lon="4.724607468096">
        <ele>20.8</ele>
        <time>2020-08-16T14:13:44Z</time>
      </trkpt>
      <trkpt lat="51.38070418029" lon="4.724089885771">
        <ele>21</ele>
        <time>2020-08-16T14:13:53Z</time>
      </trkpt>
      <trkpt lat="51.380239990668" lon="4.723528130833">
        <ele>21.2</ele>
        <time>2020-08-16T14:14:03Z</time>
      </trkpt>
      <trkpt lat="51.379796588158" lon="4.72299445526">
        <ele>21.2</ele>
        <time>2020-08-16T14:14:12Z</time>
      </trkpt>
      <trkpt lat="51.379349078517" lon="4.722484919559">
        <ele>20.6</ele>
        <time>2020-08-16T14:14:21Z</time>
      </trkpt>
      <trkpt lat="51.378880865583" lon="4.721935318376">
        <ele>20.2</ele>
        <time>2020-08-16T14:14:31Z</time>
      </trkpt>
      <trkpt lat="51.378440480557" lon="4.721433996937">
        <ele>20</ele>
        <time>2020-08-16T14:14:40Z</time>
      </trkpt>
      <trkpt lat="51.377972267623" lon="4.720870984714">
        <ele>20.8</ele>
        <time>2020-08-16T14:14:50Z</time>
      </trkpt>
      <trkpt lat="51.377519225928" lon="4.720335213666">
        <ele>20.6</ele>
        <time>2020-08-16T14:15:01Z</time>
      </trkpt>
      <trkpt lat="51.377081774567" lon="4.719809584717">
        <ele>20.4</ele>
        <time>2020-08-16T14:15:12Z</time>
      </trkpt>
      <trkpt lat="51.37663644422" lon="4.719285213053">
        <ele>19.8</ele>
        <time>2020-08-16T14:15:23Z</time>
      </trkpt>
      <trkpt lat="51.376180049765" lon="4.718758159181">
        <ele>19.8</ele>
        <time>2020-08-16T14:15:34Z</time>
      </trkpt>
      <trkpt lat="51.375930269145" lon="4.718468145441">
        <ele>20.2</ele>
        <time>2020-08-16T14:15:41Z</time>
      </trkpt>
      <trkpt lat="51.375601698665" lon="4.718085260249">
        <ele>20.4</ele>
        <time>2020-08-16T14:15:50Z</time>
      </trkpt>
      <trkpt lat="51.375136335577" lon="4.71753280922">
        <ele>20.8</ele>
        <time>2020-08-16T14:16:01Z</time>
      </trkpt>
      <trkpt lat="51.374257074267" lon="4.7164867481">
        <ele>22.2</ele>
        <time>2020-08-16T14:16:20Z</time>
      </trkpt>
      <trkpt lat="51.373785340935" lon="4.71593857184">
        <ele>22.2</ele>
        <time>2020-08-16T14:16:31Z</time>
      </trkpt>
      <trkpt lat="51.373316457449" lon="4.715398358385">
        <ele>22</ele>
        <time>2020-08-16T14:16:43Z</time>
      </trkpt>
      <trkpt lat="51.373061396232" lon="4.715112703233">
        <ele>22</ele>
        <time>2020-08-16T14:16:49Z</time>
      </trkpt>
      <trkpt lat="51.372971542264" lon="4.715046989137">
        <ele>22</ele>
        <time>2020-08-16T14:16:51Z</time>
      </trkpt>
      <trkpt lat="51.37249410924" lon="4.71448598857">
        <ele>22.2</ele>
        <time>2020-08-16T14:17:02Z</time>
      </trkpt>
      <trkpt lat="51.372173669203" lon="4.714100169713">
        <ele>22.2</ele>
        <time>2020-08-16T14:17:09Z</time>
      </trkpt>
      <trkpt lat="51.371740241154" lon="4.713523578812">
        <ele>20.8</ele>
        <time>2020-08-16T14:17:19Z</time>
      </trkpt>
      <trkpt lat="51.371299185576" lon="4.713020161898">
        <ele>20.8</ele>
        <time>2020-08-16T14:17:28Z</time>
      </trkpt>
      <trkpt lat="51.370840025094" lon="4.712492102198">
        <ele>20.8</ele>
        <time>2020-08-16T14:17:38Z</time>
      </trkpt>
      <trkpt lat="51.370393772738" lon="4.711962030842">
        <ele>20.8</ele>
        <time>2020-08-16T14:17:49Z</time>
      </trkpt>
      <trkpt lat="51.369929583116" lon="4.711409495994">
        <ele>20.8</ele>
        <time>2020-08-16T14:18:01Z</time>
      </trkpt>
      <trkpt lat="51.369476038507" lon="4.710890321108">
        <ele>21.4</ele>
        <time>2020-08-16T14:18:13Z</time>
      </trkpt>
      <trkpt lat="51.369030624341" lon="4.710374834258">
        <ele>21.4</ele>
        <time>2020-08-16T14:18:26Z</time>
      </trkpt>
      <trkpt lat="51.368565680348" lon="4.709835458993">
        <ele>21.6</ele>
        <time>2020-08-16T14:18:37Z</time>
      </trkpt>
      <trkpt lat="51.368113057748" lon="4.709300526135">
        <ele>21.8</ele>
        <time>2020-08-16T14:18:47Z</time>
      </trkpt>
      <trkpt lat="51.367670074333" lon="4.708783782">
        <ele>21.2</ele>
        <time>2020-08-16T14:18:57Z</time>
      </trkpt>
      <trkpt lat="51.367217619371" lon="4.708248262409">
        <ele>21</ele>
        <time>2020-08-16T14:19:07Z</time>
      </trkpt>
      <trkpt lat="51.366842948441" lon="4.707809721401">
        <ele>21.4</ele>
        <time>2020-08-16T14:19:19Z</time>
      </trkpt>
      <trkpt lat="51.366730630981" lon="4.707728081695">
        <ele>23.4</ele>
        <time>2020-08-16T14:20:53Z</time>
      </trkpt>
      <trkpt lat="51.366287144652" lon="4.70717948634">
        <ele>23.2</ele>
        <time>2020-08-16T14:21:06Z</time>
      </trkpt>
      <trkpt lat="51.365828487084" lon="4.70662544275">
        <ele>23.2</ele>
        <time>2020-08-16T14:21:17Z</time>
      </trkpt>
      <trkpt lat="51.365373769009" lon="4.706086821856">
        <ele>23.2</ele>
        <time>2020-08-16T14:21:27Z</time>
      </trkpt>
      <trkpt lat="51.364914608527" lon="4.705543171822">
        <ele>23.4</ele>
        <time>2020-08-16T14:21:36Z</time>
      </trkpt>
      <trkpt lat="51.364531890973" lon="4.705109073221">
        <ele>23.6</ele>
        <time>2020-08-16T14:21:43Z</time>
      </trkpt>
      <trkpt lat="51.364355032883" lon="4.704945374714">
        <ele>23.8</ele>
        <time>2020-08-16T14:21:46Z</time>
      </trkpt>
      <trkpt lat="51.36389008889" lon="4.704398539558">
        <ele>23.8</ele>
        <time>2020-08-16T14:21:54Z</time>
      </trkpt>
      <trkpt lat="51.36341064421" lon="4.703827815987">
        <ele>23.8</ele>
        <time>2020-08-16T14:22:02Z</time>
      </trkpt>
      <trkpt lat="51.363238982898" lon="4.703611227691">
        <ele>23.8</ele>
        <time>2020-08-16T14:22:05Z</time>
      </trkpt>
      <trkpt lat="51.362784935375" lon="4.702992308195">
        <ele>23</ele>
        <time>2020-08-16T14:22:13Z</time>
      </trkpt>
      <trkpt lat="51.362361062692" lon="4.702342124212">
        <ele>23.2</ele>
        <time>2020-08-16T14:22:21Z</time>
      </trkpt>
      <trkpt lat="51.361943224977" lon="4.701698897206">
        <ele>23.2</ele>
        <time>2020-08-16T14:22:29Z</time>
      </trkpt>
      <trkpt lat="51.361524968167" lon="4.701062627177">
        <ele>22.8</ele>
        <time>2020-08-16T14:22:37Z</time>
      </trkpt>
      <trkpt lat="51.361110986126" lon="4.700414706307">
        <ele>22.8</ele>
        <time>2020-08-16T14:22:45Z</time>
      </trkpt>
      <trkpt lat="51.360692310221" lon="4.699778603916">
        <ele>22.8</ele>
        <time>2020-08-16T14:22:53Z</time>
      </trkpt>
      <trkpt lat="51.360262234932" lon="4.699140154593">
        <ele>22.4</ele>
        <time>2020-08-16T14:23:01Z</time>
      </trkpt>
      <trkpt lat="51.359830064168" lon="4.698473709724">
        <ele>22.4</ele>
        <time>2020-08-16T14:23:09Z</time>
      </trkpt>
      <trkpt lat="51.359398731594" lon="4.697844899586">
        <ele>22.2</ele>
        <time>2020-08-16T14:23:17Z</time>
      </trkpt>
      <trkpt lat="51.359010901081" lon="4.697233020886">
        <ele>22</ele>
        <time>2020-08-16T14:23:25Z</time>
      </trkpt>
      <trkpt lat="51.358597170497" lon="4.696589626242">
        <ele>22</ele>
        <time>2020-08-16T14:23:34Z</time>
      </trkpt>
      <trkpt lat="51.358183356094" lon="4.695971964031">
        <ele>20.8</ele>
        <time>2020-08-16T14:23:43Z</time>
      </trkpt>
      <trkpt lat="51.357777336858" lon="4.695333263251">
        <ele>20.8</ele>
        <time>2020-08-16T14:23:52Z</time>
      </trkpt>
      <trkpt lat="51.357367713405" lon="4.694714511393">
        <ele>20.2</ele>
        <time>2020-08-16T14:24:01Z</time>
      </trkpt>
      <trkpt lat="51.356971165716" lon="4.694097184458">
        <ele>20.2</ele>
        <time>2020-08-16T14:24:11Z</time>
      </trkpt>
      <trkpt lat="51.356597919709" lon="4.693571220233">
        <ele>20.2</ele>
        <time>2020-08-16T14:24:20Z</time>
      </trkpt>
      <trkpt lat="51.356475879245" lon="4.693382543664">
        <ele>20.2</ele>
        <time>2020-08-16T14:24:23Z</time>
      </trkpt>
      <trkpt lat="51.356094586614" lon="4.693011644589">
        <ele>19.8</ele>
        <time>2020-08-16T14:24:31Z</time>
      </trkpt>
      <trkpt lat="51.355830389126" lon="4.69284895191">
        <ele>19.8</ele>
        <time>2020-08-16T14:24:36Z</time>
      </trkpt>
      <trkpt lat="51.355778253708" lon="4.692709141818">
        <ele>19.8</ele>
        <time>2020-08-16T14:24:38Z</time>
      </trkpt>
      <trkpt lat="51.355716562924" lon="4.692586514621">
        <ele>20</ele>
        <time>2020-08-16T14:24:40Z</time>
      </trkpt>
      <trkpt lat="51.355625954585" lon="4.692506551295">
        <ele>20.2</ele>
        <time>2020-08-16T14:24:42Z</time>
      </trkpt>
      <trkpt lat="51.355473487824" lon="4.69245835537">
        <ele>20.8</ele>
        <time>2020-08-16T14:24:45Z</time>
      </trkpt>
      <trkpt lat="51.355384723503" lon="4.692367579393">
        <ele>20.8</ele>
        <time>2020-08-16T14:24:47Z</time>
      </trkpt>
      <trkpt lat="51.354964622675" lon="4.691737428151">
        <ele>21.2</ele>
        <time>2020-08-16T14:24:57Z</time>
      </trkpt>
      <trkpt lat="51.354587520994" lon="4.691095542249">
        <ele>21.2</ele>
        <time>2020-08-16T14:25:06Z</time>
      </trkpt>
      <trkpt lat="51.354258028505" lon="4.690295573713">
        <ele>21.4</ele>
        <time>2020-08-16T14:25:16Z</time>
      </trkpt>
      <trkpt lat="51.354043787141" lon="4.689461071749">
        <ele>21.2</ele>
        <time>2020-08-16T14:25:25Z</time>
      </trkpt>
      <trkpt lat="51.353837424763" lon="4.688610727994">
        <ele>21.4</ele>
        <time>2020-08-16T14:25:34Z</time>
      </trkpt>
      <trkpt lat="51.35369015478" lon="4.687780500799">
        <ele>21.6</ele>
        <time>2020-08-16T14:25:42Z</time>
      </trkpt>
      <trkpt lat="51.353621758476" lon="4.686912471235">
        <ele>22.4</ele>
        <time>2020-08-16T14:25:50Z</time>
      </trkpt>
      <trkpt lat="51.353635420973" lon="4.686046118051">
        <ele>23.6</ele>
        <time>2020-08-16T14:25:58Z</time>
      </trkpt>
      <trkpt lat="51.353695267739" lon="4.685099214808">
        <ele>24</ele>
        <time>2020-08-16T14:26:07Z</time>
      </trkpt>
      <trkpt lat="51.353673977713" lon="4.684222468068">
        <ele>24.2</ele>
        <time>2020-08-16T14:26:15Z</time>
      </trkpt>
      <trkpt lat="51.353647574728" lon="4.683304985294">
        <ele>24.6</ele>
        <time>2020-08-16T14:26:23Z</time>
      </trkpt>
      <trkpt lat="51.353599965536" lon="4.682393202212">
        <ele>24.8</ele>
        <time>2020-08-16T14:26:31Z</time>
      </trkpt>
      <trkpt lat="51.353467363878" lon="4.68153003415">
        <ele>24.8</ele>
        <time>2020-08-16T14:26:39Z</time>
      </trkpt>
      <trkpt lat="51.353197047603" lon="4.680717492764">
        <ele>24.6</ele>
        <time>2020-08-16T14:26:47Z</time>
      </trkpt>
      <trkpt lat="51.352802427751" lon="4.680008216386">
        <ele>24</ele>
        <time>2020-08-16T14:26:55Z</time>
      </trkpt>
      <trkpt lat="51.352429684658" lon="4.679302628044">
        <ele>23.4</ele>
        <time>2020-08-16T14:27:03Z</time>
      </trkpt>
      <trkpt lat="51.352080410885" lon="4.678568625061">
        <ele>23.2</ele>
        <time>2020-08-16T14:27:11Z</time>
      </trkpt>
      <trkpt lat="51.351760473762" lon="4.677840908503">
        <ele>23.8</ele>
        <time>2020-08-16T14:27:19Z</time>
      </trkpt>
      <trkpt lat="51.351411702903" lon="4.677097936887">
        <ele>23.4</ele>
        <time>2020-08-16T14:27:28Z</time>
      </trkpt>
      <trkpt lat="51.35106662008" lon="4.67633660891">
        <ele>23.2</ele>
        <time>2020-08-16T14:27:38Z</time>
      </trkpt>
      <trkpt lat="51.350735283573" lon="4.675635127699">
        <ele>23.4</ele>
        <time>2020-08-16T14:27:48Z</time>
      </trkpt>
      <trkpt lat="51.350614165118" lon="4.675394902445">
        <ele>23.6</ele>
        <time>2020-08-16T14:27:52Z</time>
      </trkpt>
      <trkpt lat="51.350459183787" lon="4.675148726042">
        <ele>23.6</ele>
        <time>2020-08-16T14:27:57Z</time>
      </trkpt>
      <trkpt lat="51.35037176057" lon="4.675110588397">
        <ele>23.4</ele>
        <time>2020-08-16T14:27:59Z</time>
      </trkpt>
      <trkpt lat="51.349949815724" lon="4.675131878423">
        <ele>23.6</ele>
        <time>2020-08-16T14:28:09Z</time>
      </trkpt>
      <trkpt lat="51.349828697269" lon="4.675138248667">
        <ele>23.4</ele>
        <time>2020-08-16T14:28:12Z</time>
      </trkpt>
      <trkpt lat="51.349638679596" lon="4.675091645303">
        <ele>23.4</ele>
        <time>2020-08-16T14:28:16Z</time>
      </trkpt>
      <trkpt lat="51.349151523568" lon="4.674678082357">
        <ele>22.4</ele>
        <time>2020-08-16T14:28:26Z</time>
      </trkpt>
      <trkpt lat="51.348758663915" lon="4.674053966083">
        <ele>22</ele>
        <time>2020-08-16T14:28:35Z</time>
      </trkpt>
      <trkpt lat="51.348696051122" lon="4.673881969495">
        <ele>21.8</ele>
        <time>2020-08-16T14:28:36Z</time>
      </trkpt>
      <trkpt lat="51.348478959912" lon="4.673004049289">
        <ele>20.6</ele>
        <time>2020-08-16T14:28:46Z</time>
      </trkpt>
      <trkpt lat="51.348265975833" lon="4.672138701933">
        <ele>20</ele>
        <time>2020-08-16T14:28:55Z</time>
      </trkpt>
      <trkpt lat="51.348037066144" lon="4.671317024276">
        <ele>19.4</ele>
        <time>2020-08-16T14:29:04Z</time>
      </trkpt>
      <trkpt lat="51.347847551385" lon="4.670489646927">
        <ele>19.6</ele>
        <time>2020-08-16T14:29:14Z</time>
      </trkpt>
      <trkpt lat="51.347831374318" lon="4.670171470003">
        <ele>19.2</ele>
        <time>2020-08-16T14:29:18Z</time>
      </trkpt>
      <trkpt lat="51.347856268561" lon="4.66993032274">
        <ele>19</ele>
        <time>2020-08-16T14:29:20Z</time>
      </trkpt>
      <trkpt lat="51.347857944941" lon="4.669699736671">
        <ele>18.6</ele>
        <time>2020-08-16T14:29:25Z</time>
      </trkpt>
      <trkpt lat="51.347693659701" lon="4.669569146669">
        <ele>19</ele>
        <time>2020-08-16T14:29:32Z</time>
      </trkpt>
      <trkpt lat="51.347471036437" lon="4.668800945534">
        <ele>18.6</ele>
        <time>2020-08-16T14:29:47Z</time>
      </trkpt>
      <trkpt lat="51.347150764038" lon="4.668063170696">
        <ele>19.6</ele>
        <time>2020-08-16T14:29:56Z</time>
      </trkpt>
      <trkpt lat="51.346939875434" lon="4.667693948001">
        <ele>20</ele>
        <time>2020-08-16T14:30:01Z</time>
      </trkpt>
      <trkpt lat="51.346575514241" lon="4.666945444331">
        <ele>20.4</ele>
        <time>2020-08-16T14:30:10Z</time>
      </trkpt>
      <trkpt lat="51.346206962098" lon="4.666193504082">
        <ele>21</ele>
        <time>2020-08-16T14:30:19Z</time>
      </trkpt>
      <trkpt lat="51.345851988633" lon="4.665442318204">
        <ele>20.6</ele>
        <time>2020-08-16T14:30:28Z</time>
      </trkpt>
      <trkpt lat="51.345788370012" lon="4.665267974684">
        <ele>20.2</ele>
        <time>2020-08-16T14:30:30Z</time>
      </trkpt>
      <trkpt lat="51.34544487975" lon="4.664568337491">
        <ele>19.8</ele>
        <time>2020-08-16T14:30:39Z</time>
      </trkpt>
      <trkpt lat="51.345278834311" lon="4.664289974592">
        <ele>19.6</ele>
        <time>2020-08-16T14:30:43Z</time>
      </trkpt>
      <trkpt lat="51.344906929408" lon="4.663441391036">
        <ele>19.6</ele>
        <time>2020-08-16T14:30:53Z</time>
      </trkpt>
      <trkpt lat="51.344771980818" lon="4.663020535837">
        <ele>19.6</ele>
        <time>2020-08-16T14:30:59Z</time>
      </trkpt>
      <trkpt lat="51.344560673119" lon="4.662178154887">
        <ele>19.6</ele>
        <time>2020-08-16T14:31:09Z</time>
      </trkpt>
      <trkpt lat="51.344337966036" lon="4.661293277704">
        <ele>19.6</ele>
        <time>2020-08-16T14:31:18Z</time>
      </trkpt>
      <trkpt lat="51.344112576745" lon="4.66040848434">
        <ele>20</ele>
        <time>2020-08-16T14:31:27Z</time>
      </trkpt>
      <trkpt lat="51.343888863834" lon="4.659540873871">
        <ele>20.2</ele>
        <time>2020-08-16T14:31:36Z</time>
      </trkpt>
      <trkpt lat="51.34375844147" lon="4.65899613419">
        <ele>20.2</ele>
        <time>2020-08-16T14:31:42Z</time>
      </trkpt>
      <trkpt lat="51.343730529743" lon="4.658815336607">
        <ele>20</ele>
        <time>2020-08-16T14:31:44Z</time>
      </trkpt>
      <trkpt lat="51.343527268668" lon="4.658006650895">
        <ele>20.2</ele>
        <time>2020-08-16T14:31:53Z</time>
      </trkpt>
      <trkpt lat="51.343317134435" lon="4.657195115337">
        <ele>20.8</ele>
        <time>2020-08-16T14:32:02Z</time>
      </trkpt>
      <trkpt lat="51.343109598591" lon="4.656389950023">
        <ele>21.2</ele>
        <time>2020-08-16T14:32:11Z</time>
      </trkpt>
      <trkpt lat="51.342894183761" lon="4.655533152205">
        <ele>21.6</ele>
        <time>2020-08-16T14:32:20Z</time>
      </trkpt>
      <trkpt lat="51.342695365093" lon="4.6547121451">
        <ele>22</ele>
        <time>2020-08-16T14:32:29Z</time>
      </trkpt>
      <trkpt lat="51.342561673788" lon="4.654222893597">
        <ele>22</ele>
        <time>2020-08-16T14:32:35Z</time>
      </trkpt>
      <trkpt lat="51.342484811765" lon="4.654177631337">
        <ele>22</ele>
        <time>2020-08-16T14:32:38Z</time>
      </trkpt>
      <trkpt lat="51.34241398471" lon="4.654307886063">
        <ele>22</ele>
        <time>2020-08-16T14:32:42Z</time>
      </trkpt>
      <trkpt lat="51.342373583952" lon="4.654234795895">
        <ele>22</ele>
        <time>2020-08-16T14:32:45Z</time>
      </trkpt>
      <trkpt lat="51.342082396746" lon="4.653529375191">
        <ele>22.6</ele>
        <time>2020-08-16T14:32:59Z</time>
      </trkpt>
      <trkpt lat="51.341749048583" lon="4.652846417979">
        <ele>22.6</ele>
        <time>2020-08-16T14:33:08Z</time>
      </trkpt>
      <trkpt lat="51.341393404566" lon="4.65213722542">
        <ele>23</ele>
        <time>2020-08-16T14:33:17Z</time>
      </trkpt>
      <trkpt lat="51.341057206557" lon="4.651448903792">
        <ele>23</ele>
        <time>2020-08-16T14:33:26Z</time>
      </trkpt>
      <trkpt lat="51.340828883601" lon="4.650614737104">
        <ele>22.6</ele>
        <time>2020-08-16T14:33:35Z</time>
      </trkpt>
      <trkpt lat="51.34062444906" lon="4.649790628696">
        <ele>21.8</ele>
        <time>2020-08-16T14:33:44Z</time>
      </trkpt>
      <trkpt lat="51.340436275405" lon="4.648983703183">
        <ele>21.2</ele>
        <time>2020-08-16T14:33:53Z</time>
      </trkpt>
      <trkpt lat="51.340328903266" lon="4.648538959569">
        <ele>20.8</ele>
        <time>2020-08-16T14:33:58Z</time>
      </trkpt>
      <trkpt lat="51.340244832809" lon="4.648383559143">
        <ele>20.6</ele>
        <time>2020-08-16T14:34:00Z</time>
      </trkpt>
      <trkpt lat="51.339738733687" lon="4.647878801125">
        <ele>20.4</ele>
        <time>2020-08-16T14:34:09Z</time>
      </trkpt>
      <trkpt lat="51.339282171594" lon="4.647616699112">
        <ele>20.6</ele>
        <time>2020-08-16T14:34:17Z</time>
      </trkpt>
      <trkpt lat="51.339147139185" lon="4.647431878217">
        <ele>20.6</ele>
        <time>2020-08-16T14:34:20Z</time>
      </trkpt>
      <trkpt lat="51.338712872946" lon="4.646884121052">
        <ele>21.2</ele>
        <time>2020-08-16T14:34:29Z</time>
      </trkpt>
      <trkpt lat="51.338299142362" lon="4.646290514894">
        <ele>21.4</ele>
        <time>2020-08-16T14:34:38Z</time>
      </trkpt>
      <trkpt lat="51.337867223055" lon="4.645655166874">
        <ele>21.4</ele>
        <time>2020-08-16T14:34:48Z</time>
      </trkpt>
      <trkpt lat="51.337681144875" lon="4.645388873911">
        <ele>21.8</ele>
        <time>2020-08-16T14:34:53Z</time>
      </trkpt>
      <trkpt lat="51.337544603724" lon="4.645165831552">
        <ele>21.8</ele>
        <time>2020-08-16T14:34:57Z</time>
      </trkpt>
      <trkpt lat="51.337503197138" lon="4.645055441929">
        <ele>21.6</ele>
        <time>2020-08-16T14:35:06Z</time>
      </trkpt>
      <trkpt lat="51.33723145594" lon="4.644646908123">
        <ele>22</ele>
        <time>2020-08-16T14:35:40Z</time>
      </trkpt>
      <trkpt lat="51.33682912474" lon="4.644007788248">
        <ele>22.2</ele>
        <time>2020-08-16T14:35:51Z</time>
      </trkpt>
      <trkpt lat="51.336438444381" lon="4.643406889837">
        <ele>22.2</ele>
        <time>2020-08-16T14:36:00Z</time>
      </trkpt>
      <trkpt lat="51.336046674375" lon="4.642813954231">
        <ele>22.8</ele>
        <time>2020-08-16T14:36:09Z</time>
      </trkpt>
      <trkpt lat="51.33572941946" lon="4.642387064064">
        <ele>23</ele>
        <time>2020-08-16T14:36:16Z</time>
      </trkpt>
      <trkpt lat="51.33562380752" lon="4.642306849281">
        <ele>22.8</ele>
        <time>2020-08-16T14:36:18Z</time>
      </trkpt>
      <trkpt lat="51.335453822588" lon="4.64237985563">
        <ele>22.4</ele>
        <time>2020-08-16T14:36:21Z</time>
      </trkpt>
      <trkpt lat="51.335347288639" lon="4.642473984367">
        <ele>22.6</ele>
        <time>2020-08-16T14:36:23Z</time>
      </trkpt>
      <trkpt lat="51.33486105462" lon="4.642898359964">
        <ele>22.4</ele>
        <time>2020-08-16T14:36:32Z</time>
      </trkpt>
      <trkpt lat="51.33435059691" lon="4.643353413315">
        <ele>22.6</ele>
        <time>2020-08-16T14:36:42Z</time>
      </trkpt>
      <trkpt lat="51.333982966776" lon="4.643656921914">
        <ele>22.4</ele>
        <time>2020-08-16T14:36:50Z</time>
      </trkpt>
      <trkpt lat="51.333879869406" lon="4.643684833641">
        <ele>22.6</ele>
        <time>2020-08-16T14:36:52Z</time>
      </trkpt>
      <trkpt lat="51.333341835245" lon="4.643439076333">
        <ele>23.4</ele>
        <time>2020-08-16T14:37:02Z</time>
      </trkpt>
      <trkpt lat="51.333294561329" lon="4.643395071358">
        <ele>23.4</ele>
        <time>2020-08-16T14:37:03Z</time>
      </trkpt>
      <trkpt lat="51.333207138112" lon="4.643271773609">
        <ele>23.6</ele>
        <time>2020-08-16T14:37:05Z</time>
      </trkpt>
      <trkpt lat="51.332823917644" lon="4.642616644305">
        <ele>24.2</ele>
        <time>2020-08-16T14:37:14Z</time>
      </trkpt>
      <trkpt lat="51.332403649178" lon="4.641947181952">
        <ele>24.2</ele>
        <time>2020-08-16T14:37:24Z</time>
      </trkpt>
      <trkpt lat="51.331949014922" lon="4.641498163569">
        <ele>24.6</ele>
        <time>2020-08-16T14:37:34Z</time>
      </trkpt>
      <trkpt lat="51.331619187157" lon="4.641425911591">
        <ele>24.2</ele>
        <time>2020-08-16T14:37:40Z</time>
      </trkpt>
      <trkpt lat="51.331528159723" lon="4.641358604934">
        <ele>24</ele>
        <time>2020-08-16T14:37:42Z</time>
      </trkpt>
      <trkpt lat="51.331336800946" lon="4.641235642461">
        <ele>23.8</ele>
        <time>2020-08-16T14:37:49Z</time>
      </trkpt>
      <trkpt lat="51.331024072257" lon="4.640530976128">
        <ele>23.8</ele>
        <time>2020-08-16T14:38:03Z</time>
      </trkpt>
      <trkpt lat="51.330737914191" lon="4.639800745">
        <ele>23.6</ele>
        <time>2020-08-16T14:38:12Z</time>
      </trkpt>
      <trkpt lat="51.33044044056" lon="4.639059114488">
        <ele>23.6</ele>
        <time>2020-08-16T14:38:20Z</time>
      </trkpt>
      <trkpt lat="51.330156210331" lon="4.638323518944">
        <ele>23.8</ele>
        <time>2020-08-16T14:38:28Z</time>
      </trkpt>
      <trkpt lat="51.329831327887" lon="4.637513575947">
        <ele>23.6</ele>
        <time>2020-08-16T14:38:37Z</time>
      </trkpt>
      <trkpt lat="51.329525304718" lon="4.636740597129">
        <ele>23.6</ele>
        <time>2020-08-16T14:38:45Z</time>
      </trkpt>
      <trkpt lat="51.329204445586" lon="4.635952447072">
        <ele>24.2</ele>
        <time>2020-08-16T14:38:54Z</time>
      </trkpt>
      <trkpt lat="51.329123476432" lon="4.635731416369">
        <ele>24.4</ele>
        <time>2020-08-16T14:38:57Z</time>
      </trkpt>
      <trkpt lat="51.328929519266" lon="4.635261024141">
        <ele>24.6</ele>
        <time>2020-08-16T14:39:08Z</time>
      </trkpt>
      <trkpt lat="51.328611258523" lon="4.634472957903">
        <ele>24.8</ele>
        <time>2020-08-16T14:39:18Z</time>
      </trkpt>
      <trkpt lat="51.328306576458" lon="4.633681622724">
        <ele>24.6</ele>
        <time>2020-08-16T14:39:27Z</time>
      </trkpt>
      <trkpt lat="51.32800885137" lon="4.632960779324">
        <ele>24.2</ele>
        <time>2020-08-16T14:39:35Z</time>
      </trkpt>
      <trkpt lat="51.327709952816" lon="4.632235074422">
        <ele>24.2</ele>
        <time>2020-08-16T14:39:42Z</time>
      </trkpt>
      <trkpt lat="51.327414742298" lon="4.631504759475">
        <ele>24.2</ele>
        <time>2020-08-16T14:39:49Z</time>
      </trkpt>
      <trkpt lat="51.32712120816" lon="4.63077511508">
        <ele>24</ele>
        <time>2020-08-16T14:39:56Z</time>
      </trkpt>
      <trkpt lat="51.3268244889" lon="4.630038848984">
        <ele>24</ele>
        <time>2020-08-16T14:40:03Z</time>
      </trkpt>
      <trkpt lat="51.326482758837" lon="4.629224044485">
        <ele>24</ele>
        <time>2020-08-16T14:40:11Z</time>
      </trkpt>
      <trkpt lat="51.326184698473" lon="4.628494232452">
        <ele>24.4</ele>
        <time>2020-08-16T14:40:18Z</time>
      </trkpt>
      <trkpt lat="51.325861995323" lon="4.627680098505">
        <ele>24.2</ele>
        <time>2020-08-16T14:40:26Z</time>
      </trkpt>
      <trkpt lat="51.3255420582" lon="4.626874681734">
        <ele>24.2</ele>
        <time>2020-08-16T14:40:34Z</time>
      </trkpt>
      <trkpt lat="51.325239220153" lon="4.626126010426">
        <ele>24.4</ele>
        <time>2020-08-16T14:40:42Z</time>
      </trkpt>
      <trkpt lat="51.324926994378" lon="4.625349930305">
        <ele>24.6</ele>
        <time>2020-08-16T14:40:51Z</time>
      </trkpt>
      <trkpt lat="51.324620635933" lon="4.624601594273">
        <ele>24.8</ele>
        <time>2020-08-16T14:40:59Z</time>
      </trkpt>
      <trkpt lat="51.324309835081" lon="4.623857616829">
        <ele>25</ele>
        <time>2020-08-16T14:41:06Z</time>
      </trkpt>
      <trkpt lat="51.323981851334" lon="4.623064102356">
        <ele>25.4</ele>
        <time>2020-08-16T14:41:14Z</time>
      </trkpt>
      <trkpt lat="51.32369468744" lon="4.622312832659">
        <ele>25.6</ele>
        <time>2020-08-16T14:41:22Z</time>
      </trkpt>
      <trkpt lat="51.323386317339" lon="4.621489059527">
        <ele>26.8</ele>
        <time>2020-08-16T14:41:32Z</time>
      </trkpt>
      <trkpt lat="51.323093789029" lon="4.620750446499">
        <ele>26.4</ele>
        <time>2020-08-16T14:41:40Z</time>
      </trkpt>
      <trkpt lat="51.322788268774" lon="4.620009905634">
        <ele>26.2</ele>
        <time>2020-08-16T14:41:48Z</time>
      </trkpt>
      <trkpt lat="51.322471349135" lon="4.619267772208">
        <ele>26</ele>
        <time>2020-08-16T14:41:57Z</time>
      </trkpt>
      <trkpt lat="51.322168427269" lon="4.618531506112">
        <ele>26</ele>
        <time>2020-08-16T14:42:05Z</time>
      </trkpt>
      <trkpt lat="51.321885286687" lon="4.617789205048">
        <ele>26</ele>
        <time>2020-08-16T14:42:14Z</time>
      </trkpt>
      <trkpt lat="51.321572055084" lon="4.617018154067">
        <ele>26</ele>
        <time>2020-08-16T14:42:24Z</time>
      </trkpt>
      <trkpt lat="51.321275922557" lon="4.616287336206">
        <ele>26.2</ele>
        <time>2020-08-16T14:42:33Z</time>
      </trkpt>
      <trkpt lat="51.320962523316" lon="4.615506226945">
        <ele>26</ele>
        <time>2020-08-16T14:42:42Z</time>
      </trkpt>
      <trkpt lat="51.320662032201" lon="4.614757723275">
        <ele>25.4</ele>
        <time>2020-08-16T14:42:51Z</time>
      </trkpt>
      <trkpt lat="51.320345112562" lon="4.613991282339">
        <ele>25.2</ele>
        <time>2020-08-16T14:43:00Z</time>
      </trkpt>
      <trkpt lat="51.320050069682" lon="4.613256776442">
        <ele>24</ele>
        <time>2020-08-16T14:43:09Z</time>
      </trkpt>
      <trkpt lat="51.319749075653" lon="4.612495197008">
        <ele>24.2</ele>
        <time>2020-08-16T14:43:19Z</time>
      </trkpt>
      <trkpt lat="51.3193981255" lon="4.611648625108">
        <ele>24.6</ele>
        <time>2020-08-16T14:43:30Z</time>
      </trkpt>
      <trkpt lat="51.31908380425" lon="4.610890985167">
        <ele>24.2</ele>
        <time>2020-08-16T14:43:40Z</time>
      </trkpt>
      <trkpt lat="51.319057149808" lon="4.610828875288">
        <ele>24.4</ele>
        <time>2020-08-16T14:43:41Z</time>
      </trkpt>
      <trkpt lat="51.318723131093" lon="4.610042653068">
        <ele>25.4</ele>
        <time>2020-08-16T14:43:53Z</time>
      </trkpt>
      <trkpt lat="51.318417862295" lon="4.609251653165">
        <ele>26</ele>
        <time>2020-08-16T14:44:02Z</time>
      </trkpt>
      <trkpt lat="51.318125082528" lon="4.608513543051">
        <ele>26.2</ele>
        <time>2020-08-16T14:44:10Z</time>
      </trkpt>
      <trkpt lat="51.317807743794" lon="4.607719358026">
        <ele>26.2</ele>
        <time>2020-08-16T14:44:19Z</time>
      </trkpt>
      <trkpt lat="51.317488309585" lon="4.60692944777">
        <ele>25.8</ele>
        <time>2020-08-16T14:44:28Z</time>
      </trkpt>
      <trkpt lat="51.317209946686" lon="4.606153367649">
        <ele>25.6</ele>
        <time>2020-08-16T14:44:37Z</time>
      </trkpt>
      <trkpt lat="51.316865702053" lon="4.605357254787">
        <ele>25.2</ele>
        <time>2020-08-16T14:44:46Z</time>
      </trkpt>
      <trkpt lat="51.316528833492" lon="4.604609421669">
        <ele>25</ele>
        <time>2020-08-16T14:44:55Z</time>
      </trkpt>
      <trkpt lat="51.31619959246" lon="4.603799813948">
        <ele>25</ele>
        <time>2020-08-16T14:45:04Z</time>
      </trkpt>
      <trkpt lat="51.315876470215" lon="4.603022895637">
        <ele>24.8</ele>
        <time>2020-08-16T14:45:13Z</time>
      </trkpt>
      <trkpt lat="51.315566004639" lon="4.602291658681">
        <ele>25.2</ele>
        <time>2020-08-16T14:45:21Z</time>
      </trkpt>
      <trkpt lat="51.315236176874" lon="4.60149462381">
        <ele>26</ele>
        <time>2020-08-16T14:45:30Z</time>
      </trkpt>
      <trkpt lat="51.314942475098" lon="4.600759614999">
        <ele>26.6</ele>
        <time>2020-08-16T14:45:38Z</time>
      </trkpt>
      <trkpt lat="51.314642486897" lon="4.600019660867">
        <ele>27</ele>
        <time>2020-08-16T14:45:46Z</time>
      </trkpt>
      <trkpt lat="51.3143689855" lon="4.599243329289">
        <ele>26.8</ele>
        <time>2020-08-16T14:45:56Z</time>
      </trkpt>
      <trkpt lat="51.314089197678" lon="4.598499435664">
        <ele>26.4</ele>
        <time>2020-08-16T14:46:05Z</time>
      </trkpt>
      <trkpt lat="51.313766913623" lon="4.597713129625">
        <ele>26.4</ele>
        <time>2020-08-16T14:46:14Z</time>
      </trkpt>
      <trkpt lat="51.313429625967" lon="4.596924225197">
        <ele>26.8</ele>
        <time>2020-08-16T14:46:23Z</time>
      </trkpt>
      <trkpt lat="51.313108012464" lon="4.596182929961">
        <ele>27.2</ele>
        <time>2020-08-16T14:46:32Z</time>
      </trkpt>
      <trkpt lat="51.312821602941" lon="4.59544792115">
        <ele>27.4</ele>
        <time>2020-08-16T14:46:40Z</time>
      </trkpt>
      <trkpt lat="51.312524632224" lon="4.594646695329">
        <ele>27.6</ele>
        <time>2020-08-16T14:46:47Z</time>
      </trkpt>
      <trkpt lat="51.312208550775" lon="4.593851001562">
        <ele>27.6</ele>
        <time>2020-08-16T14:46:54Z</time>
      </trkpt>
      <trkpt lat="51.311909652221" lon="4.5930800344">
        <ele>27.4</ele>
        <time>2020-08-16T14:47:01Z</time>
      </trkpt>
      <trkpt lat="51.311590637107" lon="4.5922669901">
        <ele>28</ele>
        <time>2020-08-16T14:47:09Z</time>
      </trkpt>
      <trkpt lat="51.311276232038" lon="4.591476660749">
        <ele>28.4</ele>
        <time>2020-08-16T14:47:17Z</time>
      </trkpt>
      <trkpt lat="51.31095419944" lon="4.590701837913">
        <ele>28.8</ele>
        <time>2020-08-16T14:47:25Z</time>
      </trkpt>
      <trkpt lat="51.310626131874" lon="4.589967667292">
        <ele>29.4</ele>
        <time>2020-08-16T14:47:33Z</time>
      </trkpt>
      <trkpt lat="51.310306194751" lon="4.589196951587">
        <ele>29.4</ele>
        <time>2020-08-16T14:47:41Z</time>
      </trkpt>
      <trkpt lat="51.309963961774" lon="4.588403856209">
        <ele>29.8</ele>
        <time>2020-08-16T14:47:49Z</time>
      </trkpt>
      <trkpt lat="51.309631619439" lon="4.587632889047">
        <ele>29.6</ele>
        <time>2020-08-16T14:47:56Z</time>
      </trkpt>
      <trkpt lat="51.309311682316" lon="4.586822862231">
        <ele>29</ele>
        <time>2020-08-16T14:48:03Z</time>
      </trkpt>
      <trkpt lat="51.309007503165" lon="4.586030353586">
        <ele>28.4</ele>
        <time>2020-08-16T14:48:10Z</time>
      </trkpt>
      <trkpt lat="51.30866007341" lon="4.58516668261">
        <ele>28.2</ele>
        <time>2020-08-16T14:48:17Z</time>
      </trkpt>
      <trkpt lat="51.308340220106" lon="4.58441063523">
        <ele>28.4</ele>
        <time>2020-08-16T14:48:26Z</time>
      </trkpt>
      <trkpt lat="51.308003603002" lon="4.583634052195">
        <ele>29</ele>
        <time>2020-08-16T14:48:34Z</time>
      </trkpt>
      <trkpt lat="51.307676122169" lon="4.582822684275">
        <ele>28.6</ele>
        <time>2020-08-16T14:48:42Z</time>
      </trkpt>
      <trkpt lat="51.307389209732" lon="4.582010645803">
        <ele>28</ele>
        <time>2020-08-16T14:48:51Z</time>
      </trkpt>
      <trkpt lat="51.307061980356" lon="4.581225177954">
        <ele>27.2</ele>
        <time>2020-08-16T14:49:01Z</time>
      </trkpt>
      <trkpt lat="51.306765344915" lon="4.580435770612">
        <ele>26.2</ele>
        <time>2020-08-16T14:49:10Z</time>
      </trkpt>
      <trkpt lat="51.306452783864" lon="4.579645273623">
        <ele>25.8</ele>
        <time>2020-08-16T14:49:19Z</time>
      </trkpt>
      <trkpt lat="51.306165368513" lon="4.578908672251">
        <ele>25.6</ele>
        <time>2020-08-16T14:49:27Z</time>
      </trkpt>
      <trkpt lat="51.305861776095" lon="4.578114822502">
        <ele>25.4</ele>
        <time>2020-08-16T14:49:36Z</time>
      </trkpt>
      <trkpt lat="51.305544185904" lon="4.577306891161">
        <ele>25.4</ele>
        <time>2020-08-16T14:49:45Z</time>
      </trkpt>
      <trkpt lat="51.305242688961" lon="4.576586718313">
        <ele>24.8</ele>
        <time>2020-08-16T14:49:53Z</time>
      </trkpt>
      <trkpt lat="51.304936498154" lon="4.57584517162">
        <ele>24</ele>
        <time>2020-08-16T14:50:01Z</time>
      </trkpt>
      <trkpt lat="51.304607760036" lon="4.575074204458">
        <ele>23</ele>
        <time>2020-08-16T14:50:10Z</time>
      </trkpt>
      <trkpt lat="51.304298048831" lon="4.57432385677">
        <ele>22</ele>
        <time>2020-08-16T14:50:19Z</time>
      </trkpt>
      <trkpt lat="51.303995881336" lon="4.573558170205">
        <ele>21.6</ele>
        <time>2020-08-16T14:50:28Z</time>
      </trkpt>
      <trkpt lat="51.30367535748" lon="4.572754178357">
        <ele>20.8</ele>
        <time>2020-08-16T14:50:38Z</time>
      </trkpt>
      <trkpt lat="51.303349972122" lon="4.572018582813">
        <ele>20.4</ele>
        <time>2020-08-16T14:50:47Z</time>
      </trkpt>
      <trkpt lat="51.303040260917" lon="4.57120746635">
        <ele>19.8</ele>
        <time>2020-08-16T14:50:56Z</time>
      </trkpt>
      <trkpt lat="51.30270808622" lon="4.570416382628">
        <ele>19.4</ele>
        <time>2020-08-16T14:51:06Z</time>
      </trkpt>
      <trkpt lat="51.302428046941" lon="4.569654803194">
        <ele>18.6</ele>
        <time>2020-08-16T14:51:15Z</time>
      </trkpt>
      <trkpt lat="51.302366356157" lon="4.56946151658">
        <ele>19.2</ele>
        <time>2020-08-16T14:51:29Z</time>
      </trkpt>
      <trkpt lat="51.302010293045" lon="4.568729609072">
        <ele>19.6</ele>
        <time>2020-08-16T14:51:43Z</time>
      </trkpt>
      <trkpt lat="51.301955475419" lon="4.568599521984">
        <ele>19.8</ele>
        <time>2020-08-16T14:51:45Z</time>
      </trkpt>
      <trkpt lat="51.301643082006" lon="4.567824447691">
        <ele>19.2</ele>
        <time>2020-08-16T14:51:55Z</time>
      </trkpt>
      <trkpt lat="51.301304872341" lon="4.567036549091">
        <ele>18.8</ele>
        <time>2020-08-16T14:52:05Z</time>
      </trkpt>
      <trkpt lat="51.300979654621" lon="4.566256864753">
        <ele>18.4</ele>
        <time>2020-08-16T14:52:14Z</time>
      </trkpt>
      <trkpt lat="51.300693580374" lon="4.565523532322">
        <ele>18</ele>
        <time>2020-08-16T14:52:24Z</time>
      </trkpt>
      <trkpt lat="51.300389568861" lon="4.564730604582">
        <ele>17.2</ele>
        <time>2020-08-16T14:52:34Z</time>
      </trkpt>
      <trkpt lat="51.300086311719" lon="4.563962319628">
        <ele>16.8</ele>
        <time>2020-08-16T14:52:44Z</time>
      </trkpt>
      <trkpt lat="51.299837034013" lon="4.563301155356">
        <ele>16.2</ele>
        <time>2020-08-16T14:53:07Z</time>
      </trkpt>
      <trkpt lat="51.299837034013" lon="4.563301155356">
        <ele>16.2</ele>
        <time>2020-08-16T14:53:59Z</time>
      </trkpt>
      <trkpt lat="51.299837034013" lon="4.563301155356">
        <ele>16.2</ele>
        <time>2020-08-16T14:54:00Z</time>
      </trkpt>
      <trkpt lat="51.299809541381" lon="4.563243068789">
        <ele>16.8</ele>
        <time>2020-08-16T14:55:39Z</time>
      </trkpt>
      <trkpt lat="51.29964282539" lon="4.562830176395">
        <ele>16.8</ele>
        <time>2020-08-16T14:55:49Z</time>
      </trkpt>
      <trkpt lat="51.299353314564" lon="4.562099023258">
        <ele>16.6</ele>
        <time>2020-08-16T14:55:59Z</time>
      </trkpt>
      <trkpt lat="51.299034131812" lon="4.561312298124">
        <ele>16.2</ele>
        <time>2020-08-16T14:56:09Z</time>
      </trkpt>
      <trkpt lat="51.298703046762" lon="4.560527500827">
        <ele>16.4</ele>
        <time>2020-08-16T14:56:19Z</time>
      </trkpt>
      <trkpt lat="51.29840062781" lon="4.559795844776">
        <ele>16.6</ele>
        <time>2020-08-16T14:56:28Z</time>
      </trkpt>
      <trkpt lat="51.298106674577" lon="4.559038875387">
        <ele>15.4</ele>
        <time>2020-08-16T14:56:37Z</time>
      </trkpt>
      <trkpt lat="51.297883045485" lon="4.55849044767">
        <ele>14.2</ele>
        <time>2020-08-16T14:56:47Z</time>
      </trkpt>
      <trkpt lat="51.297558330679" lon="4.557720067241">
        <ele>13.2</ele>
        <time>2020-08-16T14:56:58Z</time>
      </trkpt>
      <trkpt lat="51.297238477375" lon="4.556977347082">
        <ele>13</ele>
        <time>2020-08-16T14:57:08Z</time>
      </trkpt>
      <trkpt lat="51.296950475291" lon="4.556241416262">
        <ele>12.8</ele>
        <time>2020-08-16T14:57:17Z</time>
      </trkpt>
      <trkpt lat="51.296668340537" lon="4.555502719415">
        <ele>12.4</ele>
        <time>2020-08-16T14:57:26Z</time>
      </trkpt>
      <trkpt lat="51.296362736463" lon="4.554732171348">
        <ele>12.2</ele>
        <time>2020-08-16T14:57:35Z</time>
      </trkpt>
      <trkpt lat="51.296034585078" lon="4.553949804802">
        <ele>12.6</ele>
        <time>2020-08-16T14:57:44Z</time>
      </trkpt>
      <trkpt lat="51.295718838905" lon="4.553173976138">
        <ele>12.8</ele>
        <time>2020-08-16T14:57:53Z</time>
      </trkpt>
      <trkpt lat="51.295415246487" lon="4.552417258206">
        <ele>12.6</ele>
        <time>2020-08-16T14:58:02Z</time>
      </trkpt>
      <trkpt lat="51.295042419575" lon="4.551512767377">
        <ele>13</ele>
        <time>2020-08-16T14:58:13Z</time>
      </trkpt>
      <trkpt lat="51.294737905148" lon="4.550773483797">
        <ele>12.4</ele>
        <time>2020-08-16T14:58:22Z</time>
      </trkpt>
      <trkpt lat="51.294443700458" lon="4.550033864941">
        <ele>12.4</ele>
        <time>2020-08-16T14:58:31Z</time>
      </trkpt>
      <trkpt lat="51.294130217398" lon="4.549258455372">
        <ele>12.2</ele>
        <time>2020-08-16T14:58:40Z</time>
      </trkpt>
      <trkpt lat="51.293829810102" lon="4.548499390508">
        <ele>12.2</ele>
        <time>2020-08-16T14:58:48Z</time>
      </trkpt>
      <trkpt lat="51.293484392003" lon="4.547792377243">
        <ele>11.2</ele>
        <time>2020-08-16T14:58:55Z</time>
      </trkpt>
      <trkpt lat="51.293070326143" lon="4.547091985679">
        <ele>10.6</ele>
        <time>2020-08-16T14:59:03Z</time>
      </trkpt>
      <trkpt lat="51.292647459288" lon="4.546528470542">
        <ele>9.6</ele>
        <time>2020-08-16T14:59:11Z</time>
      </trkpt>
      <trkpt lat="51.292216042895" lon="4.54600141667">
        <ele>9.2</ele>
        <time>2020-08-16T14:59:19Z</time>
      </trkpt>
      <trkpt lat="51.291718241854" lon="4.545375791654">
        <ele>8.4</ele>
        <time>2020-08-16T14:59:28Z</time>
      </trkpt>
      <trkpt lat="51.291277186276" lon="4.544803391703">
        <ele>8.2</ele>
        <time>2020-08-16T14:59:39Z</time>
      </trkpt>
      <trkpt lat="51.290805369125" lon="4.54420182274">
        <ele>7.8</ele>
        <time>2020-08-16T14:59:48Z</time>
      </trkpt>
      <trkpt lat="51.290332965241" lon="4.543612323713">
        <ele>8</ele>
        <time>2020-08-16T14:59:57Z</time>
      </trkpt>
      <trkpt lat="51.289899872468" lon="4.543068170765">
        <ele>7.8</ele>
        <time>2020-08-16T15:00:07Z</time>
      </trkpt>
      <trkpt lat="51.289455212673" lon="4.542490406398">
        <ele>8.6</ele>
        <time>2020-08-16T15:00:17Z</time>
      </trkpt>
      <trkpt lat="51.289003176806" lon="4.541918006447">
        <ele>8.6</ele>
        <time>2020-08-16T15:00:26Z</time>
      </trkpt>
      <trkpt lat="51.288545692704" lon="4.541325573755">
        <ele>8.6</ele>
        <time>2020-08-16T15:00:35Z</time>
      </trkpt>
      <trkpt lat="51.288090806991" lon="4.540736661461">
        <ele>8.6</ele>
        <time>2020-08-16T15:00:44Z</time>
      </trkpt>
      <trkpt lat="51.287631730328" lon="4.540150347556">
        <ele>7.8</ele>
        <time>2020-08-16T15:00:53Z</time>
      </trkpt>
      <trkpt lat="51.287188830732" lon="4.53962530534">
        <ele>7.6</ele>
        <time>2020-08-16T15:01:01Z</time>
      </trkpt>
      <trkpt lat="51.286750708819" lon="4.539049384991">
        <ele>7.2</ele>
        <time>2020-08-16T15:01:08Z</time>
      </trkpt>
      <trkpt lat="51.286282579704" lon="4.538446894019">
        <ele>6.8</ele>
        <time>2020-08-16T15:01:16Z</time>
      </trkpt>
      <trkpt lat="51.285850576578" lon="4.537870219299">
        <ele>6.2</ele>
        <time>2020-08-16T15:01:24Z</time>
      </trkpt>
      <trkpt lat="51.285391751372" lon="4.537316343347">
        <ele>5.8</ele>
        <time>2020-08-16T15:01:32Z</time>
      </trkpt>
      <trkpt lat="51.284943235903" lon="4.536720474076">
        <ele>5</ele>
        <time>2020-08-16T15:01:41Z</time>
      </trkpt>
      <trkpt lat="51.284481057937" lon="4.536148744677">
        <ele>6.2</ele>
        <time>2020-08-16T15:01:50Z</time>
      </trkpt>
      <trkpt lat="51.284023238559" lon="4.53553158538">
        <ele>6</ele>
        <time>2020-08-16T15:01:58Z</time>
      </trkpt>
      <trkpt lat="51.283580338963" lon="4.534965304216">
        <ele>5.2</ele>
        <time>2020-08-16T15:02:07Z</time>
      </trkpt>
      <trkpt lat="51.283139870118" lon="4.534401621441">
        <ele>5</ele>
        <time>2020-08-16T15:02:16Z</time>
      </trkpt>
      <trkpt lat="51.282674590849" lon="4.53380239941">
        <ele>5.6</ele>
        <time>2020-08-16T15:02:25Z</time>
      </trkpt>
      <trkpt lat="51.282211909969" lon="4.533206111044">
        <ele>4.2</ele>
        <time>2020-08-16T15:02:34Z</time>
      </trkpt>
      <trkpt lat="51.281739841361" lon="4.532636393301">
        <ele>4.2</ele>
        <time>2020-08-16T15:02:43Z</time>
      </trkpt>
      <trkpt lat="51.281288392227" lon="4.532092659448">
        <ele>5.2</ele>
        <time>2020-08-16T15:02:52Z</time>
      </trkpt>
      <trkpt lat="51.280852114332" lon="4.531542303894">
        <ele>5.6</ele>
        <time>2020-08-16T15:03:01Z</time>
      </trkpt>
      <trkpt lat="51.280398150628" lon="4.530975771273">
        <ele>5.8</ele>
        <time>2020-08-16T15:03:10Z</time>
      </trkpt>
      <trkpt lat="51.280008392278" lon="4.530476712947">
        <ele>6</ele>
        <time>2020-08-16T15:03:18Z</time>
      </trkpt>
      <trkpt lat="51.279561134094" lon="4.52989308125">
        <ele>6.2</ele>
        <time>2020-08-16T15:03:27Z</time>
      </trkpt>
      <trkpt lat="51.279103063259" lon="4.529319256376">
        <ele>5.6</ele>
        <time>2020-08-16T15:03:35Z</time>
      </trkpt>
      <trkpt lat="51.278645830614" lon="4.528726236951">
        <ele>5.8</ele>
        <time>2020-08-16T15:03:43Z</time>
      </trkpt>
      <trkpt lat="51.278180048431" lon="4.52814796967">
        <ele>5.6</ele>
        <time>2020-08-16T15:03:51Z</time>
      </trkpt>
      <trkpt lat="51.27775936087" lon="4.527606582749">
        <ele>5.8</ele>
        <time>2020-08-16T15:03:59Z</time>
      </trkpt>
      <trkpt lat="51.277724659804" lon="4.527540198101">
        <ele>6</ele>
        <time>2020-08-16T15:04:00Z</time>
      </trkpt>
      <trkpt lat="51.277646456677" lon="4.527291842404">
        <ele>9</ele>
        <time>2020-08-16T15:04:11Z</time>
      </trkpt>
      <trkpt lat="51.277441183946" lon="4.527124120585">
        <ele>9.8</ele>
        <time>2020-08-16T15:04:18Z</time>
      </trkpt>
      <trkpt lat="51.276985543862" lon="4.526618189101">
        <ele>10.4</ele>
        <time>2020-08-16T15:04:27Z</time>
      </trkpt>
      <trkpt lat="51.276522108611" lon="4.526062720588">
        <ele>10.6</ele>
        <time>2020-08-16T15:04:36Z</time>
      </trkpt>
      <trkpt lat="51.276085998354" lon="4.525499792184">
        <ele>10.6</ele>
        <time>2020-08-16T15:04:45Z</time>
      </trkpt>
      <trkpt lat="51.27562700551" lon="4.524944323671">
        <ele>11</ele>
        <time>2020-08-16T15:04:56Z</time>
      </trkpt>
      <trkpt lat="51.275190140882" lon="4.524382233457">
        <ele>10.8</ele>
        <time>2020-08-16T15:05:07Z</time>
      </trkpt>
      <trkpt lat="51.27474355325" lon="4.523794578448">
        <ele>10.4</ele>
        <time>2020-08-16T15:05:16Z</time>
      </trkpt>
      <trkpt lat="51.27428087237" lon="4.523172138554">
        <ele>10.2</ele>
        <time>2020-08-16T15:05:25Z</time>
      </trkpt>
      <trkpt lat="51.27384836633" lon="4.522593368359">
        <ele>9.8</ele>
        <time>2020-08-16T15:05:34Z</time>
      </trkpt>
      <trkpt lat="51.273407143114" lon="4.52204594647">
        <ele>9.4</ele>
        <time>2020-08-16T15:05:43Z</time>
      </trkpt>
      <trkpt lat="51.272951251573" lon="4.521480000582">
        <ele>9.8</ele>
        <time>2020-08-16T15:05:52Z</time>
      </trkpt>
      <trkpt lat="51.272495862946" lon="4.520900895111">
        <ele>9.8</ele>
        <time>2020-08-16T15:06:01Z</time>
      </trkpt>
      <trkpt lat="51.27206637439" lon="4.520348444082">
        <ele>9.4</ele>
        <time>2020-08-16T15:06:09Z</time>
      </trkpt>
      <trkpt lat="51.271598999646" lon="4.51975433501">
        <ele>8.8</ele>
        <time>2020-08-16T15:06:18Z</time>
      </trkpt>
      <trkpt lat="51.271205469441" lon="4.519260724919">
        <ele>8.4</ele>
        <time>2020-08-16T15:06:27Z</time>
      </trkpt>
      <trkpt lat="51.270756953972" lon="4.518700394904">
        <ele>8</ele>
        <time>2020-08-16T15:06:36Z</time>
      </trkpt>
      <trkpt lat="51.270322855371" lon="4.518132688817">
        <ele>7.8</ele>
        <time>2020-08-16T15:06:44Z</time>
      </trkpt>
      <trkpt lat="51.269838130094" lon="4.517526761266">
        <ele>7.4</ele>
        <time>2020-08-16T15:06:52Z</time>
      </trkpt>
      <trkpt lat="51.269402187475" lon="4.516943716302">
        <ele>7</ele>
        <time>2020-08-16T15:07:00Z</time>
      </trkpt>
      <trkpt lat="51.268951157436" lon="4.516388918341">
        <ele>7.2</ele>
        <time>2020-08-16T15:07:09Z</time>
      </trkpt>
      <trkpt lat="51.268518148482" lon="4.51583495857">
        <ele>6.6</ele>
        <time>2020-08-16T15:07:19Z</time>
      </trkpt>
      <trkpt lat="51.268065190606" lon="4.515365153075">
        <ele>6.2</ele>
        <time>2020-08-16T15:07:28Z</time>
      </trkpt>
      <trkpt lat="51.267557079828" lon="4.514910937914">
        <ele>6.8</ele>
        <time>2020-08-16T15:07:37Z</time>
      </trkpt>
      <trkpt lat="51.267051399801" lon="4.514562250874">
        <ele>7.2</ele>
        <time>2020-08-16T15:07:46Z</time>
      </trkpt>
      <trkpt lat="51.266542450833" lon="4.51424575033">
        <ele>7.4</ele>
        <time>2020-08-16T15:07:56Z</time>
      </trkpt>
      <trkpt lat="51.265974577108" lon="4.513955568952">
        <ele>7.4</ele>
        <time>2020-08-16T15:08:07Z</time>
      </trkpt>
      <trkpt lat="51.26543964425" lon="4.513695813871">
        <ele>7.4</ele>
        <time>2020-08-16T15:08:16Z</time>
      </trkpt>
      <trkpt lat="51.264881242072" lon="4.513389371607">
        <ele>6.4</ele>
        <time>2020-08-16T15:08:27Z</time>
      </trkpt>
      <trkpt lat="51.264322253161" lon="4.513118971513">
        <ele>5.8</ele>
        <time>2020-08-16T15:08:37Z</time>
      </trkpt>
      <trkpt lat="51.263792936176" lon="4.512821497882">
        <ele>5.4</ele>
        <time>2020-08-16T15:08:46Z</time>
      </trkpt>
      <trkpt lat="51.263242832079" lon="4.512532406151">
        <ele>5</ele>
        <time>2020-08-16T15:08:55Z</time>
      </trkpt>
      <trkpt lat="51.262700942244" lon="4.512263011885">
        <ele>4.6</ele>
        <time>2020-08-16T15:09:04Z</time>
      </trkpt>
      <trkpt lat="51.262172714906" lon="4.512033515463">
        <ele>4</ele>
        <time>2020-08-16T15:09:13Z</time>
      </trkpt>
      <trkpt lat="51.261717745374" lon="4.511791697648">
        <ele>4</ele>
        <time>2020-08-16T15:09:23Z</time>
      </trkpt>
      <trkpt lat="51.261187674018" lon="4.511531523472">
        <ele>4.2</ele>
        <time>2020-08-16T15:09:35Z</time>
      </trkpt>
      <trkpt lat="51.260637150826" lon="4.511250981279">
        <ele>4.4</ele>
        <time>2020-08-16T15:09:45Z</time>
      </trkpt>
      <trkpt lat="51.260105319271" lon="4.510971696371">
        <ele>4</ele>
        <time>2020-08-16T15:09:55Z</time>
      </trkpt>
      <trkpt lat="51.259063197644" lon="4.510451431838">
        <ele>4.4</ele>
        <time>2020-08-16T15:10:12Z</time>
      </trkpt>
      <trkpt lat="51.25849021096" lon="4.510161418098">
        <ele>5.4</ele>
        <time>2020-08-16T15:10:21Z</time>
      </trkpt>
      <trkpt lat="51.257910770213" lon="4.509889844538">
        <ele>5.8</ele>
        <time>2020-08-16T15:10:30Z</time>
      </trkpt>
      <trkpt lat="51.257346165429" lon="4.509608212698">
        <ele>5.6</ele>
        <time>2020-08-16T15:10:40Z</time>
      </trkpt>
      <trkpt lat="51.256811819304" lon="4.509348457617">
        <ele>6</ele>
        <time>2020-08-16T15:10:50Z</time>
      </trkpt>
      <trkpt lat="51.256254339135" lon="4.509081913197">
        <ele>6.2</ele>
        <time>2020-08-16T15:11:00Z</time>
      </trkpt>
      <trkpt lat="51.255729464557" lon="4.508800700452">
        <ele>5.8</ele>
        <time>2020-08-16T15:11:10Z</time>
      </trkpt>
      <trkpt lat="51.255208864748" lon="4.508557206257">
        <ele>6</ele>
        <time>2020-08-16T15:11:20Z</time>
      </trkpt>
      <trkpt lat="51.25468901931" lon="4.508301139212">
        <ele>6.2</ele>
        <time>2020-08-16T15:11:30Z</time>
      </trkpt>
      <trkpt lat="51.254172778089" lon="4.508041216493">
        <ele>6.6</ele>
        <time>2020-08-16T15:11:40Z</time>
      </trkpt>
      <trkpt lat="51.253641030353" lon="4.507792441701">
        <ele>7.2</ele>
        <time>2020-08-16T15:11:50Z</time>
      </trkpt>
      <trkpt lat="51.253123112752" lon="4.507523215073">
        <ele>7.2</ele>
        <time>2020-08-16T15:12:01Z</time>
      </trkpt>
      <trkpt lat="51.252864447318" lon="4.507356247625">
        <ele>7</ele>
        <time>2020-08-16T15:12:07Z</time>
      </trkpt>
      <trkpt lat="51.249335164504" lon="4.505285247773">
        <ele>3</ele>
        <time>2020-08-16T15:16:14Z</time>
      </trkpt>
      <trkpt lat="51.249195102955" lon="4.504624586415">
        <ele>3</ele>
        <time>2020-08-16T15:16:27Z</time>
      </trkpt>
      <trkpt lat="51.24916786178" lon="4.503720849957">
        <ele>2.4</ele>
        <time>2020-08-16T15:16:39Z</time>
      </trkpt>
      <trkpt lat="51.249162329726" lon="4.503640467536">
        <ele>2.8</ele>
        <time>2020-08-16T15:16:40Z</time>
      </trkpt>
      <trkpt lat="51.249110529584" lon="4.503407366897">
        <ele>3</ele>
        <time>2020-08-16T15:16:44Z</time>
      </trkpt>
      <trkpt lat="51.248779360715" lon="4.503282811863">
        <ele>3</ele>
        <time>2020-08-16T15:16:52Z</time>
      </trkpt>
      <trkpt lat="51.248222802555" lon="4.503282476587">
        <ele>3.6</ele>
        <time>2020-08-16T15:17:02Z</time>
      </trkpt>
      <trkpt lat="51.247644535274" lon="4.503343329181">
        <ele>3.2</ele>
        <time>2020-08-16T15:17:12Z</time>
      </trkpt>
      <trkpt lat="51.247060819758" lon="4.503336539842">
        <ele>3</ele>
        <time>2020-08-16T15:17:23Z</time>
      </trkpt>
      <trkpt lat="51.246483725943" lon="4.50332497282">
        <ele>3.4</ele>
        <time>2020-08-16T15:17:34Z</time>
      </trkpt>
      <trkpt lat="51.246401499504" lon="4.503305945907">
        <ele>3.4</ele>
        <time>2020-08-16T15:17:36Z</time>
      </trkpt>
      <trkpt lat="51.246326816775" lon="4.503228078056">
        <ele>3.6</ele>
        <time>2020-08-16T15:17:38Z</time>
      </trkpt>
      <trkpt lat="51.245867488655" lon="4.502634639536">
        <ele>4.4</ele>
        <time>2020-08-16T15:17:49Z</time>
      </trkpt>
      <trkpt lat="51.245463816351" lon="4.502029298718">
        <ele>5.4</ele>
        <time>2020-08-16T15:17:58Z</time>
      </trkpt>
      <trkpt lat="51.245036758546" lon="4.501383640961">
        <ele>5.4</ele>
        <time>2020-08-16T15:18:08Z</time>
      </trkpt>
      <trkpt lat="51.244956208487" lon="4.501276268822">
        <ele>5.2</ele>
        <time>2020-08-16T15:18:09Z</time>
      </trkpt>
      <trkpt lat="51.244909605123" lon="4.501245674887">
        <ele>5</ele>
        <time>2020-08-16T15:18:11Z</time>
      </trkpt>
      <trkpt lat="51.24469108899" lon="4.501076276688">
        <ele>5</ele>
        <time>2020-08-16T15:18:16Z</time>
      </trkpt>
      <trkpt lat="51.244441811284" lon="4.500771343166">
        <ele>4.8</ele>
        <time>2020-08-16T15:18:23Z</time>
      </trkpt>
      <trkpt lat="51.244380288138" lon="4.500667659063">
        <ele>4.8</ele>
        <time>2020-08-16T15:18:25Z</time>
      </trkpt>
      <trkpt lat="51.244098153384" lon="4.499855955867">
        <ele>6</ele>
        <time>2020-08-16T15:18:37Z</time>
      </trkpt>
      <trkpt lat="51.24375399257" lon="4.499131843526">
        <ele>7.6</ele>
        <time>2020-08-16T15:18:47Z</time>
      </trkpt>
      <trkpt lat="51.243438078759" lon="4.498389291005">
        <ele>7.8</ele>
        <time>2020-08-16T15:18:57Z</time>
      </trkpt>
      <trkpt lat="51.243153177978" lon="4.497648917778">
        <ele>7.2</ele>
        <time>2020-08-16T15:19:06Z</time>
      </trkpt>
      <trkpt lat="51.242793175373" lon="4.496893373312">
        <ele>7.2</ele>
        <time>2020-08-16T15:19:15Z</time>
      </trkpt>
      <trkpt lat="51.242523613469" lon="4.496149647325">
        <ele>7.6</ele>
        <time>2020-08-16T15:19:24Z</time>
      </trkpt>
      <trkpt lat="51.242489582955" lon="4.49597739928">
        <ele>7.4</ele>
        <time>2020-08-16T15:19:26Z</time>
      </trkpt>
      <trkpt lat="51.242317502548" lon="4.495101658368">
        <ele>6.6</ele>
        <time>2020-08-16T15:19:36Z</time>
      </trkpt>
      <trkpt lat="51.242152714394" lon="4.494256259934">
        <ele>6.2</ele>
        <time>2020-08-16T15:19:44Z</time>
      </trkpt>
      <trkpt lat="51.242005947325" lon="4.493335005305">
        <ele>5.8</ele>
        <time>2020-08-16T15:19:52Z</time>
      </trkpt>
      <trkpt lat="51.241885918517" lon="4.492425904431">
        <ele>4.4</ele>
        <time>2020-08-16T15:20:01Z</time>
      </trkpt>
      <trkpt lat="51.241800423137" lon="4.492050982044">
        <ele>4.4</ele>
        <time>2020-08-16T15:20:05Z</time>
      </trkpt>
      <trkpt lat="51.241735044317" lon="4.49189541398">
        <ele>4</ele>
        <time>2020-08-16T15:20:07Z</time>
      </trkpt>
      <trkpt lat="51.241297676775" lon="4.491288648239">
        <ele>4</ele>
        <time>2020-08-16T15:20:17Z</time>
      </trkpt>
      <trkpt lat="51.240784788314" lon="4.491015649756">
        <ele>4.2</ele>
        <time>2020-08-16T15:20:28Z</time>
      </trkpt>
      <trkpt lat="51.240256477157" lon="4.490795038148">
        <ele>5.4</ele>
        <time>2020-08-16T15:20:40Z</time>
      </trkpt>
      <trkpt lat="51.239736128805" lon="4.490550202849">
        <ele>5.8</ele>
        <time>2020-08-16T15:20:53Z</time>
      </trkpt>
      <trkpt lat="51.239164315587" lon="4.490290699225">
        <ele>5.4</ele>
        <time>2020-08-16T15:21:06Z</time>
      </trkpt>
      <trkpt lat="51.23858906579" lon="4.490074949119">
        <ele>4.2</ele>
        <time>2020-08-16T15:21:15Z</time>
      </trkpt>
      <trkpt lat="51.237988418836" lon="4.490059442604">
        <ele>2.4</ele>
        <time>2020-08-16T15:21:23Z</time>
      </trkpt>
      <trkpt lat="51.237461029688" lon="4.490270247389">
        <ele>0.8</ele>
        <time>2020-08-16T15:21:30Z</time>
      </trkpt>
      <trkpt lat="51.236932718531" lon="4.490497815974">
        <ele>0</ele>
        <time>2020-08-16T15:21:38Z</time>
      </trkpt>
      <trkpt lat="51.236416058215" lon="4.490374602044">
        <ele>0</ele>
        <time>2020-08-16T15:21:47Z</time>
      </trkpt>
      <trkpt lat="51.23634355478" lon="4.490270331208">
        <ele>0</ele>
        <time>2020-08-16T15:21:49Z</time>
      </trkpt>
      <trkpt lat="51.236319079632" lon="4.490121552483">
        <ele>0</ele>
        <time>2020-08-16T15:21:51Z</time>
      </trkpt>
      <trkpt lat="51.236323522039" lon="4.489804549025">
        <ele>0</ele>
        <time>2020-08-16T15:21:55Z</time>
      </trkpt>
      <trkpt lat="51.236376663285" lon="4.488944230809">
        <ele>0</ele>
        <time>2020-08-16T15:22:04Z</time>
      </trkpt>
      <trkpt lat="51.236378926398" lon="4.488834763195">
        <ele>0</ele>
        <time>2020-08-16T15:22:05Z</time>
      </trkpt>
      <trkpt lat="51.236382698253" lon="4.487951813849">
        <ele>0</ele>
        <time>2020-08-16T15:22:13Z</time>
      </trkpt>
      <trkpt lat="51.23635612763" lon="4.487001809303">
        <ele>0</ele>
        <time>2020-08-16T15:22:22Z</time>
      </trkpt>
      <trkpt lat="51.236336430165" lon="4.486424380212">
        <ele>0</ele>
        <time>2020-08-16T15:22:28Z</time>
      </trkpt>
      <trkpt lat="51.236328132084" lon="4.4859677343">
        <ele>0</ele>
        <time>2020-08-16T15:22:33Z</time>
      </trkpt>
      <trkpt lat="51.236330562835" lon="4.485099788555">
        <ele>0</ele>
        <time>2020-08-16T15:22:43Z</time>
      </trkpt>
      <trkpt lat="51.236321091288" lon="4.484160009927">
        <ele>0</ele>
        <time>2020-08-16T15:22:53Z</time>
      </trkpt>
      <trkpt lat="51.236301980556" lon="4.483190224097">
        <ele>0</ele>
        <time>2020-08-16T15:23:02Z</time>
      </trkpt>
      <trkpt lat="51.236289742982" lon="4.482280787947">
        <ele>0</ele>
        <time>2020-08-16T15:23:10Z</time>
      </trkpt>
      <trkpt lat="51.236321258926" lon="4.481376800032">
        <ele>0</ele>
        <time>2020-08-16T15:23:18Z</time>
      </trkpt>
      <trkpt lat="51.236360989132" lon="4.480417575396">
        <ele>0</ele>
        <time>2020-08-16T15:23:27Z</time>
      </trkpt>
      <trkpt lat="51.236385715737" lon="4.479495314939">
        <ele>0</ele>
        <time>2020-08-16T15:23:36Z</time>
      </trkpt>
      <trkpt lat="51.236387811212" lon="4.479188118304">
        <ele>0</ele>
        <time>2020-08-16T15:23:39Z</time>
      </trkpt>
      <trkpt lat="51.236347075178" lon="4.478327213355">
        <ele>0</ele>
        <time>2020-08-16T15:23:48Z</time>
      </trkpt>
      <trkpt lat="51.236336597803" lon="4.47822788784">
        <ele>0</ele>
        <time>2020-08-16T15:23:49Z</time>
      </trkpt>
      <trkpt lat="51.23630332166" lon="4.478038037805">
        <ele>0</ele>
        <time>2020-08-16T15:23:51Z</time>
      </trkpt>
      <trkpt lat="51.236260322513" lon="4.477862604638">
        <ele>0</ele>
        <time>2020-08-16T15:23:53Z</time>
      </trkpt>
      <trkpt lat="51.23626057397" lon="4.477598574788">
        <ele>0</ele>
        <time>2020-08-16T15:23:56Z</time>
      </trkpt>
      <trkpt lat="51.236064018415" lon="4.477266400091">
        <ele>0</ele>
        <time>2020-08-16T15:24:22Z</time>
      </trkpt>
      <trkpt lat="51.23583980259" lon="4.477335383128">
        <ele>0</ele>
        <time>2020-08-16T15:24:32Z</time>
      </trkpt>
      <trkpt lat="51.235720025239" lon="4.476466096279">
        <ele>0</ele>
        <time>2020-08-16T15:24:46Z</time>
      </trkpt>
      <trkpt lat="51.235582729717" lon="4.47563117522">
        <ele>0</ele>
        <time>2020-08-16T15:24:56Z</time>
      </trkpt>
      <trkpt lat="51.235364129765" lon="4.474772617203">
        <ele>0</ele>
        <time>2020-08-16T15:25:08Z</time>
      </trkpt>
      <trkpt lat="51.235115857887" lon="4.473997626729">
        <ele>0</ele>
        <time>2020-08-16T15:25:21Z</time>
      </trkpt>
      <trkpt lat="51.235014436897" lon="4.473895199911">
        <ele>0</ele>
        <time>2020-08-16T15:25:25Z</time>
      </trkpt>
      <trkpt lat="51.234852750046" lon="4.473574843693">
        <ele>0</ele>
        <time>2020-08-16T15:25:51Z</time>
      </trkpt>
      <trkpt lat="51.234504649739" lon="4.472857855967">
        <ele>0</ele>
        <time>2020-08-16T15:26:02Z</time>
      </trkpt>
      <trkpt lat="51.234215893284" lon="4.472153105815">
        <ele>0</ele>
        <time>2020-08-16T15:26:12Z</time>
      </trkpt>
      <trkpt lat="51.233888077175" lon="4.471441733962">
        <ele>0.2</ele>
        <time>2020-08-16T15:26:22Z</time>
      </trkpt>
      <trkpt lat="51.233556740668" lon="4.470713011576">
        <ele>2.8</ele>
        <time>2020-08-16T15:26:31Z</time>
      </trkpt>
      <trkpt lat="51.233247532377" lon="4.470004070474">
        <ele>5.2</ele>
        <time>2020-08-16T15:26:40Z</time>
      </trkpt>
      <trkpt lat="51.232925918874" lon="4.469267050007">
        <ele>7</ele>
        <time>2020-08-16T15:26:50Z</time>
      </trkpt>
      <trkpt lat="51.232618386963" lon="4.468499100329">
        <ele>10.4</ele>
        <time>2020-08-16T15:27:00Z</time>
      </trkpt>
      <trkpt lat="51.232258300539" lon="4.467814131461">
        <ele>11</ele>
        <time>2020-08-16T15:27:09Z</time>
      </trkpt>
      <trkpt lat="51.232145563984" lon="4.467541300616">
        <ele>11.4</ele>
        <time>2020-08-16T15:27:13Z</time>
      </trkpt>
      <trkpt lat="51.232012794688" lon="4.467462091661">
        <ele>11.2</ele>
        <time>2020-08-16T15:27:16Z</time>
      </trkpt>
      <trkpt lat="51.231881115039" lon="4.467471479389">
        <ele>10.6</ele>
        <time>2020-08-16T15:27:19Z</time>
      </trkpt>
      <trkpt lat="51.231631502057" lon="4.467185908056">
        <ele>10</ele>
        <time>2020-08-16T15:27:28Z</time>
      </trkpt>
      <trkpt lat="51.231238893861" lon="4.4671503688">
        <ele>8.6</ele>
        <time>2020-08-16T15:27:36Z</time>
      </trkpt>
      <trkpt lat="51.230947539017" lon="4.467206192254">
        <ele>7.4</ele>
        <time>2020-08-16T15:27:42Z</time>
      </trkpt>
      <trkpt lat="51.230849135511" lon="4.467235193628">
        <ele>7.2</ele>
        <time>2020-08-16T15:27:44Z</time>
      </trkpt>
      <trkpt lat="51.230723909925" lon="4.467262602441">
        <ele>6.8</ele>
        <time>2020-08-16T15:27:47Z</time>
      </trkpt>
      <trkpt lat="51.230685688461" lon="4.467111392965">
        <ele>6.4</ele>
        <time>2020-08-16T15:27:50Z</time>
      </trkpt>
      <trkpt lat="51.23077881137" lon="4.466260881572">
        <ele>4.4</ele>
        <time>2020-08-16T15:28:00Z</time>
      </trkpt>
      <trkpt lat="51.230776464438" lon="4.466084358758">
        <ele>3.6</ele>
        <time>2020-08-16T15:28:02Z</time>
      </trkpt>
      <trkpt lat="51.230759868276" lon="4.465194284797">
        <ele>1.8</ele>
        <time>2020-08-16T15:28:12Z</time>
      </trkpt>
      <trkpt lat="51.230740170811" lon="4.464842747911">
        <ele>1</ele>
        <time>2020-08-16T15:28:16Z</time>
      </trkpt>
      <trkpt lat="51.230538669935" lon="4.464041354452">
        <ele>0</ele>
        <time>2020-08-16T15:28:25Z</time>
      </trkpt>
      <trkpt lat="51.230276484103" lon="4.462995880065">
        <ele>0</ele>
        <time>2020-08-16T15:28:37Z</time>
      </trkpt>
      <trkpt lat="51.230030810614" lon="4.462214938442">
        <ele>0</ele>
        <time>2020-08-16T15:28:47Z</time>
      </trkpt>
      <trkpt lat="51.229823945322" lon="4.461397535554">
        <ele>0</ele>
        <time>2020-08-16T15:28:58Z</time>
      </trkpt>
      <trkpt lat="51.229780024166" lon="4.461261664955">
        <ele>0</ele>
        <time>2020-08-16T15:29:00Z</time>
      </trkpt>
      <trkpt lat="51.229368221419" lon="4.461004592082">
        <ele>0</ele>
        <time>2020-08-16T15:29:15Z</time>
      </trkpt>
      <trkpt lat="51.22882247591" lon="4.461027977583">
        <ele>0</ele>
        <time>2020-08-16T15:29:31Z</time>
      </trkpt>
      <trkpt lat="51.228549142151" lon="4.460980536029">
        <ele>0</ele>
        <time>2020-08-16T15:29:37Z</time>
      </trkpt>
      <trkpt lat="51.228475968164" lon="4.46089495683">
        <ele>0</ele>
        <time>2020-08-16T15:29:39Z</time>
      </trkpt>
      <trkpt lat="51.228196599437" lon="4.460473263441">
        <ele>0</ele>
        <time>2020-08-16T15:29:47Z</time>
      </trkpt>
      <trkpt lat="51.228156031041" lon="4.460342421982">
        <ele>0</ele>
        <time>2020-08-16T15:29:49Z</time>
      </trkpt>
      <trkpt lat="51.228154270842" lon="4.460199594406">
        <ele>0</ele>
        <time>2020-08-16T15:29:52Z</time>
      </trkpt>
      <trkpt lat="51.228299696807" lon="4.459968253966">
        <ele>0</ele>
        <time>2020-08-16T15:29:56Z</time>
      </trkpt>
      <trkpt lat="51.22833548752" lon="4.459808075857">
        <ele>0</ele>
        <time>2020-08-16T15:29:58Z</time>
      </trkpt>
      <trkpt lat="51.228380498323" lon="4.4595815131">
        <ele>0</ele>
        <time>2020-08-16T15:30:01Z</time>
      </trkpt>
      <trkpt lat="51.228454426681" lon="4.459310107178">
        <ele>0</ele>
        <time>2020-08-16T15:30:05Z</time>
      </trkpt>
      <trkpt lat="51.228485607349" lon="4.459161076996">
        <ele>0</ele>
        <time>2020-08-16T15:30:07Z</time>
      </trkpt>
      <trkpt lat="51.2285215657" lon="4.45896041431">
        <ele>0</ele>
        <time>2020-08-16T15:30:10Z</time>
      </trkpt>
      <trkpt lat="51.228557356413" lon="4.45853964293">
        <ele>0</ele>
        <time>2020-08-16T15:30:19Z</time>
      </trkpt>
      <trkpt lat="51.228716361056" lon="4.458199756885">
        <ele>0</ele>
        <time>2020-08-16T15:30:27Z</time>
      </trkpt>
      <trkpt lat="51.22928096584" lon="4.458008733384">
        <ele>0</ele>
        <time>2020-08-16T15:30:38Z</time>
      </trkpt>
      <trkpt lat="51.229676256244" lon="4.457944611849">
        <ele>0.4</ele>
        <time>2020-08-16T15:30:54Z</time>
      </trkpt>
    </trkseg>
  </trk>
</gpx>